GFSGBSN_sfc_thetae_000.txt.gz
Theta_e
323 326 326 325 325 327 326 326 325 322 321 320 318 318 318 318 317 318 317 317 318 318 319 320 321 322 317 307 306 319 320 319 319 319 316 313 309 306 304 309 310 307 310 311 312 311 311
321 324 326 325 325 326 326 323 324 324 322 321 319 318 318 318 318 318 318 317 318 319 319 319 320 321 311 298 314 316 317 316 315 315 315 314 311 310 305 307 307 310 311 311 311 310 310
322 322 324 325 324 325 326 324 324 323 322 322 320 318 319 319 318 318 318 319 318 318 318 318 319 316 307 303 314 314 316 314 313 312 309 315 315 310 309 304 311 311 305 309 309 310 309
322 322 322 324 324 325 325 325 324 323 321 322 320 319 319 320 319 319 319 318 319 318 319 318 318 312 300 314 315 312 312 310 312 311 311 313 313 311 308 310 307 304 305 298 307 309 310
322 321 322 324 324 325 325 325 324 324 322 321 320 320 319 320 320 320 319 318 318 318 318 317 312 308 298 313 307 311 312 306 309 310 312 311 309 305 306 299 297 302 295 298 302 310 308
323 321 323 323 324 324 324 325 324 324 323 322 322 321 319 319 319 319 318 316 316 317 315 313 311 301 304 301 307 308 311 310 305 304 303 305 302 298 299 296 287 293 295 298 299 305 307
321 323 323 323 323 324 324 324 324 324 324 322 321 321 319 319 319 318 315 311 304 301 305 298 299 300 302 307 309 306 308 306 304 301 293 299 294 290 293 297 298 298 298 299 302 307 304
318 319 322 323 323 323 324 323 323 323 323 322 321 320 319 318 318 317 314 303 304 305 296 304 303 303 306 307 300 303 308 299 298 292 296 294 289 295 298 298 298 297 296 297 302 306 304
314 316 320 321 322 322 323 323 322 322 322 321 320 319 318 317 316 314 308 306 312 309 295 297 302 301 302 304 299 300 304 300 295 292 292 289 292 298 296 294 294 296 295 297 298 304 303
312 313 316 317 320 321 321 321 321 321 321 320 319 318 317 316 309 309 306 313 312 310 287 290 293 299 302 302 295 305 306 300 295 291 292 292 296 294 294 292 294 290 299 300 300 299 291
311 312 313 314 315 317 320 320 320 321 320 319 318 317 317 315 311 305 309 311 310 304 277 293 295 305 302 296 297 298 306 301 292 292 293 289 291 291 291 293 296 293 300 300 300 297 294
310 311 311 313 312 313 318 319 320 320 319 318 317 316 316 312 310 310 312 310 305 286 277 289 295 293 294 295 296 298 299 302 300 293 293 291 298 296 294 296 297 300 297 297 300 295 289
309 310 310 312 311 311 313 318 319 319 319 318 317 316 313 312 304 312 309 302 286 280 292 288 289 293 292 291 292 293 292 291 288 284 285 289 291 295 295 291 297 298 294 286 286 285 285
308 309 310 311 310 310 312 316 319 319 319 318 317 315 312 309 312 310 305 292 281 289 288 293 292 291 289 291 291 291 290 287 292 290 286 282 281 291 294 291 293 294 294 286 283 283 286
307 308 309 310 310 309 311 317 318 318 318 317 316 312 309 310 312 309 297 284 286 291 294 291 291 287 288 291 290 290 289 288 291 292 284 286 283 295 295 296 299 293 288 293 291 291 287
306 307 308 309 308 307 311 316 318 318 317 317 309 306 306 311 312 304 292 287 290 296 294 293 287 288 285 287 286 287 287 292 291 294 294 288 284 293 296 299 299 297 299 289 293 284 283
305 306 307 308 309 307 310 311 318 319 317 314 305 299 308 312 309 298 287 288 293 297 297 292 290 289 289 287 288 286 287 292 294 294 294 291 288 289 293 294 293 296 294 297 297 292 286
304 306 306 307 308 308 310 310 314 318 316 311 303 294 309 311 295 295 290 293 297 296 299 296 295 294 290 291 288 288 288 292 297 295 289 293 288 285 289 298 301 300 298 298 291 288 289
303 305 306 307 308 309 309 311 314 318 314 307 299 301 310 307 290 290 294 294 295 295 297 296 295 296 295 291 286 289 292 297 297 296 292 293 288 284 286 294 298 296 298 299 297 294 289
302 304 305 306 307 308 308 309 316 317 315 309 301 295 300 301 300 295 292 293 291 297 296 297 297 297 294 291 292 291 291 297 298 297 303 300 293 287 287 290 296 294 297 297 296 289 289
301 303 304 305 307 307 308 310 315 316 314 308 300 297 300 291 293 295 296 294 292 292 298 299 296 295 294 290 291 290 293 296 297 297 299 296 290 294 296 297 298 297 296 297 294 293 289
301 302 304 305 306 306 307 308 309 315 313 304 297 296 301 299 297 295 294 293 293 294 295 295 293 298 298 292 292 290 293 294 292 296 294 297 291 294 293 296 297 295 297 297 296 296 295
300 301 303 304 305 306 306 307 309 314 312 304 304 304 300 298 298 295 295 295 295 297 297 298 298 296 297 298 300 299 299 298 299 296 294 294 293 291 286 292 293 288 294 296 296 297 297
300 300 303 304 305 305 305 307 309 314 313 307 304 303 297 292 294 295 298 298 297 298 295 300 301 298 303 306 306 303 301 298 298 298 300 294 293 293 286 288 280 290 294 297 297 298 298
300 300 302 303 304 305 304 306 308 309 314 306 304 302 299 293 296 295 295 298 298 298 298 299 302 302 304 302 298 294 293 294 293 293 294 299 295 289 285 285 291 293 292 293 293 294 299
300 300 301 303 303 305 304 305 308 309 313 309 304 306 301 295 294 297 296 298 294 294 294 296 298 299 300 297 296 288 286 290 288 290 296 298 298 293 287 283 281 289 294 297 297 288 295
299 299 301 302 303 304 304 305 307 309 313 309 305 307 302 296 299 298 294 296 300 295 293 293 295 296 300 293 292 289 288 293 287 287 289 292 292 289 289 286 289 295 296 296 286 289 295
299 299 300 302 303 304 304 305 307 308 312 310 305 307 303 298 300 301 300 296 298 297 293 294 295 296 296 292 293 291 290 294 291 292 292 291 289 289 289 287 284 297 295 290 295 295 296
299 299 300 301 302 303 304 305 307 307 312 311 302 305 306 300 300 303 303 303 302 301 297 296 296 298 300 296 295 293 289 290 293 288 296 290 294 291 292 291 296 296 295 297 299 296 297

GFSGBSN_sfc_thetae_003.txt.gz
Theta_e
324 324 324 323 325 326 326 327 326 326 324 322 320 318 318 318 317 317 317 317 318 318 318 320 321 323 317 307 306 318 322 321 318 318 315 313 307 304 299 304 307 304 307 310 312 311 310
325 325 325 324 325 326 325 326 325 326 324 323 321 319 318 318 318 317 318 317 317 318 319 318 319 321 310 297 312 315 316 313 314 316 313 313 309 309 304 302 302 307 308 308 310 310 310
323 325 324 324 324 325 325 325 325 324 323 323 322 320 319 318 318 317 318 318 319 318 318 318 318 315 307 301 312 311 316 313 311 309 308 315 314 309 308 302 307 308 303 306 308 310 309
319 322 325 324 324 324 324 325 325 325 323 322 322 322 320 319 318 319 318 318 318 319 318 318 318 311 300 313 313 311 311 308 309 310 309 310 314 307 306 308 303 302 304 297 305 307 309
315 318 321 323 324 324 324 324 325 325 324 322 322 322 320 319 320 319 320 318 318 318 317 317 311 306 297 314 307 310 309 306 307 307 308 310 307 304 303 297 295 296 292 294 299 307 306
313 314 318 320 323 323 324 324 325 324 324 323 322 321 320 319 319 319 319 316 316 316 314 314 311 301 303 300 307 309 309 308 304 303 303 304 300 294 294 294 286 291 291 295 295 302 305
312 313 315 318 320 323 322 323 324 324 323 322 322 321 320 319 319 318 313 308 300 298 305 297 298 298 302 307 309 306 307 305 304 298 290 296 291 289 291 294 296 294 293 295 298 304 302
311 312 311 315 317 319 322 322 322 323 323 322 322 320 320 319 319 318 311 304 301 302 296 303 303 302 305 308 300 303 307 298 297 291 293 291 287 294 296 295 294 294 291 291 296 302 301
310 311 312 313 315 317 318 322 321 322 322 322 321 320 319 318 318 313 306 305 309 308 294 298 302 300 302 305 299 300 303 299 294 290 291 287 290 296 295 292 291 292 291 291 292 299 302
309 309 311 312 313 314 316 318 320 320 320 320 320 319 318 317 308 307 303 310 311 308 288 291 293 300 303 304 296 305 305 299 295 290 291 290 294 292 292 291 292 287 294 295 295 294 291
308 308 309 310 311 312 314 315 317 320 319 319 319 319 317 313 304 302 307 310 310 305 275 292 294 305 303 297 298 298 306 301 292 291 292 288 290 290 289 291 294 289 295 294 296 294 293
306 307 308 309 311 311 313 312 315 317 318 318 318 317 316 311 306 309 310 309 304 286 274 289 295 293 294 297 297 299 298 303 300 294 293 290 295 294 292 294 295 297 295 295 295 292 285
304 306 307 308 309 310 311 311 314 314 318 318 317 316 313 311 302 310 309 300 286 279 290 288 289 293 291 291 293 294 292 292 289 284 284 289 290 293 296 290 294 293 290 283 279 282 282
304 305 306 308 308 310 310 310 311 312 318 317 316 315 312 310 311 309 303 293 281 287 286 293 291 292 288 291 291 292 289 288 292 289 283 280 277 289 294 291 288 289 289 283 275 279 284
303 304 306 307 307 308 310 310 309 310 317 317 315 310 307 310 311 308 295 283 283 288 294 291 291 288 288 290 290 290 288 287 290 290 281 283 282 292 294 296 294 288 287 293 286 290 287
303 303 304 306 307 308 307 308 309 310 316 316 309 306 304 311 311 303 292 286 289 296 296 294 288 289 285 287 287 287 287 291 290 292 293 288 281 291 293 295 296 293 296 287 287 282 281
302 303 304 305 306 307 308 307 309 313 317 316 307 299 307 311 309 297 287 288 292 298 298 293 290 288 287 286 287 286 285 290 293 292 293 291 286 285 292 290 290 290 290 292 292 288 284
302 303 303 305 305 307 308 308 310 310 312 312 304 295 308 310 295 294 290 292 297 296 299 296 295 293 290 288 286 284 285 289 296 294 289 292 289 283 285 296 296 296 293 293 286 286 288
302 303 303 304 304 306 306 308 309 313 315 307 300 300 309 306 289 290 294 294 296 295 297 296 294 296 295 290 286 288 289 296 296 294 291 293 287 282 285 292 295 293 295 297 296 293 287
302 302 302 304 305 306 306 307 308 311 315 309 301 294 300 301 299 294 291 292 293 298 296 297 297 297 295 290 291 289 288 295 297 296 299 296 290 286 283 289 294 292 293 297 293 288 287
302 301 301 302 304 305 306 307 308 308 315 308 301 297 299 291 293 295 296 295 293 292 296 298 294 294 293 288 288 288 292 293 296 301 296 293 285 285 288 290 293 294 294 293 288 294 288
301 301 301 302 304 305 306 306 307 307 311 306 297 297 300 296 296 294 294 294 293 295 295 294 293 296 296 292 290 288 292 292 290 296 292 292 285 287 291 295 296 293 295 296 295 295 294
301 300 301 301 303 304 305 305 305 306 308 305 304 304 301 298 296 293 293 293 294 297 297 298 297 296 295 297 300 299 299 296 296 291 290 290 289 290 286 295 295 290 295 294 294 294 294
301 300 301 301 303 304 305 305 306 306 307 304 305 304 297 293 295 295 296 296 295 297 295 298 299 295 300 304 305 303 301 296 297 294 293 288 290 292 287 287 279 289 294 298 296 296 296
301 300 300 300 302 303 304 305 306 307 307 307 305 304 299 294 296 296 295 292 295 298 297 298 300 300 306 302 295 293 292 293 292 292 292 295 291 288 284 282 288 289 291 292 293 292 296
301 300 300 300 302 303 304 305 306 307 308 308 305 307 302 295 294 298 293 293 291 293 294 297 299 300 303 299 295 287 286 289 287 291 295 295 295 292 284 280 280 288 293 295 294 287 293
301 300 300 300 301 303 303 305 306 307 308 308 305 308 303 295 299 300 294 294 298 297 293 294 295 296 300 295 291 287 286 290 286 287 289 291 291 286 286 283 287 293 294 295 286 287 293
300 300 299 300 300 302 303 304 306 307 308 309 305 307 304 298 299 301 299 295 297 297 293 295 295 296 295 292 292 291 290 290 289 289 291 290 289 288 289 286 282 295 293 288 292 294 294
300 300 299 300 300 301 303 304 305 307 308 309 302 306 307 301 300 304 302 302 302 303 298 297 296 297 298 295 294 293 287 291 289 286 292 290 292 291 293 291 295 294 293 296 296 295 294

GFSGBSN_sfc_thetae_006.txt.gz
Theta_e
322 323 325 325 323 324 325 326 326 326 325 325 323 321 319 318 318 317 317 316 316 318 318 319 320 322 316 306 305 316 321 323 319 319 316 313 306 304 299 301 303 301 303 309 311 311 310
318 319 322 323 325 325 324 324 325 325 325 325 324 321 320 318 318 318 317 317 317 317 318 318 319 320 308 295 311 312 316 312 315 315 312 313 309 308 302 301 300 303 305 306 308 308 309
314 315 316 319 323 325 324 324 324 325 325 325 324 323 321 319 318 318 317 318 319 318 318 318 318 315 306 300 310 311 311 310 311 311 311 313 313 307 307 301 305 304 299 302 304 307 306
314 314 314 315 319 321 323 324 324 324 325 324 324 324 321 320 319 319 318 319 317 319 318 318 318 311 298 312 311 310 310 308 308 309 309 309 312 310 306 307 302 298 298 293 301 305 307
312 313 313 313 314 317 320 323 323 323 324 324 324 323 322 320 319 319 319 318 318 318 317 317 310 305 296 314 307 309 309 305 305 305 306 309 308 303 300 298 294 294 288 291 296 305 304
311 310 311 313 313 314 317 320 323 323 323 323 323 322 322 320 319 319 319 317 316 316 314 314 311 301 303 300 306 308 308 308 302 302 301 302 300 293 293 294 286 290 289 291 291 299 303
310 310 310 311 313 313 314 317 318 322 322 321 321 321 321 320 319 318 313 306 299 297 305 297 298 298 299 306 308 306 307 304 302 298 290 294 291 288 289 292 293 292 291 289 293 299 298
308 308 310 309 310 312 313 314 315 318 321 320 320 320 320 320 319 318 308 299 299 301 293 302 302 301 304 307 299 303 306 298 297 291 292 290 287 292 294 293 293 291 289 288 293 298 297
306 306 308 309 309 310 311 313 315 316 321 320 319 319 319 319 318 313 306 304 307 304 293 297 301 299 301 303 298 299 302 298 295 291 291 287 289 294 293 291 290 290 288 288 289 294 297
306 306 305 308 308 309 310 311 313 315 318 318 319 319 319 317 309 306 304 308 307 308 287 289 293 299 303 303 297 305 304 299 295 290 291 290 293 291 290 289 290 285 293 293 292 290 284
306 306 305 306 307 308 309 310 312 314 314 317 317 319 318 314 303 302 304 308 307 304 268 290 293 304 303 297 299 298 306 300 292 290 290 286 289 289 287 289 292 288 293 291 292 289 288
305 305 304 306 306 308 308 308 310 312 314 314 316 318 316 309 306 306 309 309 304 281 270 288 295 293 294 297 297 299 299 303 300 293 293 289 294 293 290 292 292 294 291 290 291 288 282
304 304 304 305 306 307 308 308 310 311 311 314 313 317 313 309 302 309 309 301 283 274 289 287 289 292 291 291 293 295 292 292 288 284 283 289 289 292 295 290 292 291 287 281 279 277 279
304 304 303 304 304 306 307 307 309 310 310 311 311 316 312 308 311 310 304 289 275 284 285 292 291 291 287 291 292 292 291 287 292 289 286 282 279 289 293 290 288 289 287 280 272 274 278
304 304 303 303 304 305 307 306 310 308 309 310 311 311 307 308 311 307 296 283 279 285 291 289 290 287 287 290 290 290 289 287 289 290 283 282 281 291 292 293 292 287 283 290 284 285 281
304 303 303 304 304 305 306 306 308 308 309 310 305 305 303 310 310 303 291 285 286 293 295 293 287 289 284 287 286 287 287 290 289 293 292 285 277 288 291 294 293 290 292 283 284 275 276
304 303 303 303 303 305 305 306 308 308 309 309 305 297 305 310 308 296 285 284 290 296 297 293 291 289 288 284 286 286 285 289 291 291 292 288 285 284 289 287 286 287 286 287 286 285 280
303 303 303 302 303 304 304 306 307 308 308 307 303 291 307 309 293 293 289 292 296 295 298 296 295 292 289 287 286 284 284 287 294 292 287 291 288 281 284 291 294 291 288 288 283 281 287
304 303 303 301 304 305 304 306 306 308 311 306 299 299 307 305 288 288 293 293 295 295 296 295 294 294 294 290 285 287 288 293 295 293 289 292 287 280 282 287 290 289 290 291 291 291 285
303 302 302 301 303 304 305 305 306 307 308 308 299 292 298 300 299 293 290 291 291 298 296 297 296 296 294 292 290 288 288 294 296 294 299 296 289 284 280 286 289 287 290 291 289 286 286
303 302 302 301 302 303 305 306 307 306 306 307 301 295 298 289 292 294 294 294 291 291 297 298 293 294 293 288 287 287 291 291 296 299 296 293 285 285 287 288 289 288 292 291 290 291 286
302 302 302 301 301 302 304 305 306 306 307 305 298 297 298 294 296 294 293 293 292 294 296 294 292 296 294 291 289 286 290 291 291 295 293 293 285 286 285 292 291 289 293 293 293 291 290
302 302 302 301 301 302 304 305 306 305 306 297 304 302 300 295 294 292 293 293 293 295 297 298 297 295 294 295 298 298 298 296 295 294 290 288 287 286 285 293 293 289 292 293 289 291 290
301 301 301 301 300 302 303 304 306 305 306 302 304 301 297 293 294 294 296 295 294 295 294 297 298 295 299 305 305 303 299 297 294 293 294 288 288 288 286 290 281 289 298 296 294 295 296
301 301 301 301 300 302 303 304 306 306 306 303 305 299 295 293 296 295 295 294 293 295 295 297 299 302 303 301 296 292 291 291 289 292 290 291 290 285 283 282 286 289 291 294 294 293 295
301 301 301 301 300 301 302 304 305 306 307 306 305 304 300 296 294 298 295 295 291 289 292 296 300 301 303 298 294 287 284 285 285 287 292 294 292 290 284 279 281 287 291 293 293 287 293
301 301 300 300 300 301 302 303 305 306 307 306 305 308 303 297 298 298 294 293 295 292 292 294 296 297 301 295 290 288 286 288 283 283 285 288 289 283 283 283 285 292 292 293 286 287 292
301 300 300 299 300 300 301 303 304 305 306 305 305 307 304 299 299 300 299 295 295 295 292 296 295 296 296 292 291 291 289 287 286 286 287 287 287 286 287 282 279 294 292 287 291 292 292
300 300 300 299 300 300 301 302 304 304 306 307 303 307 308 301 300 304 303 302 300 301 298 297 296 297 298 294 294 294 288 287 291 283 289 287 291 291 288 287 293 293 293 295 294 293 292

GFSGBSN_sfc_thetae_009.txt.gz
Theta_e
315 315 316 317 318 320 323 324 324 325 324 325 325 323 322 320 319 319 318 318 317 318 318 319 320 321 315 306 305 315 323 323 322 322 316 313 306 302 297 299 301 299 301 305 308 309 309
314 314 315 315 315 317 318 321 324 324 324 324 326 324 322 320 319 319 318 318 317 317 318 318 319 319 307 294 309 310 310 312 315 315 313 313 308 307 302 299 298 301 302 303 306 306 307
312 312 312 313 314 315 316 318 320 323 324 323 324 325 323 322 319 319 318 318 319 318 317 317 318 314 305 300 309 309 310 308 309 314 310 312 312 306 306 300 304 302 297 300 301 303 304
311 312 312 312 313 314 315 317 319 321 322 322 323 324 323 322 320 319 318 318 318 318 318 318 318 310 297 311 310 309 309 307 308 310 308 310 314 309 306 306 302 298 295 290 298 302 304
309 310 310 311 311 313 314 314 317 318 319 322 322 323 323 322 320 319 319 318 317 317 318 318 308 303 295 312 307 309 308 305 304 305 306 309 308 302 301 298 294 293 287 289 294 301 302
308 308 308 308 310 310 311 312 313 315 316 319 321 321 321 321 320 319 319 318 316 315 315 313 310 300 302 300 305 307 307 307 302 301 300 301 301 296 296 294 284 288 287 287 289 296 299
308 308 307 307 307 308 310 310 312 314 314 317 319 320 320 320 319 319 314 306 298 296 305 297 298 298 300 305 308 305 306 304 302 297 290 293 291 289 291 292 294 290 289 289 293 297 294
307 307 307 307 307 306 309 309 310 311 313 315 317 319 320 320 320 318 307 299 297 300 292 301 301 301 304 305 299 302 306 298 296 291 292 289 285 291 293 291 290 289 288 288 293 296 295
306 307 306 307 306 307 308 308 310 310 312 314 315 319 319 319 319 313 306 304 306 303 291 295 299 298 300 302 298 299 302 298 293 290 290 287 288 294 291 289 289 288 286 287 287 292 293
306 306 306 305 305 306 307 308 308 309 310 312 314 317 318 318 310 309 304 307 306 305 282 287 293 298 300 302 295 304 303 298 294 289 292 291 294 291 289 287 289 284 291 291 289 286 281
306 306 306 305 304 305 306 307 309 308 309 311 313 316 318 316 306 303 304 307 307 297 268 289 292 304 303 296 298 297 304 300 292 290 289 287 288 288 286 288 290 287 292 290 290 287 284
306 306 305 305 304 304 305 307 308 308 308 311 311 313 315 309 307 306 308 308 302 279 269 287 293 293 295 296 297 299 299 302 299 293 292 288 293 291 289 291 291 293 289 289 288 286 279
306 305 305 304 304 304 306 306 308 307 309 309 310 311 312 310 302 308 309 301 282 273 288 286 288 291 291 291 293 294 293 292 289 284 284 290 288 292 294 288 291 289 285 279 278 278 277
305 305 304 304 304 304 305 305 307 307 309 309 309 309 309 310 310 309 304 291 274 282 284 291 290 290 286 290 290 291 291 288 293 288 285 282 280 288 291 289 286 287 285 278 273 274 276
305 305 304 304 304 304 304 305 306 307 308 308 309 306 304 308 310 308 296 282 279 283 289 288 290 286 286 290 290 290 289 288 290 290 283 280 279 290 291 292 292 287 284 288 282 284 281
305 305 304 303 304 303 303 305 306 308 308 308 304 300 302 310 310 304 291 282 284 291 293 291 284 289 284 287 287 287 286 289 289 291 293 286 280 287 290 292 291 288 290 282 282 275 275
305 304 304 303 303 302 303 304 306 307 307 307 301 295 305 310 308 297 286 283 288 294 296 291 289 288 287 286 287 285 286 288 291 290 293 289 282 281 287 286 284 286 285 286 285 281 274
304 304 304 303 303 302 303 304 306 307 307 305 299 287 307 308 293 293 288 290 295 293 296 295 294 293 290 287 285 284 283 287 292 292 288 290 286 279 282 289 293 290 286 286 281 274 280
304 303 303 303 302 302 302 304 306 307 307 300 296 297 306 304 286 287 292 292 294 294 295 294 293 295 295 289 284 286 287 293 294 292 289 290 286 279 282 287 289 286 287 288 287 286 280
303 303 303 302 302 302 303 304 305 307 307 303 297 288 296 298 298 290 288 290 290 296 294 297 296 296 293 290 290 286 287 293 294 294 298 295 288 283 279 284 287 284 288 288 286 281 281
303 303 303 302 302 301 303 304 305 306 306 303 298 292 294 288 291 291 292 292 289 290 296 297 294 294 292 288 289 287 290 291 295 297 295 292 284 286 287 288 288 288 288 288 285 286 283
302 302 303 302 302 301 302 303 305 306 306 302 297 295 296 292 295 292 292 290 292 292 294 293 292 294 294 291 290 285 290 290 290 294 292 293 285 286 284 287 287 285 287 290 289 289 289
302 302 302 302 302 301 302 304 305 306 305 297 299 303 298 293 293 291 291 291 293 296 297 297 296 295 294 295 297 296 296 296 295 293 291 289 286 285 282 290 288 283 286 288 291 293 292
302 302 302 301 301 300 301 303 305 306 306 301 300 298 296 290 292 292 295 295 293 295 293 297 298 296 299 304 302 299 298 298 297 295 294 288 287 287 283 286 281 290 297 296 293 293 294
302 302 302 301 300 300 301 302 304 305 306 302 303 301 299 292 294 294 295 295 296 296 295 295 297 300 303 300 295 291 291 292 291 291 292 292 289 286 285 282 287 290 295 293 291 290 295
302 301 301 301 300 300 300 302 304 305 306 303 302 306 300 295 293 298 295 295 293 292 293 295 299 301 302 297 293 287 283 283 283 285 289 290 290 288 286 281 280 286 294 296 298 288 299
302 301 301 301 300 300 301 301 303 304 305 303 302 306 301 293 298 297 294 293 296 292 289 293 296 297 300 293 290 287 285 286 282 283 286 287 288 285 285 284 284 291 291 294 287 287 292
301 301 301 301 301 300 301 301 303 304 304 303 301 305 303 297 298 299 299 295 294 294 291 296 295 296 295 291 290 290 285 287 284 284 285 285 285 283 283 282 278 292 291 287 290 290 292
301 301 300 300 301 300 301 300 302 303 303 304 300 307 306 300 299 303 302 302 302 302 298 297 296 296 298 294 292 293 289 286 286 282 287 285 289 286 287 286 292 292 292 293 293 292 290

GFSGBSN_sfc_thetae_012.txt.gz
Theta_e
313 313 313 313 313 315 316 317 319 319 323 323 324 324 324 322 321 319 318 318 317 318 318 319 320 321 315 307 307 314 322 319 322 321 316 313 306 300 295 297 298 297 300 304 305 305 306
312 312 312 312 313 313 314 316 316 317 319 323 323 324 324 323 321 319 319 318 318 317 318 318 319 318 306 294 307 309 310 311 317 319 314 313 307 306 299 299 296 299 300 301 303 304 305
311 310 311 311 311 311 312 313 314 315 317 320 322 323 323 323 321 319 319 318 318 318 318 317 318 313 303 300 308 308 309 307 309 313 311 313 311 305 304 298 303 301 296 298 300 301 301
310 310 310 309 309 309 310 311 311 313 315 317 319 321 322 322 321 320 319 318 318 318 319 318 318 308 296 309 309 308 307 305 307 311 309 313 314 308 303 304 300 298 298 288 296 299 301
309 309 309 308 309 309 308 308 310 311 313 315 316 318 321 321 321 320 319 318 318 317 318 318 307 302 295 311 306 307 307 303 304 305 306 309 309 301 299 294 290 293 284 288 292 298 299
309 308 308 307 307 308 308 308 309 310 311 313 314 314 318 320 320 319 319 318 316 315 314 313 309 298 301 299 305 306 307 306 301 301 300 300 300 295 294 290 280 284 286 291 290 295 295
308 307 307 307 307 307 307 307 309 309 309 311 312 315 315 318 320 319 315 307 299 299 305 297 298 297 300 305 307 304 306 303 300 297 291 294 290 289 292 291 291 289 287 288 293 296 293
307 307 308 307 307 306 306 307 307 308 309 310 310 312 315 316 320 319 310 300 298 298 291 301 301 301 304 305 298 302 305 297 295 289 290 290 285 291 294 294 292 290 288 287 290 293 292
308 308 307 307 307 306 306 305 306 308 309 309 310 310 314 313 319 313 306 301 305 303 290 294 299 298 299 302 297 298 301 297 292 289 291 286 288 293 291 289 288 287 285 284 285 289 291
308 307 307 307 306 306 306 305 307 307 308 308 308 310 312 314 312 309 304 306 305 302 278 285 293 297 299 301 294 303 303 297 293 289 289 289 293 290 288 287 287 283 289 289 288 285 279
308 307 307 307 306 305 305 305 306 307 307 307 308 310 312 314 308 304 306 307 306 296 268 288 293 305 301 295 296 296 303 299 290 289 290 286 287 287 287 288 289 286 291 289 288 286 282
308 307 307 306 305 305 305 305 306 306 306 307 308 310 310 306 309 308 308 308 300 277 268 286 293 294 294 295 297 298 298 301 299 293 292 288 292 291 288 290 291 292 288 288 287 286 278
307 307 306 306 305 305 305 305 305 305 306 308 308 309 307 308 303 309 309 301 282 274 287 286 288 292 292 291 293 294 292 291 288 284 284 289 289 293 293 287 290 289 285 277 277 277 275
307 306 306 305 305 304 304 304 304 305 306 307 309 308 307 307 308 310 304 289 277 282 283 290 289 290 287 291 291 292 291 288 292 290 285 282 277 288 291 289 285 285 285 278 272 273 274
306 306 305 305 305 304 304 304 304 306 306 308 308 305 303 305 309 308 295 282 280 283 289 288 289 285 285 289 289 289 289 289 290 292 283 282 278 288 290 291 292 287 282 287 281 282 278
305 305 305 305 304 304 303 304 305 306 307 307 301 300 299 306 310 303 290 283 284 290 292 290 283 287 283 286 286 288 286 288 290 293 292 286 280 286 289 291 291 288 291 282 281 273 271
304 305 304 304 304 303 303 303 305 306 307 307 300 292 302 308 308 295 285 284 287 294 295 290 287 286 288 287 288 286 284 287 290 289 292 289 285 281 288 285 284 286 284 286 285 283 274
304 304 304 304 303 303 302 303 305 306 307 303 298 287 305 307 291 291 288 288 294 292 296 295 293 292 289 288 286 284 283 286 291 291 287 291 287 279 281 288 291 289 285 285 279 275 278
304 304 303 303 303 302 302 303 305 306 306 299 293 295 306 303 286 288 291 290 292 292 293 293 292 294 294 289 284 286 286 292 292 291 288 290 286 279 280 285 289 286 287 287 286 284 277
303 303 303 303 303 302 301 303 304 306 307 301 295 288 296 296 297 291 288 288 289 294 294 296 295 295 293 290 290 285 286 291 293 292 296 294 288 283 278 283 286 284 286 287 285 280 280
303 303 303 302 303 302 301 303 304 306 306 301 297 290 292 285 290 291 292 290 289 289 295 296 294 293 292 289 289 287 288 289 292 295 295 292 284 286 287 287 287 287 286 287 283 284 280
303 303 303 303 302 302 301 302 304 306 307 299 294 294 294 290 294 290 290 290 290 291 294 292 291 293 294 291 291 287 289 289 290 292 291 293 284 286 284 287 287 286 287 287 288 286 286
303 303 303 302 302 301 301 303 303 305 305 295 296 299 294 293 293 289 289 290 290 295 295 296 295 294 293 295 298 298 297 296 296 292 290 289 286 285 281 286 287 282 286 287 288 290 288
303 302 302 302 302 301 301 302 304 305 305 301 299 298 294 289 292 291 293 292 292 294 292 295 297 295 299 303 302 299 297 295 296 295 296 288 286 286 282 285 280 290 295 292 289 290 292
303 302 302 302 302 301 301 302 302 304 305 300 302 299 298 290 294 292 295 292 294 296 295 295 297 300 303 300 294 291 291 291 291 294 292 294 287 284 283 283 287 290 293 290 287 288 293
302 302 302 301 301 301 301 301 302 304 304 301 301 304 301 293 291 296 294 294 292 293 293 296 298 299 299 297 292 287 282 286 283 286 288 292 291 287 284 282 279 286 296 299 297 288 296
302 302 301 301 301 301 301 301 301 303 304 301 300 305 302 295 295 298 294 294 297 294 292 291 293 294 300 293 288 287 285 288 281 283 286 286 287 283 284 283 284 290 291 297 287 288 292
302 302 301 301 301 301 301 301 301 303 304 301 299 304 303 297 297 298 299 295 294 293 290 293 295 295 294 290 289 289 287 285 282 283 285 284 283 284 286 282 278 292 291 286 290 291 291
302 301 301 301 301 301 301 301 301 302 303 303 296 302 306 297 297 301 301 300 301 300 298 297 295 296 297 294 292 293 289 285 284 281 285 283 287 285 286 285 291 291 292 293 292 291 289

GFSGBSN_sfc_thetae_015.txt.gz
Theta_e
312 312 311 311 311 311 311 312 313 313 315 318 321 323 323 324 324 322 319 318 318 317 319 318 319 320 315 308 308 315 319 318 323 322 317 313 306 302 298 300 302 300 302 305 306 306 306
311 311 311 311 310 310 311 310 310 311 312 315 318 320 321 323 323 322 320 319 318 318 318 318 318 317 307 297 309 309 310 312 321 320 316 313 309 307 302 301 299 301 302 302 304 304 305
311 311 310 310 309 309 310 310 309 309 311 313 315 318 318 321 322 322 320 319 318 318 318 317 318 312 303 299 309 309 309 308 312 318 314 315 313 307 305 300 304 303 298 300 301 302 302
310 310 309 309 309 308 307 307 307 308 310 311 312 315 316 318 320 321 320 319 318 318 319 318 318 308 296 309 310 308 308 306 309 314 312 315 314 309 305 305 300 298 298 292 297 301 302
308 309 308 309 309 309 308 308 307 307 310 310 311 312 314 316 319 320 320 319 318 318 317 318 308 302 295 310 306 308 307 304 305 307 308 315 310 303 303 296 291 294 287 290 293 300 300
308 308 309 309 309 309 308 308 307 306 308 309 310 311 312 314 315 319 319 318 317 315 314 313 309 298 301 299 305 306 308 306 302 302 301 301 300 295 296 293 282 285 288 290 290 296 296
310 310 309 308 308 308 308 307 307 307 307 308 309 310 311 311 315 318 316 309 302 300 304 297 297 297 300 305 307 304 306 303 301 298 292 296 293 289 291 292 292 291 289 288 291 296 293
310 309 309 309 308 308 307 307 306 307 307 308 309 309 310 310 314 315 312 301 299 299 293 301 301 301 304 304 298 302 306 297 295 290 292 291 287 293 294 294 293 292 289 289 292 293 292
309 309 309 309 308 308 307 307 306 306 307 307 308 308 308 310 312 311 306 302 304 302 290 293 299 298 300 302 297 298 301 297 293 289 290 287 289 293 292 290 289 289 288 287 287 290 291
309 309 309 308 308 307 307 306 306 306 306 307 307 307 308 309 306 310 303 306 305 301 279 286 292 297 299 301 295 303 303 298 293 290 291 290 293 291 289 288 289 285 290 289 288 286 280
309 308 308 307 307 307 306 306 305 306 305 305 306 306 308 309 304 304 306 307 303 296 268 288 292 304 301 295 295 296 303 299 290 290 290 287 288 288 288 288 289 286 291 289 288 286 285
308 308 307 307 306 306 306 306 305 305 305 305 305 308 308 306 305 307 309 307 298 279 270 286 293 294 293 294 296 298 298 302 299 292 292 288 293 291 289 291 291 293 289 288 288 286 279
307 307 306 306 306 305 305 305 305 305 305 305 307 308 307 306 300 307 309 301 283 273 287 285 288 293 292 290 293 294 292 291 289 284 284 289 290 292 293 287 290 290 285 279 277 277 276
306 305 306 306 305 305 305 304 304 305 306 306 306 308 306 306 307 305 304 290 277 282 283 291 290 291 288 290 291 292 290 288 292 290 285 280 277 289 293 289 286 286 286 279 273 274 277
305 305 305 305 305 305 304 304 304 305 306 307 307 302 303 305 306 304 294 283 280 283 289 288 289 286 285 289 290 290 290 289 291 292 284 281 281 289 290 291 291 286 282 288 281 282 278
304 305 305 305 304 304 304 304 303 305 307 307 300 300 299 306 305 299 288 285 283 290 291 290 284 286 283 286 286 287 287 289 290 293 294 287 280 285 289 291 291 289 291 281 282 274 273
305 305 305 304 304 304 303 303 304 305 306 306 298 293 301 306 303 293 284 284 287 293 293 289 287 285 286 286 286 286 285 288 291 290 293 289 285 282 288 286 285 286 284 286 285 283 276
305 304 304 304 303 303 303 303 304 305 307 302 294 288 303 306 287 287 287 288 294 293 296 294 292 290 287 287 287 286 285 286 291 290 288 290 287 280 281 289 291 289 286 286 280 278 280
304 304 304 303 303 303 303 302 303 305 306 300 290 293 303 300 285 287 290 291 292 292 293 293 291 293 292 288 285 286 286 291 292 290 288 290 285 277 279 285 289 286 287 287 286 285 279
304 304 304 304 303 303 302 302 303 305 306 301 292 286 294 297 295 290 288 288 288 294 294 295 294 294 292 290 290 286 286 291 292 292 296 294 286 282 279 283 287 284 285 287 285 281 280
304 304 304 303 303 303 301 302 303 304 307 302 294 288 292 286 289 291 290 288 288 288 293 294 293 294 291 288 289 287 288 289 291 294 294 291 284 285 286 287 287 285 286 286 284 285 280
304 304 304 303 303 303 301 302 304 305 307 298 291 292 294 291 293 291 291 286 287 290 293 290 290 293 294 290 291 287 289 288 288 290 291 293 285 286 284 287 287 284 286 287 286 286 286
303 303 303 303 302 302 301 303 304 305 305 296 297 298 295 292 291 289 287 289 289 292 294 296 294 293 292 294 298 298 298 296 293 291 289 289 287 285 281 287 286 283 287 287 287 289 288
303 303 303 303 302 302 302 301 303 304 305 300 299 297 293 288 291 290 290 290 291 293 291 296 296 294 299 303 300 299 298 296 295 294 295 289 286 286 282 285 279 290 295 292 289 290 291
303 303 303 302 302 302 302 301 302 303 305 299 300 297 296 289 291 291 290 290 290 292 294 295 296 299 302 300 292 291 291 291 291 292 293 295 289 285 282 282 287 290 292 291 288 288 292
303 303 302 302 302 302 302 301 302 302 304 301 299 303 299 291 289 294 292 292 291 290 293 295 298 299 298 293 290 286 283 284 282 284 289 293 292 287 284 280 281 287 295 295 296 287 294
303 303 302 302 302 302 302 301 302 301 303 301 299 303 299 295 296 295 292 292 297 295 292 293 295 294 297 290 287 286 285 286 281 283 284 286 286 284 284 283 285 291 292 297 286 287 292
302 301 301 301 301 301 301 301 302 301 303 301 297 303 297 296 296 297 298 295 293 292 291 293 293 294 294 289 289 288 287 285 282 283 284 284 282 283 285 283 277 291 292 288 291 291 292
301 300 301 301 301 301 301 301 300 301 302 303 295 300 300 298 298 301 301 299 301 299 297 296 295 296 296 292 292 293 289 284 283 281 285 283 287 285 285 285 291 292 292 294 293 291 291

GFSGBSN_sfc_thetae_018.txt.gz
Theta_e
312 312 311 311 311 310 310 310 310 310 310 311 313 314 318 321 322 323 323 320 319 319 318 318 319 320 318 311 311 318 319 320 326 325 318 315 310 307 303 304 305 304 305 306 308 309 308
311 311 310 310 310 310 310 309 309 309 309 310 311 313 315 318 320 322 322 321 320 319 318 319 318 317 310 302 314 314 314 319 323 322 317 315 311 310 305 304 303 304 305 305 307 307 307
310 309 311 310 310 310 310 310 309 309 308 309 311 311 312 315 317 320 322 321 320 319 318 319 318 314 306 301 312 314 313 313 322 322 316 316 314 310 309 303 307 305 300 302 303 304 303
309 310 309 310 310 310 310 310 309 308 308 308 310 311 311 312 315 317 320 321 320 320 319 318 318 310 300 310 314 311 312 311 317 317 319 319 318 310 305 307 303 299 300 295 301 303 305
310 312 311 310 310 310 310 309 309 308 307 308 308 309 311 311 312 315 318 320 320 319 318 319 311 306 300 312 307 310 311 309 312 312 315 318 313 305 305 298 296 297 292 294 297 303 302
312 310 311 310 310 310 310 309 308 307 308 308 308 308 310 311 311 312 316 320 318 317 316 314 309 301 304 301 307 308 311 310 307 308 306 306 304 298 299 296 289 291 291 294 293 298 300
311 310 311 310 310 309 309 309 308 307 307 307 307 308 309 310 310 311 312 312 302 302 307 300 300 300 302 307 309 306 309 306 306 304 297 301 294 291 295 297 297 294 293 292 296 299 296
310 311 310 310 310 309 308 308 308 307 307 307 307 307 308 308 310 310 309 302 303 306 296 304 303 303 305 306 299 303 309 300 299 295 298 295 290 296 297 297 295 294 292 292 295 297 295
310 310 310 309 309 309 308 307 307 307 306 306 307 306 307 308 308 308 305 305 309 309 296 297 302 301 302 304 299 300 304 301 297 294 295 292 293 296 295 294 292 293 291 291 290 293 295
308 308 309 308 308 307 307 307 306 306 306 306 306 306 307 307 303 305 302 310 308 307 291 290 295 300 302 303 297 305 306 301 297 293 294 294 297 293 292 291 293 289 294 293 291 288 284
308 308 308 307 307 307 306 306 306 306 306 305 305 305 305 307 302 300 306 309 307 302 279 292 293 305 303 297 298 299 306 301 294 294 294 291 291 292 289 290 293 290 293 291 291 289 287
308 307 307 307 306 306 306 306 306 305 306 307 306 306 307 305 305 305 310 307 302 285 279 287 294 294 294 295 296 299 299 302 300 294 295 293 296 294 293 295 295 294 291 290 290 287 281
306 306 306 306 306 305 305 305 305 305 305 306 306 307 306 306 298 308 309 299 283 282 289 285 288 292 291 291 293 295 293 292 290 285 285 291 291 295 295 290 293 292 287 281 279 279 280
306 307 306 306 305 305 305 305 305 305 306 306 307 307 306 307 308 308 304 288 281 286 287 291 292 291 289 291 292 292 291 289 293 291 288 284 284 291 295 291 289 288 288 282 276 279 281
306 306 305 305 305 305 305 304 304 304 306 307 307 303 305 307 307 303 292 284 285 287 290 289 290 287 287 290 291 290 289 289 291 293 286 284 283 292 294 295 293 288 284 291 284 285 281
306 306 305 305 305 305 304 304 304 304 307 307 299 299 300 307 306 300 287 287 287 293 293 292 286 288 284 287 288 288 289 293 292 295 296 290 283 289 292 294 294 291 292 282 284 276 275
305 305 305 305 305 304 304 303 304 305 306 307 298 292 302 307 303 291 286 287 291 295 295 291 289 288 288 287 288 287 289 292 295 294 296 293 288 286 289 287 287 287 285 287 286 284 278
305 305 305 304 304 304 304 302 304 305 306 303 295 286 302 305 289 289 288 290 295 294 298 295 294 292 290 290 288 289 288 290 295 296 290 294 288 282 285 292 294 292 288 287 281 280 283
305 305 305 304 304 303 303 302 303 305 305 299 291 289 303 302 287 288 291 292 295 294 295 295 293 294 294 291 287 290 290 294 295 294 292 293 286 281 284 288 291 288 289 289 288 286 281
305 305 304 304 304 303 303 302 303 305 306 303 292 286 294 296 297 292 290 291 291 297 296 297 295 297 293 291 292 289 290 293 295 295 296 296 289 285 282 287 290 286 288 289 286 282 283
305 304 304 304 303 303 303 302 303 305 307 302 293 288 293 287 291 293 293 292 290 290 296 297 294 294 293 289 290 290 291 292 294 295 295 293 285 287 288 289 289 287 287 287 284 286 282
304 304 304 304 303 303 303 302 304 305 306 297 289 291 295 293 295 293 293 290 290 292 293 292 292 294 295 291 292 289 291 292 292 294 293 294 285 287 285 289 289 286 288 289 288 288 287
303 304 304 303 303 302 303 303 304 305 304 296 298 298 295 293 293 291 291 291 291 295 295 297 295 294 292 294 297 298 297 297 295 293 292 290 288 285 282 289 289 284 288 289 289 290 289
303 304 303 303 303 302 302 302 303 304 304 299 298 297 293 289 292 292 293 293 293 293 294 297 298 295 299 304 303 302 300 299 298 297 295 290 287 286 283 286 281 290 296 295 292 292 293
303 303 303 303 303 302 302 302 302 302 304 299 300 296 295 291 294 293 293 293 296 297 295 296 298 301 304 300 294 291 291 292 294 296 296 295 290 286 283 284 288 291 293 294 291 291 295
303 302 301 301 301 302 302 302 302 302 303 300 300 302 298 295 293 296 294 294 292 293 294 296 301 303 302 297 292 285 285 288 287 289 295 295 294 288 285 282 281 293 295 298 296 290 296
302 301 301 302 302 302 301 302 302 301 303 301 299 301 297 296 300 298 295 295 299 297 294 295 297 297 300 294 288 285 286 291 287 286 286 287 287 285 284 284 288 295 296 299 288 289 296
301 301 301 300 300 300 301 300 300 301 302 301 297 302 295 293 301 301 302 299 298 299 294 297 296 296 295 289 288 289 288 290 290 291 290 289 288 287 287 284 283 297 297 293 296 298 296
301 301 300 300 299 299 299 299 300 301 301 302 295 300 300 294 301 305 304 305 303 302 300 299 298 297 298 292 292 293 290 290 291 288 292 289 293 292 291 291 298 298 299 300 298 297 297

GFSGBSN_sfc_thetae_021.txt.gz
Theta_e
311 311 311 311 311 311 312 311 310 310 310 310 309 311 312 313 315 319 321 323 321 320 319 319 319 320 316 311 311 320 319 322 327 325 318 314 310 308 303 306 306 304 305 306 308 309 309
310 311 311 311 312 311 311 311 311 310 310 310 309 310 311 312 313 316 318 321 322 320 319 320 319 318 312 303 318 320 317 320 321 322 318 316 312 311 308 306 305 307 306 306 308 308 308
311 311 312 312 311 311 311 310 310 310 310 309 309 309 309 311 312 314 315 320 322 320 319 320 319 314 307 306 314 315 316 318 323 322 317 318 316 310 310 305 308 307 302 305 306 307 305
312 313 312 312 312 311 311 311 310 310 310 309 309 309 309 310 311 312 313 315 321 321 320 319 319 312 302 312 316 312 314 317 322 324 321 319 317 310 308 308 304 301 302 297 304 305 305
312 311 311 312 312 311 311 310 309 310 309 309 308 308 308 308 310 311 312 313 317 319 319 319 312 308 301 313 306 311 313 312 317 317 319 320 315 306 305 301 297 299 294 297 299 305 303
311 312 312 312 312 311 311 310 309 309 309 308 308 307 308 308 310 310 311 312 314 318 316 314 311 303 305 303 309 310 312 315 311 311 310 309 306 300 301 298 290 294 294 296 296 301 301
312 312 311 311 311 310 310 310 309 308 308 308 307 307 307 307 309 309 308 305 305 302 308 302 302 302 304 308 311 308 310 311 309 306 298 302 295 293 297 299 299 297 295 294 298 301 298
310 309 309 309 309 309 309 308 308 308 307 307 306 307 307 307 308 309 306 297 300 304 297 305 304 304 307 308 301 305 310 303 301 296 299 295 292 298 300 299 297 296 294 294 297 299 297
309 309 309 308 308 308 308 308 307 307 307 306 306 306 306 306 307 306 303 299 308 307 297 300 303 303 303 306 301 301 306 303 299 296 295 293 295 299 297 295 293 294 292 293 293 296 297
308 309 308 308 307 307 307 307 306 306 306 306 306 306 305 306 303 305 301 306 308 306 289 291 296 300 303 304 298 307 307 303 298 294 295 294 298 295 295 293 294 290 296 295 293 291 287
309 308 308 307 307 307 306 306 306 306 306 305 306 306 306 307 301 297 304 308 307 302 280 293 295 307 304 298 300 300 307 302 295 296 295 293 293 293 291 292 295 291 295 292 292 289 287
308 308 308 307 306 306 306 306 306 306 305 306 306 307 308 305 305 305 308 307 300 285 280 288 294 294 294 297 297 300 300 303 301 295 296 295 298 296 295 296 296 295 292 291 291 288 281
307 308 307 306 306 306 305 305 305 305 305 306 307 308 306 306 299 309 309 300 283 281 291 286 288 293 292 290 293 295 294 293 291 286 286 292 292 295 296 292 295 293 288 283 281 280 280
307 307 307 306 306 305 305 305 305 305 306 306 308 306 306 306 309 309 300 290 280 288 288 292 292 292 288 291 291 292 291 289 293 292 289 284 284 292 295 293 290 289 288 283 277 280 283
307 307 306 306 305 305 305 305 304 305 306 307 307 304 305 307 308 307 293 283 286 290 291 290 290 287 287 290 292 291 290 290 293 293 288 287 286 294 296 296 294 289 284 292 284 286 281
307 306 306 306 305 305 305 304 304 305 307 307 302 298 300 308 308 300 290 286 289 294 294 293 286 289 284 287 289 289 289 293 291 296 297 292 285 292 294 295 295 292 293 283 284 276 277
306 306 306 305 305 304 304 304 304 305 306 306 299 291 301 305 306 295 286 287 292 296 296 293 290 288 288 287 289 287 289 294 296 295 296 293 289 287 290 288 288 288 286 288 288 286 279
305 306 306 305 305 304 304 304 304 305 307 304 295 287 303 306 290 292 288 292 296 294 298 295 295 293 291 291 288 290 290 292 298 297 291 294 289 284 287 293 295 293 289 288 282 281 284
306 305 305 305 304 304 304 304 304 305 306 302 291 289 304 301 287 289 291 293 295 295 296 295 294 295 296 292 289 292 293 296 297 296 293 294 288 282 285 290 293 289 291 290 289 288 283
304 305 305 304 304 304 303 303 304 305 307 304 293 287 293 296 299 292 290 292 292 299 297 298 296 296 294 292 295 291 291 294 297 297 298 298 290 286 283 287 290 286 289 290 288 283 284
304 304 305 304 304 303 304 303 304 305 307 302 294 291 294 288 292 293 294 293 291 291 297 298 295 295 293 290 291 291 293 294 295 297 296 294 286 288 289 290 290 289 289 289 286 287 283
304 304 304 304 304 303 303 303 304 305 306 299 290 290 294 294 296 294 294 292 291 293 294 293 293 295 295 292 293 291 293 293 292 295 293 294 286 288 285 289 290 287 290 290 290 290 288
304 303 303 303 304 303 303 304 304 304 305 296 297 298 294 295 294 293 293 293 293 295 297 298 296 295 293 295 299 299 299 298 296 293 291 291 288 285 283 289 290 287 290 290 291 292 290
303 303 302 302 302 302 303 302 303 303 305 300 299 297 294 290 294 293 294 295 294 295 294 297 298 295 300 305 303 302 301 299 298 296 296 291 288 287 284 287 281 293 297 295 294 295 294
303 302 302 302 303 302 302 303 303 302 304 299 300 297 294 292 295 295 295 295 297 297 296 297 298 302 304 301 295 291 292 292 294 296 296 294 290 286 283 284 289 293 295 294 292 292 296
303 302 301 301 301 301 302 302 301 302 303 301 300 301 296 292 295 297 295 297 295 295 296 297 303 305 303 298 293 285 284 289 288 290 295 295 293 288 286 282 281 293 297 299 298 289 297
302 301 301 301 300 300 300 300 300 301 302 301 299 301 295 293 301 299 296 296 298 297 296 297 298 299 302 295 290 287 286 293 287 288 287 288 288 285 285 283 289 297 298 300 288 290 298
302 301 301 300 300 300 300 300 300 300 300 300 299 302 295 291 296 303 302 300 301 300 295 298 297 297 295 291 289 288 288 292 290 293 291 290 288 286 287 283 283 299 300 294 298 300 299
301 301 301 300 300 300 300 300 300 300 301 300 295 301 300 292 296 307 307 307 306 305 302 301 299 298 299 293 292 293 290 292 291 287 296 290 294 292 293 293 301 302 300 302 302 299 300

GFSGBSN_sfc_thetae_024.txt.gz
Theta_e
313 313 313 314 313 313 312 312 312 312 312 312 311 311 311 310 310 312 315 318 320 323 321 320 319 320 315 308 310 322 326 326 326 324 317 312 307 305 301 302 303 301 303 305 306 306 306
313 313 314 313 313 313 313 313 313 312 312 312 311 311 310 310 310 312 313 315 317 322 321 320 320 320 310 301 319 318 318 319 320 321 318 315 309 309 306 303 302 305 304 304 305 305 306
314 314 313 313 313 313 313 313 312 311 311 311 311 311 310 309 310 310 312 314 316 318 321 320 320 315 306 305 315 318 317 316 320 321 315 317 316 310 309 303 308 305 300 303 304 304 303
315 313 313 314 313 313 312 312 312 311 310 311 310 310 310 309 308 309 311 313 314 314 321 320 320 311 302 314 315 311 314 316 319 322 320 320 317 310 306 307 304 300 300 293 301 303 304
312 314 312 312 311 311 312 311 310 310 310 309 309 309 309 308 309 309 310 312 313 313 319 320 313 308 299 312 306 311 312 311 316 318 320 319 315 307 305 299 295 296 289 292 296 303 302
314 311 311 311 311 310 311 310 309 309 309 309 308 308 308 308 308 308 309 310 311 312 317 315 311 301 305 303 307 309 311 313 311 312 311 310 306 299 298 296 287 291 291 293 293 298 298
311 311 310 310 310 309 309 309 309 308 308 308 308 307 307 307 308 308 307 305 301 303 307 301 301 301 302 309 311 307 309 310 309 307 298 304 297 292 295 297 298 296 293 291 295 299 295
310 310 310 310 309 309 309 308 308 308 307 307 307 307 307 307 307 307 305 297 298 303 296 305 305 305 307 308 301 304 309 303 301 296 299 296 290 297 299 298 296 294 292 291 295 298 294
309 309 310 310 309 308 308 308 307 307 307 307 307 306 306 306 307 304 301 300 304 302 296 299 303 302 303 306 301 301 305 303 298 295 295 292 295 299 297 295 292 292 290 290 290 294 294
309 309 310 309 308 308 307 307 307 307 306 306 306 307 306 306 300 302 298 306 305 304 287 292 296 301 303 305 298 306 307 303 299 294 296 294 298 295 294 293 293 288 294 293 292 288 282
309 309 309 308 308 307 307 306 306 306 306 306 307 307 308 306 300 297 302 307 305 301 278 293 295 307 304 299 300 300 307 302 295 295 295 292 294 293 291 292 295 290 295 292 291 286 284
308 308 308 308 307 307 306 306 306 306 305 306 307 308 309 305 303 303 307 307 301 284 277 289 294 295 295 298 298 300 300 304 302 296 296 295 297 295 294 296 295 295 291 290 289 286 276
307 308 308 307 307 306 306 306 306 305 306 307 307 309 307 306 298 307 307 300 283 278 290 286 289 293 292 292 294 295 294 292 290 285 286 291 291 295 296 291 294 293 288 277 275 277 274
306 308 308 307 306 306 306 306 305 304 306 307 307 308 307 306 308 307 301 289 278 287 287 292 292 292 288 291 292 292 291 289 294 291 288 283 281 291 294 291 289 289 288 278 273 274 277
306 307 307 307 306 306 305 306 304 304 306 308 307 303 303 306 308 305 295 282 283 288 291 289 291 287 287 290 291 291 290 289 292 293 286 283 285 294 295 295 294 288 284 288 282 282 274
306 307 307 306 306 305 306 306 305 305 307 307 301 299 300 308 308 301 290 285 286 294 294 292 285 289 284 287 288 288 288 292 291 294 295 291 283 291 294 295 294 290 291 281 282 269 272
307 306 306 306 306 305 305 305 305 306 306 308 299 292 301 307 306 295 285 285 291 296 296 292 289 288 288 287 289 287 288 293 294 293 295 292 288 286 289 287 286 287 286 286 286 282 273
306 305 306 305 305 304 304 305 305 306 307 304 295 286 301 306 291 291 288 288 296 296 299 296 295 292 289 289 288 288 288 292 296 296 290 293 289 282 284 291 293 291 287 286 280 276 280
306 305 306 305 305 304 304 305 305 305 308 301 291 291 303 301 286 288 289 293 296 295 296 295 293 295 293 290 286 291 292 296 297 295 292 293 287 278 280 287 290 287 289 289 288 286 280
305 305 305 304 304 305 304 304 305 305 307 304 294 287 294 296 297 290 288 291 292 299 297 297 295 296 293 290 294 290 291 295 296 296 299 296 290 282 277 282 287 283 287 289 287 282 282
305 305 304 304 304 304 304 304 305 306 308 303 294 291 294 290 293 291 294 294 291 291 297 298 295 295 292 289 291 290 293 292 295 297 295 292 285 284 287 288 288 287 287 288 286 287 283
304 304 303 303 303 303 303 304 305 305 307 299 292 291 293 294 296 293 294 292 292 294 295 293 293 295 295 291 292 290 292 292 291 293 291 293 282 287 284 288 288 285 288 288 289 290 289
304 303 303 303 304 303 303 305 304 305 304 296 298 298 294 294 294 292 293 293 293 296 297 298 296 294 293 295 298 298 297 296 295 292 291 291 288 285 281 288 286 284 288 291 292 293 292
303 303 303 302 302 302 303 302 302 303 304 299 299 297 293 291 292 293 295 295 294 295 294 297 298 296 299 303 301 300 297 297 296 293 295 290 288 287 282 284 277 291 296 295 292 295 296
303 303 302 302 301 301 301 301 301 302 303 298 300 296 293 290 294 294 295 295 295 297 296 297 298 301 303 299 294 291 291 292 293 295 294 294 290 286 283 282 286 291 295 293 292 291 296
303 303 302 302 301 301 301 301 301 302 301 298 300 301 295 291 293 298 294 296 293 292 294 297 301 303 301 296 291 283 282 288 287 289 295 294 293 288 285 281 278 291 295 298 296 288 295
304 302 302 302 301 301 300 300 301 301 301 299 299 300 295 292 299 298 294 294 297 295 294 295 298 297 300 293 288 286 284 290 284 287 286 288 288 284 284 283 285 293 295 298 286 287 295
303 302 302 301 301 301 301 300 300 300 300 298 297 300 294 291 294 300 303 297 297 297 293 297 295 296 294 290 289 288 286 290 287 289 289 287 285 284 286 283 278 295 295 290 294 297 296
303 301 301 301 301 301 301 301 300 300 300 300 294 300 299 291 293 300 302 306 304 303 301 298 298 296 297 292 290 291 289 289 289 285 292 286 291 290 288 287 296 297 297 298 297 295 296

GFSGBSN_sfc_thetae_027.txt.gz
Theta_e
315 315 315 314 314 313 314 314 314 314 314 313 313 312 312 311 311 310 311 312 315 318 320 323 321 320 315 306 307 322 328 330 325 323 316 313 306 303 298 299 300 298 301 304 304 304 303
316 316 314 314 314 314 313 314 313 313 313 312 311 311 312 311 310 310 310 310 313 316 319 322 321 321 309 299 316 320 320 323 322 320 317 314 306 306 301 300 298 300 302 302 303 303 303
314 313 314 312 312 312 312 312 312 311 311 311 311 310 311 310 310 309 309 310 311 314 316 319 320 315 305 304 314 316 317 315 319 320 314 316 314 308 305 301 305 303 298 300 301 303 301
314 315 313 312 311 311 311 311 311 310 310 310 310 309 310 309 309 309 309 310 311 313 315 316 320 312 300 313 312 311 312 313 318 321 319 319 315 308 304 304 301 298 297 290 299 302 303
314 311 311 311 312 311 311 310 310 310 309 309 309 308 309 308 308 308 308 309 310 312 313 314 313 307 298 314 307 310 309 310 313 319 319 319 314 307 304 297 293 294 286 290 294 301 300
311 311 311 312 312 311 311 310 309 309 309 308 308 308 308 308 308 308 308 309 309 310 310 315 311 301 303 301 307 309 309 310 311 313 311 310 306 300 299 295 286 288 288 289 290 297 298
311 310 311 311 310 310 309 309 308 308 308 308 307 307 307 307 307 307 305 300 295 298 305 298 300 300 302 308 310 306 308 310 308 306 300 305 296 293 293 295 296 295 292 289 292 297 293
311 311 311 310 310 309 308 308 308 308 307 307 307 307 307 306 307 307 302 294 296 298 291 304 304 303 306 307 300 304 308 303 301 295 299 296 291 297 300 299 296 292 289 288 292 295 293
310 310 310 310 309 309 308 308 307 307 307 307 307 307 307 306 306 302 298 297 302 301 291 298 304 302 303 305 300 300 304 302 298 295 294 290 293 298 296 293 291 289 288 288 287 291 291
310 309 310 309 309 308 308 307 307 307 306 306 307 307 308 308 300 300 295 303 304 302 285 292 297 301 303 305 297 305 307 302 299 294 296 294 297 295 293 292 292 285 292 292 290 285 280
309 308 309 309 308 308 307 307 307 307 305 306 307 308 308 308 300 296 300 304 304 298 276 292 297 307 303 298 299 300 307 303 295 295 295 291 294 293 291 292 294 289 293 290 289 284 281
307 308 309 309 308 307 307 307 307 306 305 308 307 308 308 305 303 302 304 305 299 281 276 288 295 295 295 298 297 300 300 304 302 297 295 293 296 295 294 294 294 294 290 288 286 283 272
307 308 308 308 307 307 306 306 307 305 305 307 307 308 306 306 298 304 304 298 280 276 289 287 290 294 293 292 293 295 294 293 289 285 286 292 292 294 295 290 292 291 283 271 276 276 273
307 307 307 308 307 307 306 306 306 305 306 308 308 308 305 305 304 304 301 287 275 286 286 293 293 292 289 292 291 293 292 289 292 289 285 283 277 289 293 290 287 286 284 274 272 272 275
307 306 307 307 306 306 305 306 306 306 307 308 308 300 300 303 307 302 293 278 282 287 290 290 290 287 287 291 290 291 289 289 290 289 283 280 281 292 293 293 291 286 281 286 279 279 270
307 307 307 307 306 306 306 306 306 307 308 309 301 297 299 306 304 299 288 284 284 292 294 293 285 288 284 287 286 288 288 291 290 292 291 290 282 290 293 293 294 289 289 277 275 266 271
307 306 307 306 306 305 305 306 306 307 309 307 294 293 299 305 304 294 284 284 289 296 296 292 288 287 286 287 287 286 287 291 293 292 293 292 288 286 291 286 285 286 285 284 283 278 270
306 305 306 305 305 305 305 305 306 307 309 302 292 286 301 304 288 290 286 286 292 294 298 295 293 290 287 288 287 286 286 290 294 295 288 292 288 282 282 289 291 289 285 285 277 273 277
306 305 305 304 305 305 304 305 305 307 308 297 290 292 301 299 284 286 289 290 296 296 295 294 292 293 292 288 285 289 290 295 296 294 291 292 286 275 279 284 288 287 287 288 287 284 278
305 305 304 303 303 304 305 305 304 306 308 300 293 285 290 293 294 289 289 291 292 298 296 296 292 293 292 290 291 289 290 293 295 296 300 295 287 278 275 279 285 281 286 287 286 281 280
305 304 304 304 304 304 304 305 305 307 307 299 291 288 290 282 290 291 292 293 291 291 296 296 293 292 291 288 289 289 291 290 293 297 294 290 281 281 285 287 287 284 285 286 284 285 282
305 304 303 303 302 302 303 303 305 306 305 295 291 290 292 290 291 289 291 290 290 292 293 291 292 294 294 290 290 289 291 289 288 290 289 291 280 284 283 286 286 284 287 287 287 288 288
305 304 303 303 302 302 302 302 303 304 303 295 297 298 294 290 289 286 288 290 292 294 295 296 295 294 293 295 297 295 296 296 294 289 288 289 284 284 276 285 284 282 286 288 291 293 292
304 303 303 303 302 301 301 301 302 302 302 298 298 296 292 286 288 290 292 294 293 294 292 296 297 294 298 300 298 297 295 294 294 291 293 289 288 287 281 284 274 289 295 294 292 293 295
303 304 303 303 302 301 301 301 301 302 302 297 299 295 292 287 290 293 292 292 295 295 294 295 297 298 300 296 291 290 291 291 292 292 292 294 290 285 283 282 284 289 294 292 290 291 294
303 305 302 302 302 301 301 301 301 301 301 297 299 297 294 290 288 295 292 293 289 288 291 295 300 301 299 294 289 282 281 286 286 289 294 294 293 288 285 280 278 288 293 296 295 286 295
302 304 302 301 302 301 301 301 301 300 301 295 298 299 294 291 294 295 294 292 297 292 289 292 294 295 297 289 286 283 280 288 282 285 286 288 288 285 284 283 285 291 293 297 284 286 294
302 303 302 301 301 301 301 301 301 300 300 295 292 300 293 289 291 296 299 298 295 293 289 293 293 294 293 287 286 284 283 286 284 287 287 286 285 284 286 282 278 293 293 289 293 294 294
301 303 301 301 301 301 301 300 300 300 300 298 288 295 299 291 289 296 297 300 301 300 298 297 296 295 294 291 287 289 288 287 285 282 291 287 289 288 286 285 292 295 295 296 296 294 293

GFSGBSN_sfc_thetae_030.txt.gz
Theta_e
315 314 314 315 314 313 312 312 312 313 313 313 313 313 312 312 312 311 310 310 310 311 314 317 319 322 315 304 305 318 328 329 324 321 314 311 306 303 298 299 300 295 298 302 304 304 301
314 315 314 313 312 312 313 313 312 311 311 312 312 311 311 311 311 310 310 309 310 310 312 315 319 321 309 297 313 320 321 321 321 318 314 312 308 306 300 299 297 299 300 300 302 302 303
315 314 313 312 312 313 313 312 311 311 311 311 310 310 310 310 310 309 309 309 310 310 312 314 317 316 304 301 313 317 321 319 321 319 313 315 313 305 303 300 304 302 297 299 300 301 300
313 313 312 312 313 312 311 310 310 310 310 309 309 309 309 308 309 308 308 309 309 310 311 313 315 313 299 312 312 311 313 312 319 320 317 318 314 307 304 303 300 297 295 290 297 300 301
312 312 311 312 312 311 310 309 309 309 309 309 308 308 308 308 308 308 308 309 309 310 311 312 307 307 297 316 307 310 310 309 312 317 318 318 313 305 301 295 291 292 286 289 293 300 299
311 312 311 312 311 311 310 309 309 309 308 308 308 308 308 308 308 307 308 309 309 308 307 308 307 300 301 301 307 309 308 310 310 312 311 310 306 300 297 292 284 287 286 288 289 295 296
312 312 311 311 311 310 310 309 308 308 308 308 307 307 307 307 307 307 304 298 292 294 300 299 301 299 300 307 309 307 308 307 309 307 301 305 297 294 297 295 294 294 293 288 291 296 292
311 311 310 311 310 310 309 309 308 308 307 307 307 307 307 308 308 306 301 292 294 297 289 300 304 303 305 306 300 304 309 304 302 296 299 296 293 299 301 300 296 294 290 287 291 294 291
310 309 309 310 310 309 309 308 308 308 308 306 306 307 308 308 308 302 298 297 303 302 289 295 303 301 302 304 299 299 305 303 299 295 295 293 294 300 297 295 291 288 286 286 287 290 289
309 309 309 310 309 309 308 307 307 307 306 305 306 307 308 308 302 300 294 302 304 301 284 291 297 300 304 304 296 304 307 302 298 293 295 292 296 294 293 292 290 285 290 290 288 285 279
309 308 309 309 309 308 307 307 307 307 306 306 307 308 308 308 300 296 300 302 303 297 275 290 295 308 303 298 298 299 307 303 294 295 295 290 292 291 290 291 293 288 292 289 287 283 279
308 308 308 308 308 307 307 306 307 306 306 307 307 308 309 304 300 301 304 304 298 280 275 287 295 295 295 296 296 300 301 303 302 297 295 292 295 295 293 293 293 293 289 287 285 281 271
307 308 307 308 307 307 306 307 306 306 307 307 308 309 306 306 296 303 304 297 279 274 288 285 290 293 292 291 294 296 294 292 289 287 287 292 291 293 295 289 292 289 282 272 271 270 272
307 307 307 308 307 307 306 306 306 308 308 309 309 306 304 305 304 304 298 284 274 285 286 293 293 292 289 292 293 293 292 289 293 289 284 280 281 289 292 289 287 285 283 274 270 271 274
307 307 307 306 306 307 306 306 307 308 310 308 306 300 302 304 306 304 293 279 280 286 291 291 291 286 287 290 292 291 290 290 291 289 282 279 281 291 292 292 291 286 279 285 278 277 270
307 306 305 306 307 306 306 306 306 309 310 307 294 298 297 305 305 299 288 284 284 292 293 292 283 287 284 286 287 288 288 292 290 292 291 287 279 291 292 293 293 287 289 279 277 265 269
306 306 305 304 305 305 305 306 306 308 309 306 293 290 299 305 304 293 283 283 289 296 296 291 286 285 288 286 285 287 286 290 292 290 291 289 284 284 291 286 284 285 284 282 281 276 269
306 305 305 304 305 305 305 305 305 307 308 301 292 281 300 302 288 290 286 287 292 294 296 293 291 288 286 288 285 284 285 288 293 293 288 290 286 275 283 288 290 287 284 283 274 272 275
306 305 304 304 303 304 304 304 305 306 308 294 290 290 298 296 281 287 289 289 292 295 293 293 290 291 290 287 284 286 288 295 294 292 290 290 283 275 278 284 287 285 286 286 285 284 272
306 305 304 304 303 303 303 303 305 306 308 295 288 281 289 294 291 290 288 290 290 296 293 292 290 292 289 288 288 287 289 294 296 295 299 295 285 277 275 278 283 279 284 286 285 277 278
305 305 304 304 303 303 302 303 304 306 306 295 289 288 292 281 288 288 291 291 290 290 294 294 291 291 291 288 289 289 291 290 294 297 295 291 278 279 284 285 285 283 284 285 282 284 279
304 305 304 303 303 302 302 302 304 305 304 295 289 290 292 287 289 287 289 288 289 291 292 291 291 295 294 290 289 288 289 288 287 290 288 290 278 284 282 285 285 282 285 285 286 286 286
303 305 304 303 303 302 302 302 302 303 301 296 296 297 294 288 287 285 286 289 291 293 294 295 294 293 292 295 297 294 294 293 291 288 287 287 283 284 278 283 283 281 285 287 288 288 288
302 305 303 303 302 302 302 301 302 302 302 297 297 296 292 285 287 288 291 292 291 293 291 295 296 293 297 299 298 296 295 294 292 289 293 288 287 287 280 281 272 287 292 292 289 292 294
302 303 303 302 302 302 301 301 301 301 302 296 299 294 292 286 289 290 291 291 292 293 293 294 296 297 299 296 291 290 290 291 292 292 292 293 289 284 281 280 284 287 292 291 289 289 294
301 303 304 302 302 302 302 301 301 301 301 292 299 298 293 288 286 292 291 291 288 286 289 294 298 300 297 293 288 282 283 284 286 289 293 293 293 287 285 279 278 286 292 295 294 284 294
301 302 304 302 301 301 301 301 301 300 300 293 295 298 294 289 292 291 291 293 296 289 287 290 292 292 294 288 285 282 279 286 284 284 287 288 288 285 284 283 284 291 292 296 282 285 294
301 301 303 301 301 301 301 301 301 300 299 293 289 299 293 288 289 293 297 297 296 291 287 291 291 291 289 285 284 283 282 284 283 285 286 286 285 284 286 283 278 292 293 288 292 294 294
301 301 302 303 301 300 301 300 300 300 300 296 286 292 295 290 287 294 295 297 298 299 295 294 292 294 292 287 285 286 286 289 284 280 287 286 288 285 286 285 292 293 294 296 294 293 293

GFSGBSN_sfc_thetae_033.txt.gz
Theta_e
313 317 314 314 313 313 314 314 313 312 312 312 312 311 311 311 311 311 312 311 311 311 311 311 313 317 315 303 302 316 326 329 323 321 314 311 305 302 298 299 300 296 298 302 303 303 301
315 313 313 312 312 314 313 312 311 310 311 311 310 310 310 311 310 309 310 310 310 310 310 311 312 316 309 295 311 315 321 322 321 318 313 310 306 305 300 298 298 299 300 300 301 301 301
315 313 313 312 313 313 312 311 310 310 310 310 310 309 309 309 309 308 309 309 310 310 310 310 313 312 305 300 311 314 322 319 320 317 312 312 310 304 302 298 301 300 295 297 299 300 300
313 313 312 312 312 312 311 310 310 310 310 309 309 309 308 308 308 308 308 309 309 309 310 310 313 308 300 311 310 308 317 317 320 319 316 317 316 307 302 302 299 296 295 290 296 299 300
312 312 313 311 312 312 311 310 310 309 309 309 308 308 308 308 308 308 308 308 309 309 309 310 305 304 297 314 307 308 310 310 315 317 318 317 311 304 300 294 291 291 285 288 292 298 298
313 312 311 310 312 312 311 310 309 309 309 308 308 307 308 308 308 307 308 308 308 307 305 306 305 299 303 300 307 308 308 313 310 311 310 308 304 297 295 292 285 286 287 287 288 293 295
312 311 310 310 311 311 310 309 309 308 308 308 307 306 307 308 308 308 303 297 291 293 297 293 297 297 301 307 310 307 308 309 309 306 300 304 298 293 296 294 292 291 289 288 290 294 291
311 310 310 310 310 310 309 309 309 308 308 308 306 307 308 308 308 308 301 291 292 296 288 297 301 303 305 306 299 304 309 303 303 297 300 297 293 298 300 298 297 295 291 287 290 293 290
310 309 309 310 310 309 309 308 308 307 308 307 306 306 307 308 308 303 297 297 301 299 289 292 299 301 302 304 298 300 305 304 299 296 295 292 296 301 299 297 295 290 287 286 286 289 288
309 309 309 309 309 309 308 307 307 308 307 307 307 308 308 309 302 300 295 301 302 299 283 289 294 301 303 302 296 304 307 303 299 295 295 293 298 297 295 294 291 285 289 290 287 284 280
308 309 308 308 308 308 307 307 308 308 308 308 308 308 309 308 300 296 300 302 300 296 275 290 295 307 303 296 297 298 308 303 295 295 295 291 292 293 292 293 293 288 291 288 286 282 278
308 308 308 308 307 308 307 307 308 309 309 310 309 309 308 302 302 301 303 304 295 280 274 286 295 295 294 295 296 301 301 304 303 296 295 291 295 295 293 293 293 292 288 285 283 280 271
308 308 307 306 307 308 307 307 308 309 310 310 308 308 305 304 296 303 303 295 280 273 288 285 289 293 292 292 294 296 294 293 291 287 287 291 290 292 294 288 291 288 283 272 271 270 272
308 307 306 306 307 306 306 308 307 309 310 309 307 306 305 304 303 303 299 286 276 284 286 293 293 292 289 292 293 293 292 289 292 290 287 283 282 288 291 288 286 284 283 275 270 270 273
307 307 306 305 305 306 307 307 307 309 310 309 305 299 300 301 304 302 293 277 280 284 291 291 291 287 286 290 292 292 290 287 290 289 283 279 280 290 291 291 290 285 278 284 277 275 270
307 306 305 305 306 306 306 306 307 308 309 308 295 296 295 302 303 296 284 284 286 292 293 289 283 287 283 286 288 289 288 291 290 292 290 285 279 289 291 292 291 287 288 277 273 266 269
306 306 305 305 304 304 304 305 307 308 309 305 292 288 297 302 300 289 282 284 290 295 294 289 285 285 285 284 285 284 286 289 293 291 290 287 284 284 290 285 284 284 282 281 280 276 269
306 306 305 305 304 303 304 305 306 307 308 298 289 281 296 300 286 287 286 287 292 292 295 291 289 288 285 285 284 284 284 287 293 292 287 289 284 278 283 288 289 287 284 282 274 272 274
306 306 305 304 303 303 303 304 305 306 308 293 286 287 296 295 286 288 290 290 292 293 292 291 288 289 289 286 283 285 286 293 293 291 288 289 281 272 279 283 286 284 285 285 283 281 271
305 306 304 304 303 303 303 303 304 305 307 295 287 281 288 291 292 290 288 289 289 294 291 291 289 291 288 286 287 286 287 293 294 293 298 294 284 278 274 278 282 278 283 285 282 275 276
304 306 305 304 303 303 303 303 303 304 306 294 288 288 289 283 286 287 288 289 289 289 293 292 289 289 288 286 287 287 290 291 295 298 293 289 279 279 283 285 284 282 283 284 280 283 277
304 305 304 304 303 303 302 302 302 304 304 295 291 290 292 286 287 286 288 287 288 290 291 290 290 293 293 289 288 287 288 287 288 290 290 290 280 282 278 284 284 281 284 285 285 285 284
304 304 304 303 303 303 302 302 302 302 300 293 296 296 293 288 286 284 286 287 289 291 293 294 294 293 292 294 294 291 292 292 290 288 287 286 282 283 278 282 282 280 284 285 285 287 286
303 303 306 303 303 302 302 302 302 301 300 293 296 295 291 284 285 287 289 291 290 292 290 294 294 292 296 299 297 296 294 292 291 288 292 287 286 286 280 279 271 285 291 290 288 289 290
302 303 305 303 302 301 302 301 301 301 301 292 296 293 291 286 287 288 290 290 291 291 291 293 295 296 298 295 290 289 290 290 291 291 292 292 288 284 280 280 282 287 291 290 288 288 293
302 302 303 304 302 301 302 301 301 301 300 291 298 296 290 288 284 290 289 290 287 285 288 292 296 298 296 291 287 282 280 283 285 288 293 292 291 287 284 279 278 287 291 294 293 283 292
302 301 302 304 301 301 301 302 301 300 300 291 293 297 293 288 289 291 288 289 291 288 286 288 290 291 293 287 284 281 279 285 284 283 286 287 288 284 285 283 284 290 291 295 281 285 292
301 302 301 303 303 301 300 301 301 301 300 292 289 296 288 288 288 290 293 291 293 290 287 290 290 290 288 284 284 283 281 283 282 284 287 287 285 285 285 283 278 292 293 287 291 292 292
301 301 301 302 303 302 301 301 301 300 300 295 286 291 293 286 285 291 293 293 294 298 294 292 290 290 291 286 284 284 284 286 283 280 285 285 287 284 285 285 291 293 292 295 294 292 291

GFSGBSN_sfc_thetae_036.txt.gz
Theta_e
316 316 313 314 314 313 314 313 312 312 311 311 311 311 311 311 311 310 311 311 311 311 311 311 311 312 311 303 301 314 322 327 319 321 315 312 306 302 297 299 299 296 298 301 303 303 301
316 314 313 314 314 313 314 313 311 311 311 311 311 310 310 309 309 309 309 309 310 310 310 310 310 311 306 296 311 313 313 320 316 318 314 312 307 304 301 299 298 299 300 300 301 300 300
314 314 314 314 312 313 313 312 311 311 310 310 310 309 309 309 309 309 309 309 309 309 309 310 309 308 304 301 312 310 318 318 319 318 311 312 310 304 301 297 301 299 294 296 298 299 299
314 314 313 312 312 313 312 311 310 310 310 310 309 309 308 308 308 308 309 309 309 309 309 309 310 307 300 312 314 311 314 317 319 318 315 314 314 306 301 301 298 295 294 289 296 299 300
313 313 312 312 311 312 311 310 310 310 310 309 310 309 308 308 308 308 307 308 308 308 309 309 303 302 298 313 308 309 309 313 316 316 315 317 312 303 300 294 291 290 285 288 292 298 297
313 312 311 311 311 311 311 310 310 309 309 309 309 308 307 307 308 308 308 307 307 306 305 305 304 296 302 300 307 308 311 315 312 311 309 307 305 296 294 293 283 287 285 286 288 292 294
312 311 311 310 310 311 310 310 309 308 308 308 309 307 306 308 308 306 304 296 290 292 295 290 294 297 301 307 309 306 309 311 311 307 298 302 297 292 293 293 291 291 289 287 289 293 290
310 310 310 310 310 310 309 308 308 309 309 308 308 307 307 308 308 308 300 291 291 295 286 295 296 299 305 307 299 304 310 303 302 297 297 297 293 296 298 296 295 292 289 286 290 292 289
310 310 309 309 310 308 308 309 309 309 310 310 309 309 309 308 308 304 296 295 299 298 287 292 297 300 302 304 299 300 306 304 299 297 295 293 296 301 299 296 293 290 288 286 286 288 287
309 309 310 309 308 309 309 308 309 310 310 310 310 309 309 309 300 300 295 299 301 298 276 287 293 300 303 303 296 305 308 303 299 294 294 293 299 298 297 295 293 288 291 289 287 284 280
309 309 309 307 309 308 307 308 309 310 310 310 310 309 308 305 297 296 298 300 299 295 269 290 293 306 304 296 297 300 308 303 296 295 296 290 295 295 293 293 294 290 290 288 286 282 279
308 309 308 306 307 306 307 309 309 310 310 309 309 309 306 301 298 299 304 302 295 276 274 286 294 295 294 295 296 301 301 304 303 295 295 292 297 296 295 295 294 292 287 284 282 280 272
308 308 307 306 307 307 308 307 309 309 310 309 309 308 304 303 293 302 300 294 278 274 288 285 289 293 292 292 294 296 294 292 291 286 287 291 291 293 294 289 290 288 283 273 272 269 272
308 307 306 306 306 306 306 307 308 309 309 310 308 306 304 303 302 301 298 282 274 285 287 293 292 291 289 292 293 293 292 289 292 290 287 282 282 290 292 290 286 284 283 275 272 271 273
307 307 306 306 305 305 306 306 308 308 309 310 304 297 297 301 303 299 288 278 280 285 291 291 291 287 287 290 292 291 289 288 289 288 283 279 280 291 291 291 289 284 279 283 276 274 270
307 307 306 306 305 305 305 306 307 308 309 308 294 293 294 301 301 294 286 285 287 292 291 289 283 286 283 287 286 289 285 289 290 290 288 284 278 288 290 291 290 286 287 277 273 267 270
307 307 306 305 305 304 305 306 307 307 309 304 292 287 295 301 298 290 283 285 291 294 293 288 284 284 284 284 285 285 284 288 290 290 290 286 283 285 288 284 283 284 281 280 279 275 269
306 307 306 305 304 304 304 305 306 307 309 297 289 284 296 298 287 289 287 288 292 292 294 290 289 287 284 284 282 282 284 286 292 291 286 288 284 278 281 287 288 286 283 281 273 271 275
306 306 306 305 304 304 304 304 305 306 307 292 286 285 296 295 286 287 290 290 292 292 291 289 287 289 288 285 282 284 286 291 292 290 288 289 280 272 279 282 285 283 284 284 281 279 271
305 305 306 305 304 304 303 303 304 305 307 293 287 283 288 290 289 290 288 287 288 292 290 290 288 289 287 284 286 284 285 292 292 292 298 293 283 278 274 278 282 278 283 284 281 273 275
305 305 306 305 304 304 303 303 303 304 305 293 288 287 291 284 285 285 286 287 287 288 292 291 288 288 287 284 286 286 288 289 292 297 292 289 279 279 282 284 283 282 283 283 279 281 276
304 304 306 305 304 304 303 302 302 303 303 294 287 288 292 286 285 284 287 286 287 289 289 288 287 290 292 286 286 285 287 286 287 289 288 289 280 282 278 284 283 281 283 283 283 284 283
303 304 304 305 304 303 303 302 302 302 299 290 295 296 292 287 284 283 284 287 289 290 292 293 294 293 292 292 292 290 291 291 290 288 286 288 282 280 273 281 281 278 283 284 285 285 286
303 303 303 305 303 302 302 302 302 302 298 295 296 295 288 283 284 286 288 289 290 290 288 293 294 290 294 297 295 295 291 291 290 288 290 286 284 284 280 280 271 284 289 290 287 288 288
303 303 303 304 303 302 302 302 301 301 300 295 296 293 291 285 286 286 288 288 289 290 290 292 293 296 296 293 288 288 289 289 290 291 291 291 287 281 279 280 282 285 290 289 287 288 291
303 303 302 303 303 302 302 302 301 301 300 290 297 296 291 288 283 288 288 288 286 284 287 291 295 297 294 289 286 281 279 282 284 288 292 292 289 285 283 279 276 286 292 295 292 284 292
303 302 302 302 304 303 302 301 302 302 300 291 290 292 291 287 289 289 288 288 290 286 285 286 289 290 292 286 283 281 278 284 283 284 286 287 288 284 282 282 283 289 292 295 283 284 291
302 302 302 302 303 304 302 301 301 301 300 292 289 292 286 282 284 288 292 289 294 289 285 289 289 289 287 286 285 282 279 282 281 286 286 285 284 284 284 281 278 292 293 289 292 291 292
301 301 301 301 301 302 303 303 301 300 300 295 287 290 292 284 282 289 291 292 292 294 295 291 289 289 290 285 284 283 283 282 281 279 284 283 285 283 284 283 291 292 292 294 294 292 291

GFSGBSN_sfc_thetae_039.txt.gz
Theta_e
316 314 314 315 315 314 314 314 313 312 312 312 312 311 311 310 310 309 310 310 310 310 311 311 311 310 308 301 302 313 319 318 319 318 315 310 308 306 300 300 300 299 300 302 304 304 303
314 314 315 314 313 312 314 313 312 312 312 311 311 310 309 309 309 308 308 309 309 309 310 310 310 309 303 295 311 314 311 314 315 317 315 312 308 307 303 301 300 301 301 301 303 302 303
313 314 314 314 312 312 313 312 312 311 311 311 311 310 309 309 308 309 309 309 308 309 309 309 309 305 300 298 311 314 312 317 316 317 313 314 311 306 303 299 303 300 297 299 300 301 301
313 314 313 313 311 312 312 312 311 311 310 311 310 310 310 309 307 308 308 308 308 308 308 308 309 304 294 312 313 312 311 316 317 320 316 315 313 306 303 303 300 297 297 291 298 300 301
313 312 312 312 311 312 312 311 310 310 309 309 309 309 309 307 307 308 308 309 309 309 308 308 302 300 295 314 306 311 310 312 315 316 315 316 312 305 302 295 293 293 287 290 294 300 299
313 312 311 311 310 312 310 310 309 310 311 311 310 309 308 306 307 308 307 308 307 305 304 305 303 294 300 299 307 308 311 314 311 310 308 307 304 298 296 293 285 288 288 290 290 294 296
311 311 311 311 310 310 311 311 310 311 311 311 311 309 308 306 307 307 305 296 290 290 295 289 291 294 300 307 310 307 312 312 310 306 298 302 295 291 295 295 292 292 290 289 292 294 293
311 311 310 310 309 311 309 310 311 311 311 311 310 310 310 309 308 307 300 290 290 294 286 294 295 296 301 307 299 303 310 304 302 296 300 296 291 296 298 296 294 292 290 289 292 293 292
310 310 310 309 309 309 309 310 310 312 311 311 311 310 309 309 308 304 297 294 298 297 286 292 297 297 300 304 299 300 306 304 293 292 296 292 296 299 297 295 293 291 290 289 289 290 290
310 310 309 308 308 308 309 310 310 311 311 310 310 309 308 308 299 300 296 299 300 298 277 287 292 300 302 303 297 306 308 303 299 288 294 294 299 298 296 294 294 288 292 291 289 287 284
309 309 308 307 308 308 308 308 310 310 311 310 309 309 308 305 298 294 297 299 299 296 267 291 293 305 301 296 298 300 308 303 296 295 295 290 295 296 294 295 295 291 292 289 287 284 284
308 309 308 307 307 307 307 308 310 310 310 310 309 309 307 300 297 300 304 300 296 275 273 286 294 294 294 296 298 301 301 305 302 295 294 293 298 297 295 295 294 292 288 285 284 283 278
308 308 307 307 306 306 307 307 309 309 310 310 310 308 304 302 293 302 300 293 275 274 287 285 288 293 292 292 294 296 294 293 291 286 287 291 289 293 296 289 292 290 287 279 276 275 278
308 308 307 307 306 306 307 307 308 309 309 310 309 305 303 302 301 302 299 280 278 286 287 292 292 293 289 291 293 293 292 289 291 291 287 283 282 290 293 291 288 287 286 279 275 274 276
307 308 307 307 306 306 306 306 308 308 308 310 305 295 296 298 301 301 289 282 281 286 292 290 289 286 286 290 292 292 289 289 290 289 285 281 282 291 291 291 291 286 283 284 278 276 275
307 308 307 306 306 306 306 306 307 307 308 309 292 291 293 299 300 293 284 286 287 292 291 289 283 286 283 287 287 288 287 290 290 290 290 286 282 289 290 292 291 288 288 280 277 271 273
306 307 307 306 306 305 305 305 306 307 308 304 290 288 295 299 296 290 283 285 290 293 292 287 284 283 286 285 285 285 284 289 291 290 290 287 285 286 290 287 284 285 283 281 280 277 274
306 306 307 306 305 305 305 305 305 306 307 297 288 284 297 297 287 290 287 289 292 291 293 289 288 286 284 285 283 283 284 287 291 292 287 288 284 282 284 288 289 287 284 282 277 275 276
306 306 307 306 305 305 304 304 304 305 306 292 286 285 295 295 282 285 287 290 291 290 289 288 287 289 288 285 282 284 286 291 292 290 288 289 281 274 278 283 287 285 285 284 281 280 275
305 305 306 306 305 304 304 304 304 304 306 292 286 281 288 290 287 286 285 286 287 292 290 289 288 289 286 284 286 284 285 291 292 291 297 292 283 279 275 279 283 281 284 284 282 276 277
305 305 305 307 305 304 304 303 303 303 305 293 287 286 289 281 284 283 284 286 286 287 291 290 287 287 286 283 285 284 287 288 291 296 291 289 279 280 283 284 284 283 284 283 279 281 278
304 304 304 306 305 303 303 303 303 302 303 294 287 287 291 284 284 281 285 284 286 288 288 287 286 289 290 285 285 284 287 285 286 288 288 289 282 282 278 285 284 282 284 284 284 284 283
304 304 304 304 305 303 303 302 302 302 299 289 293 296 292 286 283 281 284 285 287 289 291 292 291 293 292 292 292 290 290 290 290 288 286 288 282 279 275 282 282 279 282 284 285 285 286
303 303 303 304 305 303 302 303 302 302 298 296 295 294 289 282 283 284 287 288 288 289 288 291 292 290 293 295 293 292 292 290 290 289 290 286 284 281 279 280 272 284 289 288 287 288 288
303 303 303 303 304 304 302 302 301 301 300 294 294 292 290 284 284 285 286 287 289 289 288 290 292 296 296 292 288 288 288 288 289 291 291 291 287 282 279 280 282 286 288 287 287 289 291
303 304 303 303 303 305 303 301 302 302 300 290 290 292 290 286 282 287 288 287 284 283 286 289 293 295 295 291 288 282 279 281 284 286 292 291 287 283 282 277 275 285 293 295 294 286 293
303 303 302 303 302 303 304 302 302 302 300 291 289 290 287 284 285 290 287 288 289 285 284 285 289 289 291 284 283 281 278 283 282 283 285 286 287 283 283 280 282 289 293 297 285 287 293
303 302 302 302 302 302 303 303 303 301 300 294 289 291 285 280 282 286 290 287 292 291 284 287 288 288 286 284 285 285 279 281 281 283 286 285 283 283 284 281 276 292 293 290 294 293 293
303 302 302 301 301 302 302 303 303 301 300 296 288 291 291 284 283 287 290 290 289 291 290 292 287 287 289 284 283 283 282 281 280 279 284 284 285 283 284 283 289 291 292 295 294 294 293

GFSGBSN_sfc_thetae_042.txt.gz
Theta_e
316 315 315 315 314 313 314 314 314 313 313 313 312 312 311 310 310 310 309 309 310 309 310 310 310 311 306 299 301 317 316 316 322 319 315 312 309 309 303 304 305 302 304 305 306 308 307
314 315 314 314 313 313 314 314 313 312 312 312 311 311 311 310 310 309 309 309 309 309 309 309 309 310 302 292 311 316 314 315 318 316 315 314 308 311 306 304 303 305 304 304 306 306 306
314 315 314 313 312 312 313 312 312 311 311 311 311 310 310 310 309 308 309 309 309 308 309 309 308 306 299 296 314 316 314 314 319 315 311 316 313 309 308 303 307 305 300 303 304 304 303
315 313 312 313 312 313 311 311 311 312 312 312 312 311 310 310 309 307 308 309 309 309 309 308 308 305 293 306 309 309 313 313 318 317 315 318 317 310 307 307 304 301 300 295 301 304 304
314 312 312 312 311 311 312 312 311 312 313 312 312 311 310 309 307 307 308 309 309 309 308 308 304 301 293 313 307 312 313 312 314 315 318 317 315 307 305 299 295 298 291 293 296 303 302
312 312 313 311 310 312 311 311 312 312 313 312 311 311 309 307 305 307 307 308 307 307 306 306 304 295 300 300 309 311 313 313 311 311 309 308 306 302 300 296 286 290 291 293 292 298 301
312 311 312 310 310 310 311 312 312 312 312 311 311 310 310 307 307 307 306 303 297 295 298 291 292 294 300 308 311 308 312 309 311 306 297 302 297 294 297 298 296 296 293 291 295 297 296
311 311 310 309 310 311 311 311 311 312 312 311 311 310 310 309 308 307 305 296 295 298 289 296 295 295 299 305 301 305 312 303 301 296 300 297 293 299 301 300 297 295 292 292 296 296 297
310 311 310 309 309 309 310 310 311 312 312 311 310 310 309 307 307 305 300 298 303 302 291 293 297 296 300 306 300 301 306 300 299 296 297 293 296 301 299 297 295 295 292 293 293 295 294
310 310 310 309 308 308 309 309 311 311 311 311 310 310 308 305 301 301 297 303 305 303 287 288 293 299 303 304 298 307 308 300 294 293 297 296 300 297 296 295 297 291 296 295 293 292 289
309 310 309 308 308 308 308 309 310 311 310 311 311 309 308 306 302 298 301 304 303 300 277 290 293 305 303 298 300 300 309 304 293 291 294 291 296 296 294 296 299 293 296 293 291 291 290
309 310 309 308 308 307 308 308 309 310 310 310 311 309 307 305 304 302 306 304 301 285 277 286 294 294 294 297 298 302 302 305 302 295 295 292 298 297 296 295 298 295 292 290 290 290 286
308 309 308 308 308 307 307 307 308 309 309 309 310 309 306 306 299 306 305 300 286 282 288 286 290 295 293 293 294 296 296 294 292 286 286 289 290 295 296 290 293 294 292 285 284 284 284
308 309 308 308 307 307 307 307 307 308 308 308 309 307 306 306 308 305 303 291 283 286 287 293 293 294 290 293 293 293 294 291 295 294 290 287 284 290 295 292 289 291 292 287 280 280 282
307 308 308 308 307 307 307 306 307 307 308 309 304 304 305 306 306 306 297 285 284 287 292 291 293 290 289 293 293 293 291 292 293 294 289 287 285 292 293 294 295 289 288 289 284 282 283
307 307 307 307 307 307 306 306 306 307 309 307 302 300 301 304 306 302 296 287 289 294 294 292 287 290 286 289 290 291 291 293 292 294 295 290 285 291 292 294 294 292 292 286 287 280 279
307 307 308 307 306 306 306 306 306 306 308 305 301 300 302 304 304 300 286 288 292 296 295 291 289 288 289 288 290 289 289 292 294 293 294 293 290 287 291 290 289 289 288 287 288 285 281
307 307 307 307 306 306 305 305 305 305 307 302 298 298 303 303 298 297 291 291 293 295 297 293 293 291 289 289 288 289 288 292 296 295 291 292 291 285 287 291 292 291 290 289 286 281 283
306 306 306 308 306 305 305 305 305 305 306 301 296 297 305 304 293 293 294 293 294 293 292 292 291 293 292 290 287 289 290 294 295 294 292 293 288 282 282 288 290 288 290 289 287 287 282
305 305 306 307 306 305 304 304 304 304 306 301 297 294 300 300 296 294 292 291 291 295 293 293 292 293 291 289 291 288 290 294 295 295 296 296 288 285 282 284 289 285 288 288 288 284 285
305 305 305 305 306 305 304 304 304 303 305 301 296 291 293 293 293 293 292 292 291 290 295 294 292 291 290 287 289 288 291 292 294 296 295 294 287 286 287 287 288 287 287 287 284 287 285
304 304 304 305 306 305 304 303 303 302 303 299 293 290 294 292 291 291 291 291 291 292 293 291 290 292 294 290 290 289 291 292 291 294 293 293 286 286 285 287 287 285 288 288 288 288 287
303 304 304 304 304 305 303 303 302 302 302 296 296 297 293 290 290 291 292 292 292 294 295 296 294 294 293 294 297 297 297 296 296 293 291 291 287 285 283 285 286 283 287 288 289 290 290
303 303 303 303 303 305 304 303 303 302 300 299 296 295 290 290 290 291 291 291 292 294 293 296 297 295 297 299 299 298 297 295 296 293 295 290 288 288 284 284 278 288 293 292 290 291 292
303 304 304 303 303 304 304 302 303 302 301 298 296 293 291 286 290 289 289 291 294 295 295 296 298 300 303 298 293 289 290 290 291 293 293 294 291 286 282 281 286 289 290 290 289 291 293
304 304 304 303 303 303 304 304 302 302 301 297 296 295 293 287 288 290 288 290 292 293 293 296 300 302 300 295 292 285 283 286 285 288 294 293 293 288 284 279 279 290 295 297 297 289 296
305 304 303 303 303 302 303 304 304 302 300 297 295 295 293 286 289 290 288 290 294 292 293 293 297 297 298 294 289 286 286 289 284 284 286 287 288 285 284 282 286 293 297 300 288 290 297
305 303 302 302 302 302 302 303 303 304 301 298 295 296 292 286 287 288 292 291 293 294 291 293 295 295 294 291 290 289 287 288 288 289 287 286 285 284 286 282 280 295 297 292 297 298 297
305 302 302 302 302 302 302 302 302 303 303 298 293 294 295 289 288 290 291 292 292 291 289 294 293 293 297 294 292 292 288 288 289 285 292 286 290 288 289 288 295 298 298 300 299 298 298

GFSGBSN_sfc_thetae_045.txt.gz
Theta_e
315 316 315 314 315 313 315 314 313 312 313 313 313 312 311 311 311 310 310 310 309 310 310 310 310 310 307 299 299 318 323 327 323 320 312 311 306 308 302 304 304 302 304 306 307 307 307
315 315 314 314 313 314 314 313 313 313 313 314 313 313 312 311 311 310 310 310 310 310 309 309 309 309 303 293 308 317 316 317 320 317 312 313 308 311 306 304 303 305 305 305 306 306 307
314 314 314 313 313 312 313 314 312 313 314 314 313 312 312 311 310 309 309 309 309 308 309 309 308 307 300 298 310 316 314 314 318 319 310 313 312 310 308 303 308 305 301 303 304 305 304
314 314 313 313 312 312 312 312 313 313 314 314 313 312 311 310 309 308 307 309 309 309 309 309 308 305 294 307 309 310 314 313 319 320 314 316 316 310 307 308 305 300 301 295 302 303 304
314 313 313 312 312 312 312 313 313 313 313 313 312 311 311 308 308 306 307 308 309 309 309 308 304 301 294 310 303 307 313 309 313 316 315 317 314 307 306 299 297 298 291 294 297 303 303
313 313 312 311 311 312 312 312 312 313 313 312 312 311 311 308 305 306 307 308 307 307 307 306 304 295 299 298 307 309 314 313 310 310 308 308 306 301 299 297 288 291 291 294 294 300 301
312 312 312 311 310 310 311 311 312 313 313 312 311 310 310 308 306 307 307 304 299 296 299 293 294 294 299 306 312 310 312 311 311 306 298 303 298 294 297 298 297 295 293 292 296 299 298
311 312 311 310 310 310 311 311 312 313 312 312 311 309 309 308 307 307 306 298 297 300 290 296 296 295 299 302 301 306 311 301 302 296 300 297 292 299 300 299 297 296 293 292 296 298 296
311 311 311 310 310 309 310 310 311 312 312 312 312 309 307 308 308 304 301 299 305 304 291 293 297 296 300 306 300 302 305 302 299 296 297 292 295 300 299 296 295 295 293 292 292 296 298
310 311 310 310 309 309 309 309 310 311 311 311 311 310 308 307 303 303 299 304 305 305 287 288 293 298 304 304 298 306 305 301 295 295 297 296 300 298 298 295 296 291 297 296 294 293 287
310 310 310 310 309 309 308 309 309 310 310 310 310 311 308 308 304 300 302 306 305 302 278 289 290 306 304 299 301 301 307 302 293 294 295 292 296 296 295 296 298 294 299 296 294 292 292
309 310 310 309 309 309 308 308 308 308 309 309 309 310 310 307 307 304 308 307 303 285 278 287 296 295 297 299 299 301 301 304 301 294 295 293 299 297 296 299 299 299 295 294 293 291 286
309 309 310 309 309 308 308 308 308 308 308 309 309 309 308 308 303 308 307 302 286 283 290 287 291 295 294 293 295 297 294 294 290 285 286 289 289 295 297 294 297 296 292 285 283 284 283
308 309 309 309 308 308 308 308 308 307 308 309 309 308 307 307 310 308 303 293 283 287 289 294 294 294 291 293 293 295 295 292 295 293 289 286 283 287 294 293 291 293 293 288 280 282 285
307 308 309 308 308 308 308 308 307 307 308 309 307 307 307 309 309 306 297 286 286 288 293 292 294 290 290 294 294 294 294 293 295 296 289 288 286 292 293 295 295 289 289 292 286 286 285
307 307 308 308 308 308 307 308 307 307 308 308 304 304 306 307 309 303 298 288 291 295 295 294 288 291 289 292 292 292 293 295 294 295 297 293 286 291 293 295 293 292 296 287 289 281 280
307 307 307 309 308 307 307 307 307 306 308 308 304 301 305 308 308 303 289 289 294 297 297 293 291 290 291 290 292 291 291 294 296 294 297 295 292 288 292 291 290 289 289 290 291 287 283
306 307 307 308 307 306 306 306 306 306 307 307 303 299 307 308 300 301 294 294 295 296 298 295 295 293 292 292 291 291 290 294 298 297 292 294 292 286 288 293 294 294 292 292 287 284 286
306 306 306 306 307 306 306 305 305 305 305 302 299 301 308 307 296 295 296 295 296 295 294 294 292 294 295 292 289 292 292 296 297 296 294 295 290 283 284 290 292 290 292 292 291 289 285
305 305 306 306 306 306 305 305 304 304 304 303 299 294 304 304 302 297 294 293 293 297 295 295 294 295 293 291 293 291 292 295 297 297 297 297 290 287 284 286 291 287 290 291 289 286 286
305 304 305 305 305 306 305 304 304 303 304 303 300 297 296 297 297 297 296 294 292 292 296 296 293 293 292 289 290 290 293 293 296 296 296 295 288 287 289 289 289 289 289 289 287 288 287
303 304 305 304 304 305 305 304 303 303 304 301 292 291 296 296 295 295 293 294 293 294 294 292 292 293 294 291 291 290 293 293 292 296 294 295 287 288 286 289 289 286 289 290 289 289 289
303 304 304 304 304 305 305 303 304 303 303 297 296 298 294 294 294 294 295 295 294 296 297 297 295 294 293 295 298 299 298 297 296 294 293 292 290 287 284 287 287 284 288 289 290 291 291
303 303 305 304 304 304 305 303 303 303 301 298 296 295 290 292 293 294 294 294 294 296 294 297 299 295 297 302 301 300 298 297 297 296 297 292 290 289 284 285 278 290 294 294 291 292 294
303 303 305 304 304 304 304 304 304 303 302 298 297 293 290 287 292 293 293 293 296 297 297 297 299 301 303 300 293 290 290 291 292 294 295 295 291 287 282 283 287 289 292 291 290 292 295
304 304 304 303 303 303 303 304 304 303 302 299 298 297 293 287 289 292 291 292 293 295 295 298 302 305 302 297 292 285 283 287 286 289 295 295 294 288 285 280 279 291 295 298 297 290 298
305 305 303 303 303 303 303 303 303 303 301 300 298 298 293 287 290 291 290 290 295 295 294 297 298 299 301 295 288 285 284 291 285 284 286 288 288 285 285 282 286 294 298 300 287 290 298
305 305 303 302 302 302 303 303 302 302 303 300 298 298 293 289 290 290 292 290 292 295 292 296 296 297 296 291 289 288 288 290 289 290 288 287 285 285 286 283 280 297 298 293 298 301 301
306 306 303 303 302 302 303 303 303 302 301 300 294 297 297 290 289 294 293 293 292 294 291 295 294 296 298 294 294 294 290 292 290 285 294 286 291 288 289 289 296 299 299 303 302 301 300

GFSGBSN_sfc_thetae_048.txt.gz
Theta_e
316 316 315 315 315 313 314 315 313 314 315 315 315 314 314 313 311 311 311 310 310 310 310 309 310 310 307 297 298 313 320 324 323 320 312 311 303 306 301 303 303 301 303 304 306 306 305
315 315 315 315 313 313 314 314 314 315 315 315 314 313 313 312 312 310 309 310 310 310 309 310 309 308 302 292 307 311 316 319 319 318 311 312 304 308 304 302 301 303 304 304 304 305 306
315 315 314 313 313 313 313 314 314 314 315 315 314 312 312 312 311 309 309 308 309 310 309 309 309 306 299 297 309 316 315 314 319 317 309 312 311 306 308 302 305 304 299 302 302 303 303
314 314 314 313 312 313 313 313 313 314 315 314 313 312 312 311 309 308 307 308 309 310 310 309 309 304 293 306 308 307 314 310 315 319 315 313 314 307 306 307 303 299 299 293 300 302 303
314 313 313 312 312 312 312 312 313 314 315 314 313 311 312 309 308 306 307 308 309 310 309 309 303 300 292 310 301 305 312 308 313 316 317 315 314 306 305 298 295 296 289 292 296 302 301
313 313 313 312 311 311 312 312 312 314 314 313 313 310 311 309 306 307 307 308 308 307 306 306 303 294 297 297 301 303 310 311 310 311 309 307 305 299 298 295 286 289 290 292 292 298 300
313 313 312 311 311 311 311 311 312 313 313 313 313 310 310 308 306 307 307 304 298 295 299 293 293 293 296 302 307 303 311 309 309 306 297 302 295 292 295 296 295 294 292 290 295 299 297
312 312 312 311 311 310 310 310 311 312 312 312 311 311 309 309 308 308 306 297 297 299 290 296 296 295 298 301 299 305 311 302 301 295 299 296 292 297 300 298 296 294 290 290 293 298 295
312 312 312 311 311 310 310 309 309 310 311 311 310 311 309 308 306 306 301 299 305 304 291 293 297 297 300 303 299 301 305 301 299 295 296 292 295 300 298 295 293 292 289 289 290 295 295
311 311 311 311 310 310 310 309 309 309 309 310 310 310 311 309 302 303 299 304 306 305 286 289 293 298 303 304 298 305 305 302 297 293 295 295 299 297 296 295 295 290 295 294 293 290 284
310 311 311 310 310 310 310 309 309 309 308 308 310 309 310 310 304 300 302 306 306 301 277 289 292 304 303 299 299 298 307 300 293 296 296 292 295 295 294 296 297 293 297 294 293 289 288
310 310 310 310 310 310 310 309 309 308 308 308 309 309 309 309 307 304 308 307 303 283 277 287 296 293 296 299 299 300 301 303 300 295 295 293 299 298 296 300 299 299 294 292 290 288 281
309 309 310 310 310 309 309 309 309 308 308 308 309 309 308 307 302 309 308 301 284 280 291 288 291 295 294 294 295 294 292 292 289 285 285 289 290 295 297 294 297 296 289 280 277 276 278
308 308 309 310 309 309 309 309 309 308 308 309 309 307 308 307 310 309 303 292 280 287 288 294 294 295 291 294 294 293 291 290 295 292 288 285 282 290 293 293 290 291 290 282 275 276 278
308 308 308 309 310 309 308 308 308 308 308 308 309 308 306 310 309 306 296 284 284 288 294 293 294 290 291 294 293 294 293 292 294 296 288 286 284 292 292 295 294 291 287 289 283 282 277
307 308 308 309 309 308 308 308 307 308 307 309 303 304 305 308 309 301 295 287 290 296 296 294 288 291 288 291 291 292 292 295 293 296 297 292 284 290 292 295 294 291 294 285 284 275 276
307 307 308 308 308 308 307 307 307 307 307 309 303 300 304 310 307 298 288 287 294 297 297 292 291 290 291 290 292 291 291 294 296 294 296 294 289 288 291 288 288 289 287 288 287 282 277
306 307 307 307 307 307 307 306 306 306 306 306 303 296 306 308 299 300 293 294 296 296 298 295 295 293 291 292 291 290 291 293 297 296 291 292 289 284 287 292 295 293 290 290 283 281 280
306 306 306 306 306 306 306 306 305 305 304 300 297 300 308 306 293 294 296 295 297 295 295 294 293 295 294 291 287 291 292 297 297 296 292 292 287 279 282 287 291 289 291 292 290 287 283
304 305 305 305 305 305 306 305 305 305 305 302 298 292 302 303 300 296 293 293 293 298 296 295 294 295 292 290 292 289 291 295 296 296 298 296 288 283 279 282 288 284 289 290 286 279 283
304 304 305 305 305 305 306 305 305 305 305 302 299 294 295 293 295 295 295 294 292 292 296 296 293 293 292 288 289 289 292 293 295 296 294 293 283 282 287 289 289 287 288 288 283 286 280
303 304 305 305 305 305 306 304 304 304 305 297 291 290 293 293 295 294 293 293 293 294 294 292 291 293 293 290 290 288 291 291 290 293 291 292 282 285 281 288 287 284 287 288 288 288 287
303 304 305 305 305 305 305 305 304 304 303 295 294 297 293 292 294 292 292 294 294 296 297 297 295 293 292 295 297 296 295 294 293 291 289 289 285 281 277 285 284 280 286 287 288 289 289
303 303 305 305 304 304 304 305 305 303 302 296 294 294 290 288 291 292 293 294 294 296 294 296 298 295 296 299 298 296 293 294 293 291 293 288 288 284 277 280 271 287 292 293 289 291 291
303 303 305 304 303 303 303 303 304 304 303 297 295 292 289 283 287 290 291 292 294 296 295 297 299 300 300 297 291 288 288 289 290 291 291 293 290 285 279 276 284 287 290 289 288 288 293
304 304 304 304 303 303 303 303 303 304 302 299 296 296 291 284 284 288 288 290 289 291 293 296 301 302 299 295 291 284 282 284 285 288 292 292 292 285 284 278 276 289 293 295 294 285 295
304 305 305 303 303 303 303 303 303 303 303 300 297 297 292 285 288 288 287 288 293 292 292 296 296 296 298 290 286 284 283 287 283 283 285 285 286 282 284 282 283 293 295 296 285 287 295
305 306 305 303 303 302 303 303 304 302 302 301 297 297 292 287 288 291 290 287 288 290 290 293 293 294 294 287 287 287 283 286 284 286 286 284 284 283 285 282 276 296 295 290 294 297 297
306 306 306 303 303 303 303 304 303 302 303 300 295 297 297 290 288 293 293 293 291 290 288 292 293 294 295 290 289 288 285 286 285 280 289 283 286 284 285 285 293 295 294 298 299 296 297

GFSGBSN_sfc_thetae_051.txt.gz
Theta_e
316 316 315 314 314 314 315 315 315 315 316 316 315 314 313 313 312 311 310 310 310 310 309 310 309 309 306 296 296 308 317 320 318 319 312 310 303 305 299 301 303 301 302 306 307 306 306
316 315 315 314 313 314 314 314 314 315 316 316 315 313 313 313 312 309 309 309 309 310 309 309 309 308 301 291 306 313 312 315 318 316 312 310 301 307 301 302 299 302 304 304 304 304 305
315 315 314 314 313 312 313 314 313 314 316 315 314 312 313 312 311 309 309 308 308 309 309 310 309 305 298 295 307 307 314 314 318 315 310 311 309 306 302 299 303 302 299 301 302 301 302
315 314 314 313 312 312 313 313 313 314 315 314 314 311 312 310 309 309 308 308 309 309 310 309 309 303 293 306 307 305 311 310 313 317 315 312 312 306 303 302 301 297 297 292 300 301 302
314 314 314 313 313 312 312 312 313 313 314 314 314 311 311 309 308 307 308 308 309 309 309 309 303 298 292 309 301 304 308 305 310 314 315 314 310 304 302 295 292 295 288 291 295 301 300
314 314 313 313 312 312 311 311 312 312 313 313 313 311 311 309 307 308 308 308 307 307 305 306 303 293 297 296 301 306 310 308 306 310 308 305 302 295 296 292 285 288 289 291 292 297 299
313 313 313 312 312 312 311 311 310 311 312 312 311 312 310 310 308 309 305 301 294 292 297 293 293 293 296 301 305 303 307 307 307 306 297 301 293 290 293 293 293 292 291 289 294 298 296
312 312 312 312 312 311 311 311 311 310 310 311 311 311 311 309 309 308 303 294 296 296 289 297 298 295 298 300 297 300 307 302 301 294 299 296 288 295 298 296 295 292 289 289 292 297 296
312 312 312 312 312 311 311 310 310 310 310 309 310 310 311 310 309 304 298 298 303 302 290 294 297 296 299 302 296 296 305 302 298 295 295 292 294 298 298 294 292 291 287 287 289 293 293
311 311 311 311 311 311 311 311 310 310 309 308 309 310 310 311 300 299 297 304 303 301 284 288 293 298 300 302 295 305 306 301 297 293 295 294 297 296 294 293 292 286 292 292 291 288 283
310 310 311 311 311 311 311 310 310 310 309 308 308 310 309 309 300 297 301 303 303 298 271 291 293 304 302 295 297 298 306 301 294 295 296 291 294 294 293 294 295 290 296 292 291 287 286
310 310 310 311 311 310 310 310 310 310 309 308 308 309 308 306 303 301 304 303 300 278 274 287 295 293 294 297 297 300 299 302 300 294 294 293 297 295 295 298 299 298 292 291 288 285 276
309 309 310 310 311 310 310 310 309 309 309 309 308 309 307 307 300 307 304 297 281 273 290 284 290 295 294 294 292 294 293 293 290 285 285 291 290 295 297 294 297 295 287 281 277 274 275
308 309 309 310 310 310 309 309 309 309 308 308 310 309 306 306 306 305 302 289 277 287 287 294 294 293 291 293 292 292 291 289 293 291 287 282 282 291 294 292 290 291 287 279 273 274 277
308 308 309 309 309 309 309 308 308 308 309 307 309 301 301 304 305 304 295 280 283 286 294 292 293 289 289 293 293 289 288 291 294 294 285 285 284 292 294 295 294 290 287 288 282 281 273
307 308 309 309 309 308 308 308 308 307 307 307 297 297 299 306 304 301 287 282 285 294 295 294 288 290 287 290 289 290 290 294 293 297 295 291 282 291 292 295 295 292 293 284 280 274 274
307 307 308 308 307 307 307 307 307 307 307 307 296 293 300 306 302 297 281 283 292 297 295 291 288 289 289 290 291 290 290 292 295 294 295 293 287 287 291 289 289 289 288 287 286 281 275
306 307 307 307 306 306 307 307 306 306 306 300 293 286 301 303 288 292 284 290 295 295 296 293 292 290 288 290 290 288 289 291 296 294 291 292 288 284 286 294 296 293 290 288 280 279 278
305 305 306 306 306 306 307 306 306 305 305 298 289 291 301 299 286 288 291 294 295 294 292 292 291 292 291 288 286 289 290 295 295 294 290 291 284 280 282 286 291 288 291 292 290 286 280
304 305 306 305 306 306 306 306 306 305 306 297 290 289 295 295 293 291 289 290 291 295 294 293 292 292 290 287 289 287 288 294 295 294 299 295 287 280 277 281 286 284 289 291 288 280 282
304 304 305 306 305 305 306 306 306 306 307 296 290 290 292 287 292 289 291 291 290 290 294 293 290 291 289 285 287 287 290 290 293 296 292 290 279 279 285 288 287 286 286 288 284 286 281
303 304 306 305 305 305 305 305 305 305 304 291 286 288 290 286 290 289 290 290 290 292 292 290 289 291 290 287 287 286 289 288 288 290 289 290 278 281 278 286 285 283 286 287 287 288 286
303 303 305 305 305 305 304 305 305 304 300 287 288 290 291 288 288 286 288 293 292 293 294 295 293 291 290 293 293 293 292 292 291 289 288 288 282 277 274 284 283 279 284 285 287 288 288
303 303 305 304 304 304 304 304 304 304 301 289 288 290 285 283 285 285 289 291 291 292 291 294 296 291 295 297 295 293 292 292 292 289 291 287 285 279 273 278 270 283 290 290 288 289 289
304 304 304 304 303 303 304 304 304 304 304 291 290 287 283 278 283 284 286 288 290 292 292 294 297 297 297 294 288 286 286 286 289 289 289 290 288 284 275 276 280 285 288 288 287 287 291
304 304 304 303 303 303 304 304 304 304 304 293 291 291 285 279 280 286 283 286 285 286 290 294 298 299 297 293 291 283 280 282 284 287 290 291 291 283 283 278 274 286 290 294 293 284 293
305 305 305 303 303 302 303 304 304 303 303 297 292 293 287 281 284 287 283 284 288 290 287 294 294 293 295 287 283 282 279 285 281 282 284 285 285 281 283 281 281 289 292 295 283 284 293
305 305 306 303 302 302 303 304 304 303 303 296 292 294 288 282 284 288 289 284 285 284 286 291 292 291 289 285 283 284 281 283 282 284 284 282 281 283 284 281 275 293 293 289 292 295 294
306 306 306 303 302 302 303 304 303 303 302 299 290 297 296 288 285 290 292 292 291 287 284 289 290 293 294 287 286 285 283 284 282 279 285 281 284 282 283 282 290 294 293 296 297 296 296

GFSGBSN_sfc_thetae_054.txt.gz
Theta_e
316 316 316 315 314 314 314 315 314 315 317 316 316 313 315 313 313 311 310 309 309 310 309 309 309 310 305 296 295 308 316 317 315 316 313 306 304 305 299 300 304 300 304 307 309 310 309
316 316 315 314 314 313 314 314 314 314 316 316 315 312 312 313 311 310 310 309 309 310 309 309 309 309 301 291 305 309 307 312 312 314 311 309 304 307 301 301 302 303 303 303 306 306 307
315 315 315 314 313 313 313 314 314 314 315 315 314 312 311 311 310 310 309 308 309 309 309 309 309 305 298 294 307 309 307 312 314 316 310 311 307 305 302 298 303 302 298 301 301 301 302
315 315 314 314 313 312 312 312 313 314 314 314 314 311 311 310 308 308 309 309 308 309 309 310 309 302 292 305 307 306 307 310 315 317 314 314 310 305 300 300 299 296 297 292 299 300 302
314 314 314 313 313 313 312 312 311 312 313 314 313 313 311 310 308 309 308 309 309 310 308 309 301 297 291 307 301 304 309 306 311 313 315 314 309 302 301 294 290 292 287 290 295 301 300
314 314 313 313 313 312 312 312 311 311 311 312 312 312 311 311 309 309 310 309 308 307 305 306 303 292 296 295 301 307 309 308 307 309 308 306 302 295 296 292 285 287 287 291 291 297 299
313 313 313 313 312 312 312 312 311 311 310 310 311 311 312 310 310 310 305 297 292 290 295 291 292 293 295 300 304 303 307 305 307 305 297 300 293 290 292 292 292 291 290 290 292 297 296
312 312 313 312 312 312 312 312 311 311 310 310 310 310 310 311 309 310 302 294 294 295 288 297 297 296 299 299 296 300 306 301 298 293 299 296 290 294 297 296 293 292 289 288 292 296 295
312 312 312 312 312 312 312 312 311 311 311 309 309 310 309 310 310 301 297 296 301 300 288 294 297 297 299 303 296 296 302 302 295 295 295 292 293 298 297 293 291 288 286 286 288 292 292
311 311 311 312 311 311 311 311 311 311 310 310 309 308 309 310 301 298 296 302 302 301 282 289 293 297 301 302 294 305 306 302 297 294 296 293 296 295 294 292 291 285 291 290 290 288 283
310 310 311 310 311 311 311 311 311 310 310 309 308 308 309 308 298 296 300 302 301 295 268 291 293 304 299 296 297 298 306 303 294 294 294 290 292 292 291 293 293 290 293 291 289 286 285
310 310 310 310 310 310 311 310 310 310 309 308 308 309 308 304 301 301 303 302 299 276 268 286 295 291 291 295 297 299 299 303 300 295 294 293 297 295 293 297 296 295 291 289 287 284 277
309 309 309 310 309 310 310 309 309 309 308 307 307 309 306 306 298 304 302 295 277 275 289 284 290 295 294 292 293 294 293 292 290 286 284 291 291 294 296 292 295 292 288 279 278 275 276
308 309 309 309 309 309 308 308 309 308 308 308 308 309 305 305 304 303 298 283 275 286 286 293 294 293 290 292 292 292 291 288 293 289 285 282 281 290 293 291 289 289 288 277 273 274 276
307 308 309 309 308 309 308 308 308 307 308 308 307 299 299 302 304 303 289 275 278 282 292 292 292 287 287 292 292 291 289 290 293 292 284 284 284 292 294 295 294 291 285 287 279 277 273
307 307 308 308 308 307 307 308 308 307 307 307 296 295 297 304 303 300 284 281 284 292 294 292 286 289 285 288 288 290 289 294 294 297 293 287 283 291 293 295 294 292 293 282 279 274 273
306 307 307 307 307 306 308 308 308 307 307 305 296 292 299 303 302 295 277 279 290 296 294 290 287 287 288 288 289 288 288 292 297 295 295 291 285 287 291 289 289 289 288 287 286 280 274
306 306 306 306 306 306 307 307 307 306 306 299 291 286 299 302 293 292 281 288 295 293 294 292 291 289 287 288 288 289 287 289 294 294 288 292 285 282 286 293 296 294 289 289 283 280 278
305 305 306 306 306 306 307 307 307 305 306 296 289 289 300 299 289 288 289 292 294 293 291 291 290 291 290 289 286 287 288 294 294 293 290 290 282 277 281 286 292 290 291 292 290 285 277
304 304 305 306 306 305 306 306 306 305 306 296 290 287 296 297 292 291 288 289 289 294 293 292 290 291 288 286 288 286 287 292 294 293 298 294 285 279 276 281 285 283 289 291 287 277 281
304 304 306 305 305 305 305 306 305 305 305 295 287 287 291 287 289 291 290 292 289 289 293 292 289 289 288 284 285 285 288 289 292 296 291 289 279 278 283 287 286 284 286 288 287 288 281
304 304 305 305 305 305 305 305 305 305 301 288 284 285 289 285 287 287 288 291 289 290 290 289 287 290 289 286 287 285 288 287 287 289 288 288 277 280 277 284 284 283 285 287 288 289 288
304 304 305 304 304 304 304 304 305 304 297 285 286 288 291 286 285 284 288 291 291 292 293 293 291 290 289 291 292 291 291 291 290 288 286 286 281 276 273 282 282 279 283 285 286 288 289
304 304 304 304 304 304 304 304 304 304 297 288 286 286 282 282 282 284 286 290 290 290 290 293 294 290 292 295 294 292 291 290 290 288 290 285 283 278 272 277 268 283 288 288 287 288 289
305 304 304 304 303 303 304 304 304 304 303 290 289 286 281 277 281 282 283 286 288 290 290 293 295 295 296 293 287 285 284 285 287 289 288 289 287 281 273 272 278 283 287 287 285 285 290
305 305 305 303 303 302 303 304 304 303 304 292 290 289 284 279 279 284 282 284 284 284 287 292 297 298 295 292 289 280 278 280 281 287 289 291 290 281 282 277 273 284 290 291 291 282 291
306 305 305 304 302 302 303 304 303 303 303 294 291 291 286 280 283 284 281 281 286 285 287 292 291 292 293 286 282 281 277 283 281 281 284 285 286 279 281 279 281 287 290 293 281 283 292
306 306 306 304 302 302 303 304 304 303 302 294 290 294 287 281 283 287 287 283 284 283 284 289 290 292 288 284 283 282 279 282 280 282 282 282 281 283 284 280 274 289 291 286 291 293 293
306 306 306 304 302 302 302 303 302 302 302 299 290 297 296 287 284 289 290 291 290 289 285 286 287 291 290 289 286 283 282 281 281 278 283 281 283 280 283 282 289 291 292 295 296 295 293

GFSGBSN_sfc_thetae_057.txt.gz
Theta_e
316 316 316 315 314 313 313 314 314 315 316 317 316 313 312 313 312 311 310 310 309 310 309 309 309 310 304 295 295 308 314 311 309 314 310 305 301 303 301 301 303 300 303 306 308 309 308
316 315 315 315 314 313 313 313 314 314 315 316 315 312 312 311 311 310 310 309 309 309 309 310 309 309 299 289 305 309 309 306 307 311 309 309 303 307 303 301 301 305 306 306 308 307 307
315 315 315 314 314 313 313 312 312 313 314 315 314 313 312 310 309 309 309 309 309 310 309 309 309 305 297 294 305 309 308 305 312 311 305 311 308 304 301 298 303 303 299 301 304 306 305
315 315 314 314 313 313 313 312 312 311 312 313 314 313 311 310 309 309 309 309 309 310 310 310 309 301 291 305 306 306 306 310 313 313 313 314 310 305 299 300 298 295 296 292 299 303 304
314 314 314 314 313 314 313 312 312 311 311 311 312 312 312 311 310 309 310 310 310 310 309 309 300 295 289 306 300 304 306 306 311 313 314 314 308 301 299 293 289 291 286 290 294 301 300
314 314 314 313 312 312 312 312 312 312 311 311 310 310 311 311 310 310 310 310 309 307 305 306 303 290 295 293 301 305 308 308 307 308 306 305 300 294 293 290 285 285 285 290 291 296 297
313 313 313 312 312 313 312 312 312 311 311 310 309 309 310 311 310 310 305 295 291 289 294 290 292 292 295 299 305 304 306 304 306 304 296 300 291 289 290 291 291 290 289 288 291 297 295
312 312 312 312 311 312 312 311 312 311 311 310 309 308 309 310 311 310 300 293 293 294 288 297 296 296 299 300 296 300 306 297 299 295 298 294 288 293 296 295 292 291 287 287 291 295 295
311 312 312 312 311 312 311 311 311 311 311 310 309 308 309 309 310 300 295 295 300 300 287 294 296 296 299 302 296 296 301 300 296 295 294 290 291 297 296 294 290 286 286 285 287 292 292
310 311 311 311 310 311 311 311 310 310 310 310 309 308 309 308 302 297 295 300 301 300 277 288 292 295 300 301 295 303 304 299 296 290 295 294 296 295 294 292 290 284 290 290 289 287 283
310 310 310 310 310 310 310 311 311 310 310 309 309 308 309 307 297 295 298 301 301 293 270 289 292 303 299 295 296 296 306 302 293 294 294 290 292 292 291 292 293 289 292 289 287 285 284
309 309 310 310 310 310 309 309 309 309 309 309 308 308 307 304 303 300 301 301 298 275 268 285 294 291 292 295 297 299 300 303 301 295 294 293 296 294 292 296 294 294 289 288 285 283 276
308 308 309 309 309 309 309 309 309 308 308 307 308 309 306 305 297 302 301 295 276 271 286 282 290 291 292 291 292 294 293 292 289 285 286 291 290 293 295 292 294 290 287 277 275 277 275
307 308 308 309 309 309 308 308 309 308 308 308 308 309 306 305 303 302 296 282 272 280 283 291 293 293 288 292 292 292 291 288 293 289 285 282 282 290 293 290 288 287 287 277 273 274 275
307 307 308 308 308 308 308 308 308 308 308 309 306 298 298 301 303 301 290 273 277 280 290 290 291 288 288 292 289 290 289 288 291 290 282 280 282 292 294 293 292 288 286 285 278 275 272
307 307 307 307 307 307 308 308 308 308 307 307 294 294 296 303 303 300 283 281 281 290 293 291 284 288 284 287 288 288 288 292 292 294 290 286 280 290 293 295 293 290 291 283 277 271 272
307 306 306 306 306 307 307 308 308 308 306 305 294 292 298 302 302 294 277 279 288 294 294 289 286 285 287 286 287 287 288 291 295 295 294 288 284 286 291 289 288 289 289 287 285 279 273
307 305 305 306 306 306 306 307 307 307 306 298 290 285 298 300 292 292 280 287 295 292 293 291 289 288 287 288 287 286 286 288 297 297 290 291 285 283 285 291 294 293 290 289 282 276 276
306 305 305 305 305 305 306 307 307 306 306 293 289 290 300 300 284 282 288 291 293 291 290 289 288 290 289 286 284 287 287 293 296 295 292 292 285 280 282 287 292 290 291 292 288 282 275
306 305 305 305 305 305 305 306 306 306 305 295 289 284 295 298 295 290 286 288 287 293 291 291 289 290 287 285 288 286 286 291 294 293 298 295 284 279 277 280 285 286 289 291 289 282 283
306 305 305 304 305 305 305 305 306 305 303 293 286 284 287 281 289 290 289 290 287 288 291 291 288 288 286 283 284 285 288 289 291 295 290 288 280 280 283 286 285 284 285 289 287 288 284
305 306 305 304 304 304 305 305 305 304 299 287 282 282 286 284 286 285 289 291 288 289 289 287 286 289 287 284 286 284 287 286 286 287 287 287 277 279 276 283 284 282 284 287 289 289 289
306 306 305 304 304 304 304 304 305 304 295 284 285 286 286 285 282 282 285 288 291 291 292 292 289 289 287 289 290 290 290 290 289 287 285 285 280 276 272 280 281 278 282 284 286 288 289
305 306 305 304 303 304 304 305 304 304 296 287 285 285 282 281 281 282 283 285 289 289 288 292 293 289 291 295 293 290 290 289 289 287 289 283 281 277 271 277 268 281 286 287 286 288 289
305 306 305 304 303 303 304 304 304 304 302 289 287 284 280 277 280 281 282 285 289 290 290 291 294 294 295 292 286 284 283 284 285 287 287 288 284 277 272 271 278 281 285 285 284 285 288
306 306 305 304 302 303 304 304 303 304 303 291 288 288 283 278 279 282 280 282 282 283 286 290 296 296 296 289 287 280 277 280 279 284 289 290 289 280 277 276 272 281 288 290 289 281 290
306 306 306 304 302 303 303 303 304 303 303 293 290 289 284 280 282 283 280 279 283 282 283 288 287 290 293 287 283 280 277 282 280 280 283 285 285 278 278 279 280 286 288 292 280 282 291
306 306 306 304 303 303 303 303 303 303 303 293 290 291 286 281 282 285 286 282 283 281 281 285 289 291 288 285 284 282 279 280 279 281 282 281 280 281 283 280 274 287 289 285 289 292 292
306 306 306 304 303 303 303 302 302 302 302 297 292 297 295 289 283 288 289 290 288 287 283 284 285 286 289 289 285 284 282 280 279 277 282 280 283 280 282 281 288 288 291 294 294 293 292

GFSGBSN_sfc_thetae_060.txt.gz
Theta_e
316 316 316 315 314 314 314 313 313 314 315 316 316 314 313 312 312 311 311 310 311 311 310 310 310 310 303 294 294 306 312 313 308 308 309 306 301 298 296 300 301 296 304 306 309 309 308
316 316 316 315 314 314 313 313 312 311 313 315 315 315 312 311 310 310 310 310 310 310 310 310 309 309 298 288 303 308 309 308 306 307 308 309 303 302 299 300 299 301 302 303 308 307 307
316 315 315 314 314 314 313 313 312 312 311 313 314 314 313 312 309 309 309 309 309 310 311 310 310 304 296 292 305 308 307 306 306 304 306 309 307 303 301 298 303 302 298 301 304 305 304
315 315 315 314 314 314 313 313 312 313 312 311 312 313 313 311 310 309 310 310 310 310 311 310 310 300 290 305 306 305 306 304 306 309 310 311 311 305 300 300 299 295 295 293 300 305 306
314 314 314 313 313 313 313 313 312 311 312 312 310 311 312 312 311 310 310 311 310 309 309 309 299 294 289 307 300 304 305 301 309 311 313 313 309 302 300 293 290 294 284 288 295 305 303
314 314 313 312 312 313 313 312 312 312 312 311 311 309 310 311 312 310 311 310 309 306 304 305 302 289 294 294 300 304 308 308 305 306 304 304 302 294 293 291 285 287 284 285 289 298 301
313 313 313 312 312 312 312 313 312 312 311 311 311 310 309 310 311 311 305 294 290 289 296 290 290 291 295 300 304 301 305 304 306 301 293 298 292 289 287 291 290 289 287 287 290 296 295
313 313 312 312 311 311 312 312 311 311 311 311 311 310 309 309 309 311 298 292 291 294 290 297 296 295 298 301 295 300 306 298 299 291 294 294 288 293 295 294 291 290 287 285 290 295 295
313 312 312 311 311 311 311 311 311 311 310 310 310 309 308 310 309 300 294 294 300 298 289 293 296 296 297 301 296 296 301 298 295 293 292 290 290 296 295 291 289 286 286 285 286 290 291
312 312 311 311 311 310 311 310 310 309 310 309 309 308 308 309 302 296 294 299 300 298 276 287 291 294 299 300 293 302 303 297 295 293 295 293 296 294 294 290 290 285 290 289 288 287 282
312 311 310 310 311 310 310 310 310 309 309 308 307 308 309 308 296 294 297 300 299 292 267 287 291 302 299 295 294 296 304 300 292 293 293 290 291 291 290 291 293 288 290 288 287 284 281
311 310 310 310 310 310 310 310 309 309 309 308 308 308 308 305 303 299 300 300 294 275 270 286 294 291 292 296 296 298 299 303 301 294 294 292 295 293 291 295 293 292 288 287 284 282 274
310 309 309 309 309 309 309 309 309 309 309 308 308 309 306 304 296 301 300 293 275 271 284 285 289 291 290 291 292 292 291 290 289 285 286 292 291 292 294 293 293 289 288 278 277 275 274
310 308 308 308 308 308 308 309 309 309 308 307 308 308 306 304 302 301 295 282 271 279 282 291 293 291 286 291 291 292 289 288 292 290 285 282 283 289 292 289 288 285 286 277 272 274 275
309 308 308 307 308 308 308 308 308 308 307 307 305 297 298 300 304 301 291 272 274 279 289 290 291 288 289 291 289 290 289 289 292 290 284 280 283 293 294 292 291 286 282 284 277 274 271
309 308 307 306 307 307 307 307 308 308 306 307 293 293 296 302 304 300 283 281 280 288 292 291 283 288 283 288 285 287 287 292 292 292 289 284 281 291 293 293 292 288 289 281 281 270 271
308 308 306 306 306 306 306 307 307 307 306 304 293 291 297 301 302 293 277 280 286 292 293 288 285 286 285 287 287 285 286 290 294 291 291 287 283 286 291 289 289 290 287 285 283 278 272
308 307 306 305 305 306 306 307 307 306 306 297 290 286 298 299 292 291 279 286 294 291 292 290 288 287 286 287 286 284 285 287 295 294 287 288 285 283 286 293 294 289 290 288 283 276 275
308 307 305 305 305 305 305 306 306 306 305 292 287 292 300 299 284 281 286 290 292 290 290 288 287 289 288 288 283 285 287 292 296 292 289 289 281 280 282 287 291 290 290 290 289 284 273
308 306 305 304 304 304 305 305 306 304 305 294 288 283 296 298 295 286 284 287 286 292 290 290 288 289 286 285 286 285 285 290 294 295 299 294 283 279 276 279 284 285 288 290 288 283 282
307 306 306 304 303 304 305 305 305 302 304 292 285 284 286 282 289 285 286 288 286 286 290 290 287 287 285 282 284 284 287 288 291 297 293 292 280 279 282 283 285 284 285 288 287 288 284
307 307 305 304 303 304 304 305 305 302 298 286 282 283 284 283 284 282 288 286 290 289 290 287 286 288 286 283 285 284 286 285 286 288 287 286 280 279 276 283 283 282 284 285 287 289 289
307 307 305 304 304 305 305 304 305 302 293 283 283 285 285 283 281 281 282 285 289 291 292 292 289 288 286 287 289 288 289 289 288 287 286 286 282 276 272 279 280 277 282 283 284 287 288
307 306 305 304 303 304 304 304 304 302 294 287 284 284 282 281 281 281 282 284 288 289 288 293 293 288 290 294 291 290 289 288 288 286 288 282 280 277 271 275 267 280 284 286 285 287 288
307 306 305 304 304 304 304 304 304 303 299 288 286 283 280 277 280 280 281 283 288 290 291 289 293 293 296 291 287 284 283 283 284 286 286 286 282 276 272 271 278 280 284 284 283 284 287
307 306 305 304 303 304 304 304 303 304 301 290 287 286 282 278 278 281 279 280 280 280 287 288 293 291 295 290 287 281 278 279 279 282 289 290 288 280 277 272 272 279 285 289 288 279 289
307 306 305 304 303 303 303 303 303 303 301 292 288 288 284 280 281 282 279 278 281 279 279 286 286 289 290 286 283 281 277 281 279 279 283 285 285 279 278 275 279 285 287 289 278 281 290
307 306 305 304 303 304 303 303 303 302 300 293 289 292 286 281 281 284 285 281 282 280 278 284 287 289 290 285 285 283 278 279 278 280 280 281 280 278 280 277 273 287 287 283 287 290 291
307 307 305 303 303 303 303 302 302 302 301 295 288 297 292 288 283 286 288 288 287 286 282 281 285 287 288 287 284 282 282 279 278 276 280 279 282 280 282 281 287 287 290 292 293 292 291

GFSGBSN_sfc_thetae_063.txt.gz
Theta_e
317 317 316 316 315 315 315 314 313 313 313 314 315 316 314 313 311 311 312 311 311 311 310 311 311 310 304 295 295 306 313 314 310 311 309 306 302 302 299 302 303 300 304 305 309 309 308
317 317 316 315 315 314 314 314 314 313 312 312 313 314 314 312 311 310 310 311 310 310 311 310 310 309 299 287 303 308 308 307 306 308 308 309 303 303 302 302 301 303 304 305 307 307 307
317 316 316 315 314 314 314 313 312 313 313 313 311 312 313 313 311 310 310 311 311 311 311 310 310 304 296 291 304 307 306 306 306 304 305 309 309 303 303 301 304 303 299 301 304 306 305
317 316 315 314 314 314 313 313 313 312 313 313 313 310 311 312 312 310 311 311 311 311 310 309 309 300 290 303 306 305 305 303 306 307 306 312 312 305 302 303 300 297 298 294 301 304 305
317 316 315 314 313 313 313 314 313 313 312 313 312 310 310 311 312 312 311 311 312 310 309 308 299 296 290 306 301 303 304 299 303 308 311 311 309 303 300 296 293 295 290 291 295 304 304
317 315 315 314 313 312 312 313 313 313 312 313 312 311 309 309 311 311 312 311 309 306 303 305 302 290 295 294 301 303 305 304 304 305 303 305 302 295 294 294 285 288 289 291 293 300 302
317 315 314 313 313 312 312 313 312 312 312 312 312 311 309 309 309 310 304 294 290 289 295 290 291 291 295 301 304 302 305 304 305 301 293 297 293 290 292 292 292 291 290 290 293 300 299
317 314 313 313 312 312 312 311 311 312 311 311 311 310 308 308 309 309 298 291 291 293 289 296 295 295 298 302 295 300 307 299 297 291 294 292 289 293 295 294 292 292 289 289 293 297 298
317 314 313 312 312 312 311 312 311 310 310 310 309 308 307 309 308 300 294 294 300 298 288 293 296 295 297 301 295 296 301 299 295 290 291 290 292 296 295 292 290 289 288 287 289 293 295
316 314 312 312 312 312 311 311 311 310 310 309 308 307 307 309 300 295 293 299 300 297 276 284 291 295 299 300 293 302 303 299 295 289 292 292 296 295 293 291 291 287 291 290 289 289 285
316 313 311 311 311 311 311 310 310 309 309 308 308 307 307 308 295 294 297 299 299 291 269 287 291 302 300 294 294 296 304 301 290 292 294 290 292 293 291 292 293 289 292 290 289 287 286
316 312 311 310 310 310 310 310 309 309 309 308 308 308 308 305 302 298 299 299 293 275 271 284 294 291 293 296 295 297 299 303 301 295 295 293 296 295 294 295 293 292 289 288 286 285 281
315 312 310 310 310 310 309 309 309 308 308 308 308 308 305 303 295 301 300 292 275 271 283 286 288 290 290 290 291 293 292 292 289 285 286 292 291 294 295 292 294 291 287 280 278 277 278
314 311 310 309 309 309 308 308 309 308 308 307 307 307 305 303 301 300 296 283 271 278 283 291 292 291 286 290 291 292 289 289 293 291 287 285 283 290 293 291 289 289 287 279 274 275 278
313 311 309 309 308 308 308 308 308 308 308 307 305 296 297 299 304 302 291 271 275 279 290 290 290 285 286 290 289 290 289 290 291 291 285 281 284 293 294 293 292 288 285 286 279 277 276
312 310 309 308 307 307 307 307 308 308 307 306 293 293 295 300 304 299 286 280 280 287 291 291 285 287 282 287 286 288 288 292 292 293 291 286 283 291 293 294 293 290 290 282 282 273 274
312 310 309 308 306 306 306 307 307 307 306 304 293 290 298 300 303 294 276 278 285 291 292 288 285 287 284 284 287 285 287 292 294 292 291 287 285 287 292 289 289 289 286 286 284 281 276
311 309 308 307 306 305 305 306 307 307 305 297 290 288 300 298 292 291 280 285 293 290 292 290 290 290 287 289 286 285 286 289 296 294 288 288 285 283 286 293 295 292 289 287 280 277 278
310 309 308 306 305 304 305 305 306 306 304 291 287 293 301 298 285 281 285 289 291 289 289 288 288 291 289 290 283 285 287 292 295 292 289 289 282 279 282 287 291 289 290 291 287 284 276
310 309 307 306 305 304 304 305 306 304 304 293 288 284 295 297 295 290 284 285 285 291 290 289 287 289 289 287 287 285 285 291 294 296 298 293 283 280 277 280 285 285 288 290 288 284 283
309 308 307 306 304 304 304 304 305 302 305 291 285 283 285 285 289 283 284 287 286 285 289 289 286 287 285 283 285 284 286 287 291 298 293 291 279 279 283 284 286 285 286 288 286 287 283
309 308 307 305 304 304 304 304 304 300 299 286 283 283 283 282 283 281 285 285 289 290 291 287 285 287 286 283 285 284 286 285 286 287 289 288 279 280 278 284 284 283 284 286 288 289 288
308 308 306 305 305 305 304 304 303 300 294 283 282 284 285 282 281 282 282 284 289 290 293 293 289 287 285 287 289 288 289 289 289 287 285 285 282 277 275 280 280 278 282 283 285 287 288
308 307 306 305 305 304 304 304 303 300 293 286 284 283 283 280 281 282 281 283 288 288 289 292 293 287 290 293 290 289 289 288 288 286 287 282 282 279 276 277 269 281 285 286 285 286 288
308 307 306 305 305 305 304 304 303 300 298 287 285 283 279 277 280 279 280 282 286 288 290 291 294 293 293 291 286 284 284 285 285 286 285 285 282 278 274 272 277 281 285 283 283 284 287
308 307 306 305 305 304 304 303 303 302 299 288 286 285 281 278 277 281 278 279 278 282 286 287 292 294 294 289 287 279 278 280 279 283 288 289 288 282 277 273 272 280 285 289 288 281 289
308 306 305 305 305 304 304 303 303 302 300 290 288 287 284 280 280 280 278 278 280 278 279 284 283 290 292 286 283 281 277 282 279 280 283 284 284 279 279 276 279 284 286 289 279 282 290
308 307 305 304 304 304 303 303 302 301 300 292 288 290 286 280 281 283 285 279 281 279 278 281 287 289 290 284 285 282 278 279 279 280 280 281 280 279 280 278 273 287 287 285 288 291 292
308 307 305 304 304 304 303 303 303 302 300 295 287 294 292 284 283 286 286 286 286 285 281 280 283 287 288 286 285 282 281 279 277 276 280 280 282 280 281 281 287 286 288 290 291 291 291

GFSGBSN_sfc_thetae_066.txt.gz
Theta_e
320 318 317 316 316 315 314 315 314 314 314 314 313 313 315 314 312 310 311 312 311 311 311 311 311 310 305 296 297 308 312 316 314 311 307 308 306 305 301 304 306 303 308 309 310 311 310
320 318 317 316 315 315 314 314 314 314 314 314 313 312 313 313 312 310 310 310 311 311 311 311 310 308 300 289 305 309 307 308 310 308 306 309 306 307 304 304 305 307 306 308 309 309 309
321 318 317 316 315 315 314 314 314 314 313 314 313 312 311 312 313 311 310 311 311 311 312 312 310 307 298 293 306 309 307 307 308 308 304 310 310 306 307 303 308 307 302 305 307 308 308
321 319 317 316 315 314 314 314 314 314 314 314 314 313 311 311 312 312 311 311 311 312 311 309 309 304 292 304 309 306 307 305 307 309 307 312 312 308 306 308 306 303 303 296 305 307 308
322 320 317 316 315 313 313 313 314 314 313 314 313 313 311 310 311 311 312 312 312 311 310 309 303 300 292 307 302 305 306 301 305 308 309 310 310 305 305 300 297 299 293 296 299 308 306
323 320 317 315 314 314 313 312 313 313 313 313 313 312 311 310 310 310 311 311 308 308 307 307 304 296 297 295 301 304 306 306 303 304 303 301 303 300 300 297 288 291 292 295 296 303 304
323 320 317 315 314 313 313 313 312 311 312 312 312 311 310 309 310 310 309 303 298 296 298 296 296 295 297 301 303 299 305 304 304 300 293 295 294 292 295 298 296 296 294 293 298 303 302
323 320 317 315 314 313 313 312 312 311 312 311 311 309 309 308 310 308 305 298 297 299 293 299 298 299 302 302 296 299 308 299 298 292 295 291 291 297 300 298 297 296 294 294 297 302 302
323 320 317 314 314 313 312 312 311 311 311 311 310 309 308 308 309 307 301 298 305 303 294 295 299 298 299 302 296 298 303 301 296 292 291 289 294 300 298 296 294 295 293 294 294 300 301
323 320 317 314 313 312 312 312 311 310 310 310 310 308 308 308 303 303 300 303 306 303 289 290 294 297 301 301 294 303 304 299 296 291 292 293 299 297 295 294 295 290 297 297 295 294 289
322 319 316 313 312 311 311 310 310 310 310 309 308 308 308 308 303 300 301 305 305 300 280 291 295 303 301 296 297 298 306 301 293 292 292 291 295 295 294 294 297 292 297 296 295 293 292
322 318 315 313 312 311 311 310 309 309 308 309 308 308 308 305 305 304 305 305 302 286 278 288 295 292 294 296 295 299 300 303 300 294 294 294 299 298 297 297 297 296 295 295 294 293 285
321 318 314 313 311 310 310 309 309 309 308 308 308 309 306 307 302 306 306 300 287 283 287 287 289 293 293 291 292 294 294 292 290 285 286 292 293 297 298 294 296 296 293 284 283 283 283
320 317 314 312 311 310 309 308 308 308 308 307 307 307 307 306 307 306 301 292 283 285 287 294 292 293 289 291 291 292 292 290 294 292 289 286 285 294 296 295 293 294 293 286 278 280 284
319 316 313 311 310 309 308 307 307 307 307 307 306 306 306 306 306 304 295 287 286 287 292 291 292 289 290 291 292 291 290 290 294 296 289 287 285 295 295 297 296 292 289 291 285 284 284
318 315 312 311 310 308 307 307 307 307 307 306 304 302 303 306 306 302 291 286 288 290 295 294 288 291 287 290 289 289 290 294 293 295 295 291 284 292 294 297 297 295 295 287 290 280 278
317 314 312 310 309 308 307 306 306 306 305 305 302 298 303 306 304 296 288 288 290 294 295 292 290 290 290 289 290 289 289 293 296 294 295 293 291 288 294 291 291 292 290 291 291 288 283
316 313 311 310 308 307 306 305 306 305 305 304 301 293 303 306 293 293 291 290 294 295 297 294 294 292 292 292 291 290 290 293 298 296 291 293 291 284 288 294 295 296 293 293 286 284 286
315 312 311 309 308 306 306 305 305 305 304 300 298 296 303 302 287 289 292 292 295 294 294 292 292 293 293 292 289 291 292 295 298 295 292 294 289 282 283 288 292 290 292 293 292 290 285
314 312 310 308 307 306 305 305 305 303 305 302 297 290 296 297 297 291 291 291 290 296 294 293 292 294 292 290 292 290 291 294 298 298 297 296 289 287 284 286 291 287 290 292 290 285 285
313 311 309 308 306 306 305 305 304 302 306 301 295 293 293 288 291 292 292 291 290 290 294 294 291 292 291 289 289 289 291 293 295 298 297 295 287 286 287 289 290 289 289 290 288 289 285
312 310 309 307 306 306 305 305 303 303 302 296 291 292 292 291 290 291 291 291 290 292 293 291 290 291 292 289 291 289 292 292 292 294 294 293 286 286 284 287 288 286 290 291 291 291 290
312 309 308 307 306 306 305 305 301 303 298 293 291 293 295 287 289 290 291 290 291 292 295 295 293 292 291 292 294 295 296 296 296 294 292 292 288 286 283 284 285 282 287 289 290 292 292
310 309 307 307 306 306 305 304 302 301 297 295 293 295 292 286 289 290 286 287 290 291 292 295 297 293 296 300 295 296 295 294 295 292 295 290 289 287 283 282 278 285 289 290 289 290 292
310 308 307 307 306 305 305 303 302 300 297 294 292 291 291 286 288 284 285 287 289 292 293 294 296 296 297 296 292 289 289 289 290 291 291 293 290 284 283 282 285 287 289 289 287 289 293
310 309 307 306 306 305 305 304 301 300 298 294 292 292 290 287 284 286 285 285 288 287 291 291 295 296 298 295 291 284 283 285 285 287 291 291 292 288 284 279 277 286 291 294 293 286 295
309 308 306 306 306 305 304 304 303 301 299 296 293 293 293 286 287 286 285 285 286 285 288 290 287 293 296 292 287 285 284 287 284 284 285 286 287 284 284 282 285 291 291 294 284 287 296
309 308 306 306 305 305 304 304 302 302 299 296 293 295 293 287 287 288 288 286 286 286 287 286 290 291 289 289 289 288 286 287 286 287 287 286 285 284 285 281 279 292 292 289 293 296 296
308 307 307 306 305 304 304 303 302 301 300 298 293 296 295 291 288 291 290 291 290 289 288 287 287 287 288 287 289 289 287 286 285 283 288 284 289 287 288 287 292 293 294 295 295 295 296

GFSGBSN_sfc_thetae_069.txt.gz
Theta_e
324 321 319 318 317 316 315 315 314 314 314 314 315 314 313 313 315 313 311 311 312 311 311 312 312 312 307 297 297 309 311 316 313 312 308 308 306 305 300 306 307 307 307 310 311 311 311
325 322 320 318 317 316 316 315 314 314 314 315 315 314 312 312 313 314 312 311 312 312 312 312 312 311 303 291 305 309 308 310 310 309 307 308 307 308 303 305 305 307 305 308 310 310 310
326 324 321 318 317 316 315 315 315 314 314 315 315 314 313 312 311 313 313 312 312 312 312 312 311 308 300 296 306 310 308 307 310 308 304 308 311 306 306 302 309 305 300 302 306 309 307
327 325 322 319 317 316 314 314 314 314 314 314 314 313 313 312 311 311 312 313 312 312 312 310 310 305 296 305 309 306 308 305 309 310 307 308 310 310 306 307 306 301 300 293 303 307 308
328 326 323 320 317 316 315 314 314 314 314 314 313 313 312 311 311 311 311 312 313 312 312 310 306 302 294 306 302 307 307 302 306 308 308 309 309 305 306 300 296 300 292 294 297 304 306
330 327 324 320 318 316 315 314 314 313 312 312 312 312 311 311 310 310 310 312 311 310 309 307 305 297 299 294 300 304 307 305 302 304 302 301 302 300 300 297 287 290 291 295 296 300 304
329 328 324 320 318 316 315 314 313 313 312 312 312 311 310 310 309 311 309 307 300 298 301 297 298 297 299 300 303 300 305 303 303 299 290 295 293 292 296 298 297 296 294 294 299 303 302
330 328 324 320 318 316 314 314 313 313 312 311 311 310 309 309 309 310 308 300 300 302 295 301 301 301 303 303 294 299 306 297 296 292 293 292 291 297 299 299 297 296 294 294 298 302 301
330 328 324 321 317 316 314 313 313 312 311 310 310 309 309 309 309 308 304 300 307 305 296 297 300 300 299 303 296 298 302 300 295 292 292 290 295 299 298 296 295 295 293 293 294 299 302
329 327 324 320 317 315 314 313 312 311 310 310 309 308 309 308 304 306 301 304 308 306 290 291 294 298 302 302 295 304 305 300 296 292 295 293 299 297 296 294 296 291 297 297 296 296 290
329 327 323 320 317 315 313 312 311 310 310 309 309 307 309 307 306 302 304 307 307 303 280 293 296 305 302 297 297 299 308 301 294 294 295 292 295 295 294 295 298 294 299 297 297 294 293
328 326 323 319 316 314 312 312 310 310 309 309 308 308 308 306 307 306 307 307 304 287 279 288 296 294 294 296 297 300 300 304 301 295 296 295 300 299 297 299 298 299 296 295 295 292 285
327 325 321 318 315 313 312 311 309 309 308 308 308 308 307 308 302 309 308 302 286 284 290 288 290 294 293 291 293 295 294 293 291 285 286 293 294 299 300 295 298 297 293 285 283 284 283
326 324 321 318 315 313 312 310 309 308 307 307 307 308 307 308 310 308 305 293 283 287 289 295 294 294 290 292 292 293 293 291 294 291 289 287 284 295 298 296 292 294 292 286 279 281 284
325 322 319 317 314 312 311 310 308 308 306 306 308 308 307 308 309 308 297 286 288 290 294 292 293 290 290 292 292 291 291 292 294 293 289 288 286 296 297 298 298 293 290 294 287 288 285
324 322 318 316 313 312 311 309 308 307 306 307 305 305 304 309 308 304 292 288 290 294 296 295 289 292 287 291 289 289 290 295 294 298 298 293 285 293 295 299 298 296 297 287 289 280 279
318 321 318 315 313 311 310 309 308 307 306 307 305 298 305 308 306 297 288 291 293 297 298 294 291 291 291 290 291 290 290 294 297 296 297 296 291 289 295 293 292 293 291 292 292 289 283
316 320 317 314 312 310 309 308 308 307 306 304 303 293 305 306 294 295 291 293 296 297 298 296 296 294 293 293 291 291 290 293 299 297 292 295 292 285 289 296 298 296 293 292 286 284 287
313 319 316 313 311 309 308 307 307 307 307 305 299 296 304 302 287 289 295 294 296 295 295 294 294 295 296 293 290 293 293 297 300 297 294 295 291 283 285 290 294 292 294 294 293 292 286
315 318 315 312 310 308 307 307 307 307 306 305 300 290 296 297 298 293 292 293 293 298 296 295 294 296 294 293 294 292 293 296 299 298 298 298 292 289 285 288 292 288 291 293 292 286 287
311 316 314 312 309 308 307 307 306 306 305 304 300 296 297 289 291 293 295 294 292 291 296 296 293 294 293 290 292 291 294 295 298 298 297 296 289 288 289 291 291 290 290 291 289 290 286
311 315 313 311 308 307 307 306 306 304 307 301 295 294 296 296 295 293 293 293 292 293 294 292 291 293 294 291 293 291 294 295 293 296 296 296 288 288 286 289 289 288 291 292 291 291 290
311 314 312 310 308 307 306 306 304 307 305 299 297 297 298 293 294 293 293 294 293 296 296 297 295 294 292 294 296 297 299 298 298 296 294 294 290 287 284 287 286 283 288 290 291 293 293
314 313 311 309 307 307 306 306 304 307 303 299 298 298 294 289 292 293 292 293 294 294 294 297 298 295 297 301 299 299 298 297 297 296 298 293 291 290 285 284 278 287 291 291 290 292 293
307 311 310 308 307 306 306 304 303 306 301 298 297 296 295 289 292 290 290 292 293 295 295 296 297 298 301 297 293 290 290 291 292 294 294 296 292 287 284 283 287 288 289 290 288 290 295
309 311 309 307 306 306 305 304 303 303 301 298 297 297 295 291 289 291 290 292 292 293 294 294 297 301 300 295 292 284 283 287 286 288 293 293 294 288 285 280 278 289 293 296 295 286 296
312 310 308 307 306 306 304 303 302 301 300 299 296 297 297 289 289 289 289 290 290 291 293 294 293 296 299 293 288 286 285 289 284 284 285 287 288 285 284 282 286 292 293 296 284 287 296
310 309 308 307 306 306 305 303 302 301 301 300 295 298 297 290 289 291 291 289 288 290 291 289 293 293 292 288 288 289 287 288 287 289 288 286 284 284 286 282 279 295 293 289 293 297 297
309 308 307 307 306 305 305 304 303 301 300 301 294 297 299 293 289 293 292 293 292 291 291 292 290 289 289 288 291 292 288 289 288 283 291 285 290 287 288 287 294 296 295 297 297 296 296

GFSGBSN_sfc_thetae_072.txt.gz
Theta_e
328 327 324 321 319 318 317 316 316 315 315 315 316 316 315 314 313 313 315 312 312 312 312 312 313 313 307 297 296 308 311 316 314 309 304 305 304 304 299 302 304 302 304 308 311 311 310
330 329 326 323 320 318 317 316 316 316 315 315 315 315 315 314 313 312 313 314 312 312 312 313 313 312 302 291 304 308 308 309 309 308 303 306 305 307 303 301 302 301 305 308 309 309 309
331 330 328 324 321 319 318 316 315 315 315 315 315 315 314 314 313 312 312 313 314 312 312 313 312 307 299 296 305 308 307 307 309 307 302 307 306 305 305 300 307 304 298 305 306 307 306
331 331 330 326 323 319 318 316 315 314 315 315 315 314 313 313 313 312 311 312 312 313 313 313 311 305 295 306 306 306 307 305 309 308 305 307 307 306 304 306 304 298 298 294 303 305 305
331 332 331 326 324 320 318 317 315 314 314 313 313 313 313 311 311 311 310 312 312 313 312 312 305 302 293 306 302 306 307 302 306 306 306 307 306 303 304 298 295 297 288 292 297 305 304
331 331 330 327 324 321 319 317 316 314 314 313 313 312 311 310 310 309 311 312 312 310 309 308 305 296 299 296 301 302 306 305 302 302 301 299 301 297 298 295 286 289 291 291 292 299 301
330 331 329 328 324 321 319 317 316 314 314 313 312 311 311 310 309 309 310 307 300 297 300 296 297 297 300 300 303 300 304 302 302 297 289 294 291 291 295 296 296 293 293 292 296 301 298
329 330 329 328 324 321 319 317 315 314 313 312 311 311 310 309 309 310 307 300 300 301 293 301 300 301 303 301 295 298 305 296 295 290 293 292 289 296 299 298 296 294 292 292 297 301 297
324 329 329 329 324 322 318 317 315 314 313 311 311 309 309 309 309 307 304 301 308 305 294 297 300 299 299 302 295 296 301 298 294 291 292 290 294 299 297 296 293 292 291 292 293 298 300
321 322 328 328 325 321 318 316 314 313 312 310 310 309 308 309 303 306 301 305 308 306 288 291 295 298 302 301 295 304 304 300 296 292 293 293 298 296 294 294 294 289 296 296 295 292 287
320 321 325 327 324 321 318 315 314 312 311 310 309 308 308 308 304 301 304 307 307 303 277 293 295 305 303 296 297 298 307 301 294 294 294 291 295 295 293 294 297 293 298 296 296 292 290
318 320 320 326 324 320 317 315 313 312 310 309 308 308 309 305 306 307 308 307 304 285 274 288 296 295 294 296 297 300 300 304 302 295 295 294 301 298 295 298 298 298 296 294 293 290 281
316 317 319 320 323 320 316 314 313 311 309 307 307 308 307 308 302 309 307 302 286 281 291 287 290 294 292 291 293 295 294 292 290 284 285 292 294 298 299 293 297 295 290 281 278 277 277
315 316 317 315 322 319 316 313 312 310 309 307 307 308 307 308 309 309 305 292 281 287 288 294 294 293 289 292 291 292 291 289 294 292 288 285 283 294 297 294 290 291 289 281 275 276 279
314 315 315 315 321 318 315 313 311 310 308 307 308 306 306 308 309 307 297 285 286 289 293 291 293 289 288 291 292 291 291 291 292 294 288 286 286 296 297 298 296 290 285 290 284 282 278
311 314 314 315 320 317 315 313 311 309 308 308 304 303 303 309 309 303 292 288 289 295 296 294 288 292 287 289 288 289 289 294 293 296 296 292 284 293 295 298 297 294 294 283 283 274 275
311 313 313 313 319 316 314 312 310 309 308 308 303 297 304 309 307 297 287 289 294 297 298 294 291 291 291 289 290 288 289 293 296 296 295 293 288 289 293 291 290 291 288 289 288 284 276
308 308 312 314 314 315 313 311 310 309 307 305 302 292 305 306 293 295 289 294 296 296 298 296 295 294 292 293 290 290 289 293 298 297 290 294 290 284 287 295 297 294 290 289 282 280 281
307 308 310 311 315 313 311 310 309 309 308 304 297 295 303 303 287 288 293 294 296 295 295 294 294 295 296 293 289 292 293 298 298 296 293 292 287 281 281 287 292 289 292 293 291 288 281
306 306 308 310 314 312 310 309 309 308 309 305 297 289 295 297 296 291 291 291 292 298 296 296 295 296 293 292 294 290 291 295 299 297 299 296 290 285 282 284 289 285 289 292 289 281 284
305 305 307 308 314 311 309 308 308 309 309 303 299 293 294 287 289 291 294 293 291 291 296 296 293 294 292 290 290 290 293 294 297 297 295 294 285 282 287 290 290 288 288 289 286 288 282
304 305 305 307 313 310 308 308 308 309 308 300 294 293 295 293 294 291 292 291 291 293 293 291 291 294 293 291 291 290 292 292 291 294 294 295 283 284 281 287 287 283 288 289 290 290 289
303 304 304 312 312 309 308 307 308 308 306 298 296 297 295 293 292 290 291 293 293 295 296 297 294 292 292 292 293 294 296 296 296 293 291 292 287 282 280 284 283 279 285 287 289 290 289
302 304 304 305 311 309 307 307 308 307 307 299 296 297 292 287 290 291 293 294 294 295 293 296 297 293 296 299 296 295 293 294 295 293 296 291 289 285 279 279 270 285 289 290 289 291 292
302 304 303 305 307 308 307 307 306 307 308 298 297 296 292 287 290 291 292 293 293 294 295 295 296 296 299 295 290 287 287 287 290 291 290 293 291 284 279 278 283 284 287 287 286 286 292
302 303 304 306 307 308 307 307 305 308 305 297 296 295 292 289 285 291 290 292 289 290 292 293 296 299 297 293 289 283 279 283 283 286 291 292 292 285 282 276 275 285 290 293 291 282 293
302 302 303 309 309 307 306 306 304 307 305 298 295 296 294 286 287 288 287 287 289 290 290 292 293 294 296 290 285 283 282 287 282 282 283 284 284 280 281 279 282 289 291 293 278 284 293
301 302 306 309 307 306 305 304 304 306 303 299 294 297 294 287 287 290 291 287 287 287 287 287 291 291 290 287 287 284 283 284 282 286 284 283 280 281 282 279 275 290 289 284 289 293 293
301 302 303 307 307 306 304 304 303 302 302 301 292 297 296 290 287 291 291 291 290 290 288 290 289 288 290 288 287 287 283 284 283 280 287 281 286 284 285 283 291 291 292 292 292 290 290

GFSGBSN_sfc_thetae_075.txt.gz
Theta_e
332 331 330 328 325 322 320 319 318 317 316 316 316 316 316 316 315 314 313 314 315 312 312 313 313 313 307 297 296 308 312 314 313 310 304 302 302 303 298 300 304 303 305 308 309 311 309
332 332 331 330 326 323 321 319 318 317 316 316 316 316 315 315 314 314 313 312 314 314 312 313 313 312 302 291 302 307 306 310 309 307 303 304 303 305 302 300 301 303 304 305 309 309 310
332 332 331 331 329 324 322 320 318 316 316 315 316 316 314 314 314 313 312 311 313 314 314 313 313 307 299 296 303 307 307 308 308 307 301 305 305 303 304 299 304 304 299 304 306 307 306
330 331 331 331 331 325 322 320 318 317 316 315 314 313 313 313 312 311 311 310 312 312 313 314 312 304 294 306 304 307 306 307 309 307 305 305 305 303 303 305 302 298 298 290 300 305 306
328 329 330 330 331 327 323 320 319 317 316 315 314 313 313 312 311 310 310 310 312 312 313 312 305 301 294 307 302 305 305 302 306 305 305 306 304 302 303 296 294 295 287 288 293 305 304
322 327 327 328 329 328 325 322 319 317 316 315 314 313 312 311 310 309 310 311 312 311 308 307 305 296 299 297 302 303 304 303 302 301 300 300 299 296 296 294 285 289 288 290 289 299 302
319 321 324 324 328 328 326 322 320 317 316 314 313 312 311 310 309 309 307 302 296 294 297 294 296 297 298 301 303 300 302 302 301 297 291 295 290 289 291 295 295 293 293 290 294 300 298
318 319 320 322 323 326 326 323 320 317 316 314 313 311 310 310 309 309 305 297 297 298 290 300 300 300 303 301 294 298 304 296 295 290 292 291 288 294 298 298 296 294 291 292 296 299 298
314 317 318 319 321 322 326 323 320 317 315 314 312 311 309 308 309 305 300 300 304 302 290 297 300 299 299 301 294 295 300 298 294 290 292 289 292 297 296 296 293 292 290 291 293 298 299
312 314 316 318 319 320 324 323 319 317 314 313 311 309 309 308 302 303 298 304 304 302 284 291 295 298 301 301 294 304 304 299 295 290 294 292 297 296 294 293 294 288 296 296 294 291 286
311 312 315 316 318 319 318 322 319 316 314 312 310 309 308 308 300 299 302 303 302 298 268 292 295 305 303 295 296 297 307 301 293 294 293 290 295 294 293 294 296 292 297 296 294 292 289
310 310 313 315 316 318 317 322 318 315 313 311 309 308 308 304 303 305 303 302 299 280 267 285 296 294 294 296 296 299 300 302 302 295 296 295 300 297 296 297 297 297 293 292 292 289 278
310 310 311 312 315 317 317 319 317 314 312 310 308 308 307 307 300 304 302 297 283 271 288 284 290 293 292 291 293 295 293 291 287 283 286 290 293 297 298 291 295 293 287 278 278 275 277
309 309 309 311 313 316 316 318 316 314 311 309 308 309 307 307 306 304 299 289 273 284 286 294 292 292 286 292 291 293 291 286 292 288 284 283 281 293 296 292 288 288 287 280 275 275 277
308 309 308 309 311 315 316 317 315 313 310 308 309 303 303 304 306 302 295 277 284 284 292 291 292 288 286 290 291 291 289 288 290 292 284 285 284 295 296 296 293 288 281 288 282 280 276
307 308 307 308 310 312 313 317 314 311 309 308 300 300 302 306 305 299 290 284 284 294 295 293 287 289 286 287 286 289 288 292 291 294 293 289 283 292 294 297 295 291 291 281 278 273 274
306 307 308 308 308 311 311 313 313 310 309 309 300 294 302 306 302 295 285 286 292 296 296 292 290 289 287 286 288 287 289 291 294 293 293 293 286 288 292 290 289 289 286 287 285 281 275
307 306 308 307 308 309 311 311 312 309 308 306 298 291 303 303 290 291 286 291 296 294 296 294 292 292 289 289 286 288 287 291 297 294 288 294 286 284 286 292 295 292 290 289 279 278 278
305 305 307 307 306 308 309 311 311 309 308 301 294 294 303 301 282 286 291 293 294 294 293 293 292 293 294 290 287 291 292 296 297 294 289 290 283 280 283 287 289 289 291 292 289 285 277
304 305 307 306 305 308 308 312 310 308 308 303 294 288 294 296 292 289 287 290 290 296 296 294 294 293 292 290 292 288 291 295 298 296 299 295 287 281 276 281 286 284 289 290 287 276 283
305 306 306 305 304 306 306 310 310 309 308 303 295 289 291 286 287 289 290 290 291 289 294 293 290 291 289 286 288 289 292 294 297 298 293 291 282 281 286 288 288 286 287 288 284 286 282
305 306 306 305 304 305 307 310 309 309 308 299 292 291 291 288 289 287 289 289 290 291 291 289 288 291 293 289 288 287 290 292 291 292 290 292 280 283 280 286 285 283 287 287 288 288 288
305 305 305 305 303 304 311 309 309 308 307 295 294 294 292 291 287 285 286 289 291 293 294 294 291 290 290 291 292 291 295 294 295 290 289 289 284 279 276 283 281 278 283 286 287 289 289
305 305 304 304 303 305 309 309 308 308 306 296 294 294 289 286 287 288 291 292 292 293 291 294 294 291 294 296 294 293 293 293 293 291 296 289 287 282 277 278 271 283 286 288 288 289 290
304 304 304 304 303 304 305 308 308 307 308 295 294 293 289 285 288 289 290 291 291 293 292 293 293 293 296 292 287 285 285 286 288 290 290 295 291 285 276 274 280 282 286 285 283 285 290
303 304 303 303 303 304 305 308 308 307 307 295 293 293 290 287 283 285 288 289 286 286 289 291 295 297 295 290 287 279 278 281 282 284 289 291 292 284 280 274 275 283 288 292 290 281 291
303 303 303 302 303 307 309 308 307 307 307 296 292 294 290 284 285 286 285 286 288 287 286 289 290 291 293 286 283 280 278 285 280 280 281 282 284 281 280 276 281 288 289 291 278 281 291
303 303 303 302 306 309 308 307 306 305 307 296 292 295 290 284 285 287 288 285 285 286 285 286 288 289 287 284 283 282 281 283 281 283 282 281 279 278 279 276 274 288 288 283 287 289 289
302 302 302 302 302 306 307 306 305 305 305 298 290 294 294 287 284 289 289 289 288 288 287 287 285 285 288 284 283 284 282 281 280 278 284 280 283 281 282 282 288 290 288 288 289 288 289

GFSGBSN_sfc_thetae_078.txt.gz
Theta_e
330 330 331 331 331 331 327 324 321 320 318 318 316 316 316 316 315 315 314 313 312 315 314 312 313 313 306 296 295 307 311 312 312 309 303 300 296 299 296 298 301 299 304 306 308 310 309
324 327 329 330 330 330 330 325 322 320 318 318 316 316 316 315 315 314 314 313 311 313 314 313 312 312 301 290 302 305 305 308 308 307 303 303 302 303 300 299 298 303 304 306 308 308 309
320 322 324 328 329 329 329 327 323 321 319 317 316 315 314 314 314 313 312 312 311 312 313 314 313 308 298 295 302 307 307 306 307 307 301 305 303 301 302 298 304 304 299 303 305 307 305
318 319 320 323 325 326 327 327 323 321 319 318 316 314 313 314 313 311 310 310 310 310 312 313 313 304 293 305 302 306 306 306 307 307 305 305 305 302 301 303 301 298 296 293 299 303 305
315 316 317 319 320 323 324 327 323 321 320 318 316 315 313 313 312 310 310 310 311 312 312 313 305 300 294 307 302 305 305 301 305 305 305 306 304 300 300 294 292 294 287 290 293 300 302
313 313 315 317 319 319 322 323 325 322 320 318 316 314 311 311 311 309 310 311 311 311 308 308 305 296 299 297 301 303 305 302 301 301 300 300 298 295 294 290 285 288 287 290 290 297 300
313 312 313 315 316 319 319 321 321 324 321 317 315 313 311 310 310 309 307 301 295 293 296 293 295 296 299 300 303 300 301 301 301 298 290 295 291 286 291 292 294 293 291 290 293 297 296
310 311 312 314 314 316 318 320 320 323 320 317 315 313 310 309 309 309 304 296 296 296 289 298 298 299 302 300 293 298 303 296 294 290 293 291 288 293 295 294 295 294 291 291 294 297 297
310 310 311 312 312 314 316 319 320 321 320 317 315 312 310 308 308 304 300 300 303 300 289 296 299 298 298 300 293 294 300 297 293 290 290 286 291 297 295 291 292 292 290 290 292 296 298
310 310 310 311 312 312 315 317 318 319 319 316 314 311 309 307 302 302 298 303 303 301 278 288 294 297 301 300 293 303 303 299 294 291 292 291 294 293 293 292 293 288 295 293 292 290 286
309 309 310 310 311 311 312 315 317 317 319 315 313 311 309 307 300 298 301 302 302 295 266 289 293 304 302 295 294 297 306 301 294 293 293 290 290 294 292 293 296 291 296 294 293 290 289
308 309 309 309 310 310 310 312 313 317 318 314 312 310 308 305 302 303 302 302 298 277 266 285 295 293 293 295 295 297 299 302 301 295 296 295 300 296 294 296 297 298 295 294 292 289 281
308 308 307 308 309 310 310 310 314 316 317 313 311 309 307 305 298 304 302 296 278 269 286 284 289 293 290 289 291 293 292 291 288 285 285 292 292 295 296 292 296 295 289 281 280 278 278
306 307 307 307 308 309 308 309 311 315 316 312 310 309 308 306 305 303 298 284 271 281 283 292 291 290 285 289 289 290 288 286 291 288 284 281 283 292 295 291 290 290 287 280 276 276 279
306 306 306 307 308 308 309 309 312 313 314 310 309 303 303 305 305 302 290 272 277 282 290 290 291 285 284 289 288 287 285 286 288 289 282 280 282 293 294 294 292 288 283 287 281 279 278
305 305 306 306 307 307 307 306 310 316 311 309 302 301 301 305 304 299 285 281 283 292 293 293 286 288 282 285 284 285 288 289 289 293 292 287 280 290 293 294 293 289 290 282 279 274 275
304 304 305 305 306 305 306 306 308 311 309 309 301 295 302 305 302 295 282 280 290 294 295 290 289 288 287 285 285 284 285 289 293 292 291 289 284 284 290 287 286 287 285 286 283 280 275
304 304 304 306 306 306 306 305 307 309 309 307 299 289 303 304 290 291 285 288 295 293 295 293 292 292 287 287 284 284 287 288 295 293 287 290 285 277 283 290 293 290 287 285 278 277 277
303 303 304 306 306 306 306 305 307 308 308 302 295 294 303 301 284 286 288 291 294 292 292 292 291 293 294 288 285 288 291 294 295 292 288 289 282 275 279 284 288 286 289 289 286 282 275
303 304 304 306 306 306 305 304 307 310 309 304 295 287 294 296 292 286 285 289 290 295 294 293 292 293 292 291 291 288 291 295 297 295 299 294 285 280 275 280 284 283 287 289 285 275 279
304 304 304 304 305 305 304 303 305 309 310 304 295 290 292 286 288 288 287 289 289 289 295 292 289 291 291 286 287 287 292 294 297 298 293 290 281 279 284 286 287 285 285 287 284 286 281
303 304 304 304 305 305 303 303 304 309 309 300 293 290 290 287 289 287 287 287 289 290 290 288 287 290 291 286 288 286 289 292 291 291 289 290 281 281 280 286 285 283 285 286 286 287 287
303 304 304 304 304 304 303 303 305 309 308 297 297 295 292 289 285 284 284 288 292 292 292 292 290 290 289 290 290 292 292 293 292 290 288 288 282 278 275 281 281 279 282 284 285 287 287
304 303 304 304 304 304 303 303 308 309 306 297 295 294 290 285 286 286 289 291 292 292 290 292 292 290 292 295 294 293 294 293 292 289 294 286 284 280 274 277 269 282 285 287 286 288 289
303 303 304 304 303 304 303 303 305 309 308 297 294 292 289 285 287 287 289 290 293 293 292 291 291 293 295 292 289 286 286 287 288 287 289 291 287 284 274 272 279 283 284 283 283 284 289
303 303 304 304 304 302 302 304 305 308 308 301 293 293 290 287 283 284 288 290 286 286 287 289 295 296 294 289 286 279 278 280 280 282 290 291 290 282 280 274 274 281 286 290 288 279 289
303 303 303 303 303 302 305 307 308 307 307 299 292 294 290 283 283 284 285 286 289 287 285 288 289 290 291 285 282 280 277 284 279 279 282 284 285 280 278 275 279 285 288 289 277 279 289
303 303 303 303 302 303 305 308 308 307 306 296 292 295 290 284 283 286 286 284 285 287 285 287 287 288 286 283 282 281 279 282 280 281 281 280 278 277 279 277 276 287 287 282 285 287 288
303 303 303 302 302 303 304 309 308 305 304 298 290 294 293 286 284 289 288 288 288 287 287 286 284 285 287 282 282 282 281 280 280 277 282 279 282 280 281 281 287 287 287 287 289 287 287

GFSGBSN_sfc_thetae_081.txt.gz
Theta_e
320 321 322 323 323 323 326 328 328 326 324 322 320 318 317 317 317 315 314 314 314 313 314 315 313 312 305 295 295 305 311 310 311 309 303 300 296 294 292 296 299 297 299 303 303 308 309
317 317 318 320 320 321 322 323 325 327 324 323 320 318 316 316 315 314 313 312 313 312 313 314 314 312 300 289 301 304 304 306 308 305 302 300 298 300 297 296 296 299 300 300 301 306 308
314 315 315 316 317 318 319 321 322 324 325 323 321 318 316 315 314 314 312 311 311 311 312 313 313 309 297 293 302 306 307 305 306 304 300 304 303 299 301 295 302 301 296 297 303 305 303
313 314 314 314 315 316 318 320 320 322 325 324 321 318 316 314 314 313 312 311 310 310 310 312 313 305 294 304 302 305 305 304 306 306 304 305 305 301 300 300 299 296 296 289 298 303 303
312 312 312 313 313 314 315 317 319 319 321 322 321 318 316 314 313 312 310 310 310 310 311 312 304 300 293 306 301 305 306 300 301 304 304 305 303 299 299 294 289 293 285 287 294 302 299
311 311 311 312 313 313 313 315 317 319 320 321 321 317 315 314 312 311 310 311 310 310 308 308 304 296 298 296 300 303 304 303 299 301 299 298 297 292 292 290 283 288 286 287 291 298 297
310 310 311 312 312 312 313 313 315 316 319 320 321 317 314 312 311 310 306 301 294 293 295 293 294 295 297 299 302 300 301 300 300 297 290 295 289 285 290 289 290 291 289 288 293 297 294
309 309 311 312 311 312 313 312 313 315 318 319 320 316 314 311 310 309 304 296 295 295 288 296 296 297 301 299 293 297 303 295 294 289 293 291 286 292 295 292 290 292 290 289 293 297 296
309 309 310 310 311 312 311 311 312 312 315 317 319 315 312 310 309 305 300 299 302 300 288 294 297 296 297 299 293 293 299 296 292 289 290 287 291 296 294 291 290 292 289 289 291 294 297
309 308 309 309 308 309 309 310 311 311 313 314 317 314 312 310 302 302 299 303 301 299 277 286 292 296 299 299 293 300 301 297 293 289 292 291 295 294 292 290 291 287 294 293 292 290 286
307 308 308 308 309 308 309 309 310 310 311 311 313 314 311 309 301 299 301 302 301 293 266 287 292 303 300 294 294 297 305 300 293 292 291 289 290 292 288 292 295 290 295 293 291 288 289
306 307 306 306 307 308 309 309 310 310 311 311 315 313 310 306 303 303 302 301 296 278 267 283 293 292 292 294 294 298 299 301 301 295 295 293 299 297 295 297 297 297 294 292 291 289 282
306 305 306 306 307 308 309 309 310 310 309 311 312 312 308 306 298 304 302 295 279 272 285 282 287 291 289 288 290 292 291 290 289 284 285 292 292 296 297 293 296 295 289 281 280 279 279
305 305 305 306 306 307 308 308 308 309 309 308 308 311 308 306 305 303 298 285 275 280 282 290 290 289 284 288 287 289 287 285 290 288 282 282 282 291 296 291 291 290 288 281 276 277 279
305 305 304 304 305 305 306 307 308 308 307 306 311 305 303 306 304 302 289 275 276 281 288 288 289 283 282 287 287 286 284 286 288 287 281 281 282 292 295 295 293 289 284 288 281 280 277
304 305 305 304 304 304 305 306 306 306 307 311 301 300 301 306 305 299 285 281 281 289 292 290 282 285 280 283 282 282 285 288 288 292 289 285 280 289 292 293 294 290 291 282 281 276 275
304 304 304 304 305 305 304 305 305 306 306 309 301 295 303 305 303 294 280 279 287 293 293 289 286 285 284 283 284 282 283 288 291 291 290 287 283 283 288 286 285 287 285 284 283 281 275
303 303 305 305 305 304 304 304 305 306 305 304 298 286 303 304 290 289 282 286 294 291 294 292 292 290 286 286 283 283 284 286 294 291 286 289 284 277 282 289 291 289 286 284 278 277 276
303 303 304 304 304 304 304 304 305 305 304 300 292 292 303 301 284 285 286 288 291 291 291 291 291 292 290 286 282 285 287 293 294 291 287 288 281 272 278 283 287 285 288 287 284 281 275
303 303 304 304 305 304 304 304 305 304 305 302 294 285 294 295 293 286 284 286 288 294 292 292 292 292 291 287 288 285 288 293 294 293 298 293 283 279 274 279 283 282 286 288 284 275 279
302 304 304 304 304 304 305 304 304 304 305 302 294 287 293 285 288 287 286 287 288 288 294 291 288 292 290 285 286 285 291 293 294 296 291 288 280 278 283 285 285 284 284 286 282 283 279
303 303 304 304 304 304 305 304 303 304 305 300 291 290 292 288 291 286 285 286 288 289 289 287 287 291 292 286 287 285 288 292 289 291 291 288 280 281 278 283 283 282 284 285 285 285 285
303 303 303 304 304 304 304 304 304 303 305 297 297 297 292 288 288 286 284 287 290 291 291 291 290 289 289 289 290 291 291 292 292 290 289 286 281 278 274 280 281 278 282 283 285 286 286
303 303 304 304 304 304 304 304 303 304 305 298 295 295 290 285 285 286 287 288 291 290 289 291 291 289 291 293 293 293 293 294 292 289 291 285 282 279 273 277 269 281 284 286 285 286 287
303 303 303 304 304 304 304 302 303 307 306 297 295 292 289 283 286 286 287 289 293 291 290 290 290 292 294 291 288 287 287 288 288 287 289 289 285 281 273 272 278 281 283 283 283 283 287
303 303 304 304 304 304 303 303 306 306 305 298 294 293 289 286 281 283 287 290 289 287 286 289 293 295 293 288 287 280 278 280 280 285 291 290 288 281 282 274 274 281 285 288 286 279 288
303 303 303 304 304 304 303 304 306 308 305 298 293 294 290 282 282 283 285 289 290 288 284 287 288 290 291 284 282 279 276 282 278 279 282 285 286 282 278 275 279 284 287 287 277 279 288
303 303 304 303 304 303 303 304 307 309 305 298 292 294 290 283 282 285 286 284 287 287 285 287 289 289 286 284 282 280 279 281 279 280 280 281 282 280 281 280 275 286 286 281 284 286 288
303 303 304 303 303 302 303 305 309 309 304 299 289 293 293 285 284 287 287 288 287 287 287 285 284 285 286 281 282 281 280 279 279 276 280 279 282 280 281 280 286 286 286 287 287 286 286

GFSGBSN_sfc_thetae_084.txt.gz
Theta_e
315 316 316 316 317 318 319 319 321 321 323 328 325 323 322 319 318 317 316 315 314 315 313 313 315 313 304 294 293 305 312 309 310 308 302 300 296 295 291 292 295 292 296 300 303 304 306
314 313 314 314 315 315 316 317 317 319 321 327 326 323 321 318 317 316 315 315 314 313 313 313 314 312 300 290 300 304 305 304 306 303 301 301 298 298 293 293 293 297 297 300 302 303 304
313 313 313 313 313 314 314 314 316 317 318 321 321 324 320 318 316 315 315 314 313 312 312 312 313 309 299 295 301 303 305 304 305 303 299 302 303 295 298 292 297 297 293 298 300 300 300
312 312 313 313 313 314 313 313 313 316 317 320 320 322 321 317 315 315 314 313 311 311 310 311 312 306 293 304 302 303 305 303 305 305 303 303 305 299 298 301 297 292 294 288 296 299 300
311 311 312 313 313 314 313 314 312 312 314 317 319 321 320 316 315 314 312 312 311 311 311 311 305 299 291 306 300 304 304 300 300 303 304 304 302 296 298 293 289 291 286 288 291 300 298
310 311 311 312 313 313 313 313 313 312 313 314 317 318 318 316 314 312 311 311 311 310 308 308 304 295 297 295 299 302 303 302 298 299 298 298 296 289 289 290 282 286 286 288 288 296 296
310 310 310 311 311 311 311 312 311 312 312 312 315 315 317 315 312 310 307 302 295 294 296 291 293 293 296 299 301 299 300 299 298 297 290 295 289 285 286 292 291 289 288 287 292 297 295
309 309 310 310 310 310 310 310 310 311 311 311 313 313 316 313 310 309 305 296 296 295 287 295 296 296 299 299 292 296 302 295 294 289 293 290 285 292 294 293 291 291 288 287 291 296 294
308 308 309 309 309 309 309 308 310 310 311 310 311 313 314 312 310 305 300 299 302 299 288 293 296 295 296 298 293 295 299 296 292 289 290 286 290 295 294 291 290 292 288 288 289 293 296
307 307 308 307 308 308 307 308 308 308 309 310 309 311 313 311 301 303 299 304 302 298 278 286 291 295 298 298 293 300 300 297 294 289 291 290 295 293 291 290 290 288 294 293 291 289 285
307 306 306 306 306 307 307 307 307 307 308 309 310 311 312 308 302 299 301 303 301 293 268 286 291 302 299 293 293 298 304 299 292 291 290 289 292 290 290 290 293 291 294 292 291 288 288
307 307 306 306 306 305 306 306 306 307 308 308 309 308 311 306 303 304 303 302 296 280 270 283 292 291 291 293 293 298 299 301 300 294 292 292 298 296 293 297 296 297 292 291 291 288 281
307 307 306 306 305 305 305 305 305 307 307 307 307 308 306 307 298 305 302 296 278 274 284 282 286 290 288 287 289 292 292 291 289 285 285 287 292 296 297 293 296 294 288 281 280 279 279
306 305 305 305 305 305 305 305 305 305 305 307 307 308 307 305 306 303 298 286 273 280 282 288 289 288 283 287 286 288 288 285 291 286 282 282 282 291 296 292 291 289 288 281 276 277 279
305 304 305 304 305 306 306 305 305 307 307 305 305 306 304 305 305 303 291 280 277 281 287 287 287 282 282 286 285 284 283 285 287 286 281 279 285 293 295 295 294 290 282 286 280 280 276
305 305 305 304 305 305 305 305 305 306 306 305 297 299 299 307 305 299 287 282 283 287 290 288 281 283 279 282 281 281 283 287 288 290 288 284 282 290 293 296 295 290 291 283 282 276 275
305 304 304 304 304 305 305 305 305 305 305 305 297 294 302 306 304 292 283 283 287 291 291 287 284 283 281 282 282 281 282 287 290 289 289 285 283 283 288 287 287 286 284 284 283 280 276
303 304 303 304 304 305 305 304 305 305 305 301 294 286 303 304 288 290 285 286 292 290 292 290 290 288 284 284 282 281 283 285 292 291 285 287 282 280 282 288 290 289 285 283 278 277 274
303 303 303 304 304 304 304 304 305 305 305 297 290 290 303 301 284 286 288 288 290 290 290 289 289 290 288 285 281 284 286 292 292 290 286 286 280 273 278 283 286 286 287 285 282 280 276
303 303 303 304 305 304 304 304 304 305 304 299 291 285 293 295 293 288 286 285 286 292 291 291 291 291 288 285 287 283 286 292 293 293 297 291 282 279 274 279 283 282 284 285 282 273 277
302 303 303 304 304 304 304 304 304 304 304 298 291 288 292 284 288 287 287 285 287 287 292 290 290 291 289 283 284 284 288 290 293 295 290 287 279 278 282 284 284 284 284 284 280 281 278
302 302 303 304 304 304 304 304 304 304 303 295 289 289 292 287 291 286 286 283 286 290 291 286 288 292 290 286 286 285 288 287 286 289 286 286 279 280 278 283 283 282 283 284 284 284 283
302 303 304 304 304 304 304 304 304 303 302 295 297 297 292 288 288 286 284 285 288 292 292 290 289 288 289 290 290 289 290 291 290 288 286 284 281 278 274 279 280 278 281 283 284 284 285
302 303 304 304 304 304 304 304 304 303 304 299 296 296 290 285 286 287 287 287 290 291 290 289 290 289 289 293 292 293 291 292 290 288 291 285 281 278 272 276 269 281 283 284 284 285 287
303 303 303 304 304 304 304 304 303 304 307 298 296 294 291 283 286 287 286 286 290 291 290 289 290 291 294 292 288 287 287 288 288 287 289 290 284 280 273 271 278 280 282 282 282 282 287
303 303 303 304 304 304 304 304 304 306 304 296 294 294 290 285 282 282 285 289 288 285 287 289 293 296 292 290 287 281 278 279 278 283 291 288 289 282 281 273 273 279 284 287 285 278 286
303 303 303 303 304 304 304 303 305 306 304 297 293 294 290 281 281 281 285 288 290 287 284 287 291 292 291 284 284 279 276 280 278 278 280 284 285 283 282 275 278 284 286 286 277 278 287
302 303 304 304 304 303 303 305 306 307 303 297 291 293 289 281 282 284 285 286 289 288 285 287 290 290 287 284 283 281 278 279 277 278 279 280 278 281 282 279 273 286 285 281 284 285 287
302 302 304 305 305 303 304 306 307 307 303 299 290 293 292 285 283 287 288 289 287 286 287 285 284 284 286 281 281 281 280 278 277 276 279 279 281 279 280 280 285 284 284 285 287 286 285

GFSGBSN_sfc_thetae_087.txt.gz
Theta_e
314 314 314 314 314 314 315 315 315 316 319 320 322 325 326 324 320 318 318 316 316 315 314 314 314 314 304 295 294 304 311 308 310 308 303 300 296 295 290 292 293 291 292 294 298 301 302
313 313 313 313 314 314 315 314 315 314 316 318 319 322 320 323 320 317 316 316 315 314 313 313 313 312 301 291 301 303 305 305 306 304 301 301 298 298 294 292 292 294 293 292 292 299 303
313 313 312 313 314 314 314 314 314 313 314 315 317 318 319 321 320 317 315 315 314 313 312 312 311 309 299 295 302 303 303 304 306 303 299 301 302 296 294 291 297 295 291 291 291 300 300
311 311 311 312 313 312 312 313 312 313 313 314 313 315 318 319 319 316 315 314 312 310 310 311 312 306 295 304 303 302 306 303 306 305 303 303 303 298 293 295 295 291 288 285 295 299 299
311 312 312 312 312 312 312 311 311 311 313 312 313 313 315 316 317 315 313 313 311 310 311 311 306 301 292 306 300 304 305 300 301 302 304 305 302 295 295 290 288 288 282 287 291 299 298
310 311 310 311 311 310 311 311 310 311 311 312 311 311 314 317 316 313 311 311 310 310 308 308 305 294 296 295 300 301 303 302 298 298 298 297 296 291 290 287 282 284 285 289 289 296 297
309 309 310 310 309 310 309 310 310 311 310 310 310 310 312 318 314 311 307 303 298 296 299 294 294 293 296 299 302 299 301 298 298 296 289 294 289 285 287 290 291 290 288 287 293 298 294
309 308 307 308 308 307 308 308 308 309 309 309 308 310 311 314 312 310 305 297 297 295 289 297 297 296 298 299 292 297 302 294 294 288 292 290 286 291 292 292 292 291 288 289 293 297 293
309 309 308 308 307 307 306 307 307 307 307 307 308 309 310 311 310 306 302 300 303 300 289 293 295 294 296 298 293 296 299 296 292 289 289 287 289 295 291 289 290 289 288 288 288 293 295
308 308 308 308 308 307 307 306 306 306 306 306 307 307 308 309 301 303 299 304 303 300 280 287 292 295 298 298 293 301 301 297 293 289 290 290 295 292 291 290 291 287 294 292 290 289 284
308 308 307 308 307 306 306 305 306 305 307 307 306 306 307 308 302 299 302 303 301 294 274 288 292 301 298 292 293 297 303 297 291 291 291 289 292 290 289 290 291 290 295 293 291 288 289
308 308 307 306 306 306 306 306 306 306 306 307 307 305 306 303 303 304 303 302 297 281 274 285 292 290 291 293 293 298 298 300 300 294 292 292 298 295 293 295 295 297 293 292 291 289 281
308 307 307 306 306 304 306 306 306 306 306 305 305 305 303 304 298 306 303 296 282 277 286 284 286 290 288 287 289 292 292 291 288 284 285 287 290 296 297 292 296 294 289 280 278 278 279
307 306 306 306 305 305 305 305 306 306 305 305 305 305 301 302 306 304 299 288 276 282 283 289 289 288 284 287 286 288 289 287 291 287 284 283 283 290 295 292 290 289 287 281 276 277 280
307 305 305 305 305 305 305 305 306 305 305 305 304 299 297 304 305 303 292 280 280 283 288 287 286 282 282 286 286 285 286 286 287 288 283 281 285 293 294 295 294 290 285 288 281 281 280
306 305 304 304 305 304 305 305 305 305 305 305 297 295 296 305 305 299 287 283 284 288 290 289 281 282 279 283 283 283 285 288 288 290 289 285 283 290 293 295 295 291 291 283 282 276 274
306 304 304 304 304 304 305 305 305 305 305 305 295 288 301 305 303 291 283 281 287 292 292 286 283 281 281 282 282 282 283 288 291 289 289 286 284 286 289 288 287 287 286 284 284 280 277
305 304 304 304 304 304 305 305 305 305 305 300 294 284 300 304 287 288 286 286 292 291 293 289 289 286 282 284 281 281 283 285 292 290 286 287 283 281 284 289 290 289 286 284 281 279 277
304 303 303 303 304 304 305 305 305 305 305 297 289 289 301 300 284 285 289 288 290 290 290 289 288 289 287 284 281 284 286 292 292 290 286 287 281 275 278 283 287 286 287 285 283 282 277
302 303 303 303 304 304 305 304 305 305 305 298 290 284 291 294 292 288 287 286 286 293 291 290 289 289 286 284 286 284 286 292 293 292 296 290 282 279 275 280 284 284 286 286 283 277 280
302 302 303 304 304 304 304 304 305 305 304 297 290 287 291 285 287 288 288 287 285 287 291 289 288 288 286 283 283 284 288 289 292 294 290 287 280 279 282 283 285 285 285 285 282 282 280
302 302 303 304 304 304 304 304 305 304 304 294 288 289 291 288 290 287 287 286 286 289 290 285 287 289 288 285 286 284 287 287 286 289 287 286 280 281 279 283 282 283 284 284 286 285 285
301 302 303 304 304 304 304 304 304 304 303 294 297 297 293 287 287 287 286 286 288 291 292 289 290 288 288 289 289 289 289 290 290 288 285 284 281 278 275 279 280 279 282 284 285 286 286
301 302 304 304 304 304 304 304 304 304 303 298 297 296 290 285 288 288 287 287 288 291 289 290 291 289 288 292 292 292 290 289 289 288 289 284 281 278 274 277 270 281 284 285 285 286 287
302 303 303 304 304 304 305 305 305 304 305 299 297 295 292 285 287 285 287 285 291 291 288 290 291 290 292 291 287 284 284 285 287 289 289 290 285 279 274 272 278 281 283 283 283 282 287
302 303 303 303 304 305 305 304 304 305 304 294 295 295 291 285 282 283 286 286 288 288 285 290 293 294 293 288 285 279 276 279 278 285 291 289 288 282 280 273 274 280 284 286 286 279 287
303 303 303 304 304 306 304 305 306 306 302 297 293 294 288 281 280 281 286 287 289 288 285 287 289 291 290 285 283 279 276 279 278 278 283 285 286 281 282 278 279 284 286 286 278 279 288
303 303 303 304 305 304 304 306 307 306 302 296 291 292 287 281 281 283 285 285 287 287 285 287 290 290 288 285 283 280 278 279 277 278 279 280 278 278 281 276 273 286 286 282 284 287 288
303 303 303 305 305 305 305 308 307 306 303 298 290 292 291 285 283 286 289 288 285 286 287 285 285 285 288 281 281 281 280 277 277 276 279 278 281 279 280 280 285 285 285 286 287 288 287

GFSGBSN_sfc_thetae_090.txt.gz
Theta_e
313 313 314 314 315 315 315 315 315 315 315 315 316 317 319 321 320 323 320 318 315 316 314 313 313 314 306 298 298 307 310 309 310 307 302 299 297 296 290 294 294 292 295 296 297 296 297
314 313 313 312 314 313 313 313 314 313 314 314 314 314 316 318 318 321 319 316 315 315 313 312 312 313 302 293 307 307 307 307 306 305 302 301 297 299 295 293 292 295 296 295 296 296 297
312 313 313 312 313 313 313 313 312 312 313 314 313 313 313 315 316 319 319 316 315 313 311 311 311 310 301 298 307 306 305 304 306 305 300 303 302 298 296 291 296 295 291 294 294 294 294
311 311 312 311 312 311 311 311 311 311 312 313 313 312 312 312 314 318 317 316 314 311 311 311 311 308 296 308 309 305 307 305 307 308 305 305 305 300 297 296 293 292 292 287 292 291 292
311 310 310 311 311 311 310 311 310 310 311 311 311 310 311 311 313 318 315 314 312 311 311 311 307 302 295 307 302 306 307 302 304 305 305 305 302 297 295 287 287 289 284 286 287 296 295
312 311 310 309 309 310 309 309 309 309 309 310 309 309 310 312 315 316 313 311 310 310 310 310 305 296 299 296 303 303 305 304 300 300 299 298 297 292 290 288 283 285 285 286 287 296 298
311 311 311 310 310 309 308 308 307 308 308 308 307 308 308 310 314 314 308 305 300 298 302 297 297 296 297 302 304 301 303 301 300 297 290 296 290 285 291 291 292 289 288 289 293 298 296
311 311 309 310 309 309 309 308 307 307 307 307 307 306 307 309 310 310 306 298 299 299 292 300 299 299 300 302 295 298 303 296 295 290 293 291 286 293 292 291 291 289 290 290 294 298 295
310 310 309 309 309 308 308 307 307 307 307 306 305 305 307 307 309 307 302 300 305 303 292 294 298 296 297 300 295 297 300 297 292 290 291 288 291 294 292 290 291 291 290 291 290 294 296
310 310 310 309 308 307 306 306 307 307 307 307 305 305 306 306 304 305 300 306 307 304 288 289 293 296 299 300 295 302 302 298 293 290 292 291 295 292 292 290 292 287 295 294 292 291 287
309 309 309 308 308 307 307 306 306 307 306 306 305 305 306 305 301 299 302 306 305 300 278 291 293 304 301 296 297 297 303 298 292 292 292 290 292 291 290 291 294 291 296 294 294 291 292
310 309 309 307 306 306 306 306 306 306 306 306 305 305 305 303 302 304 305 304 300 285 277 287 294 293 293 296 295 299 298 300 299 294 293 292 298 296 292 294 294 298 296 294 293 292 285
310 309 308 306 305 306 306 305 306 306 306 306 305 305 304 303 296 307 304 298 284 280 288 286 288 292 292 291 293 295 294 293 289 286 286 288 290 296 297 292 297 296 291 285 284 285 282
310 309 307 306 305 305 305 305 306 306 306 305 305 304 302 302 304 305 300 288 280 284 285 291 291 291 288 291 291 292 291 287 289 287 287 286 284 291 296 293 291 292 290 285 278 281 283
309 308 307 305 305 305 305 305 306 306 305 305 306 302 298 300 303 304 291 283 285 285 289 289 290 287 287 290 290 290 290 290 292 293 287 287 285 293 296 297 296 292 288 291 286 287 285
308 307 306 304 304 305 305 306 306 306 305 306 299 296 293 302 303 298 287 285 287 290 292 291 285 287 285 288 288 289 290 292 292 294 295 291 285 291 295 297 297 293 294 287 289 281 279
306 306 304 304 304 304 305 306 306 306 306 306 296 289 297 306 303 291 285 287 289 293 294 289 287 286 287 287 288 287 288 292 295 294 294 292 291 288 293 291 290 292 290 289 289 286 283
306 306 303 304 304 305 305 305 306 306 306 301 293 285 298 304 287 288 288 289 293 291 294 292 292 289 288 289 287 288 288 292 296 295 291 292 291 286 288 293 293 293 291 289 287 283 284
306 303 303 303 304 304 305 305 305 306 305 298 290 288 300 300 285 287 290 289 290 290 292 292 292 293 291 289 286 290 291 296 297 295 292 293 288 285 286 290 292 291 291 290 289 289 282
305 302 303 303 304 305 305 305 305 305 305 299 291 285 290 292 293 290 288 287 287 293 292 294 293 293 291 290 291 289 291 295 297 296 295 294 288 285 284 285 289 288 290 291 290 289 286
303 302 303 304 304 305 305 305 305 305 305 300 291 288 290 287 289 290 290 287 287 287 294 294 292 292 290 288 289 289 293 294 296 296 295 294 286 286 287 287 289 289 289 290 288 288 287
302 302 303 304 304 304 305 305 305 305 304 297 289 289 292 290 290 289 288 287 287 289 292 291 291 292 293 290 291 289 292 292 291 295 293 293 287 287 285 287 287 287 289 290 290 288 289
301 303 303 304 304 305 305 305 305 305 303 295 296 297 293 288 288 288 288 288 289 292 293 293 294 294 292 293 295 297 297 296 296 293 291 291 289 287 283 285 286 285 286 288 290 291 291
302 303 304 303 304 305 305 306 305 305 303 299 298 296 291 286 287 287 288 290 289 293 291 293 295 295 294 299 300 299 298 296 296 294 295 290 288 287 284 286 281 286 289 290 289 291 293
302 303 303 304 304 305 306 305 305 305 306 303 299 296 293 287 289 288 289 289 292 294 292 293 294 295 298 296 293 289 290 290 291 292 293 294 290 285 284 283 284 286 288 288 288 288 292
302 304 304 304 304 305 305 305 305 306 305 302 300 297 293 290 286 285 288 290 290 290 292 293 297 299 297 294 291 284 283 285 284 288 293 291 292 289 285 280 278 286 289 291 291 285 292
302 304 303 304 304 305 305 306 307 306 304 301 294 295 293 289 287 286 290 290 292 291 291 293 294 294 298 293 288 286 284 286 283 284 285 288 288 285 285 283 285 290 292 292 283 286 294
302 303 303 303 305 305 306 308 308 306 302 298 293 296 295 289 287 287 288 289 292 292 292 294 294 295 293 289 289 287 286 287 286 287 287 286 285 284 285 282 279 292 291 287 291 292 295
302 303 304 304 305 306 309 308 307 305 301 298 294 295 295 292 289 291 291 291 290 289 292 292 292 293 295 292 289 289 286 286 286 283 287 285 288 287 287 287 290 293 293 293 293 294 295

GFSGBSN_sfc_thetae_093.txt.gz
Theta_e
314 314 314 313 314 314 314 314 313 313 313 314 315 315 314 314 315 317 318 322 320 317 316 314 313 315 309 301 301 309 311 311 312 309 302 300 297 296 292 293 294 292 294 296 297 298 298
313 312 313 313 313 313 312 312 312 312 312 314 313 313 312 313 314 314 315 320 319 317 315 313 313 315 305 294 309 310 307 307 306 306 302 302 298 298 294 292 293 295 296 295 297 297 298
313 312 311 311 311 311 312 311 311 311 311 312 312 311 311 311 313 313 314 317 316 315 313 313 313 311 301 299 309 309 307 305 306 305 301 302 302 297 296 292 297 295 290 293 296 297 295
313 313 312 311 310 310 310 310 310 310 310 311 311 310 310 310 310 313 314 318 316 314 311 312 312 307 298 309 312 308 308 306 307 307 305 305 304 300 296 297 294 290 291 285 294 296 296
312 312 312 312 312 311 311 310 309 309 309 309 309 309 308 309 310 313 317 317 314 312 311 312 307 304 296 309 303 307 308 303 303 305 306 305 302 297 296 290 286 288 284 287 289 295 294
312 312 312 311 311 311 310 310 309 308 308 308 308 308 307 308 309 314 314 313 311 311 310 309 306 298 300 298 304 306 306 304 300 299 298 298 295 292 291 287 281 286 285 288 288 294 295
312 312 311 311 310 310 310 309 309 308 308 308 308 307 306 306 308 310 309 307 300 298 303 299 298 297 299 304 306 302 305 302 301 297 289 295 289 287 291 291 291 290 289 288 291 296 294
312 311 311 311 311 310 309 308 307 307 307 308 308 307 306 306 307 308 306 298 300 299 294 301 301 301 302 304 297 300 305 297 295 290 294 291 288 293 295 293 291 291 289 289 292 297 295
312 312 311 311 310 309 308 308 308 307 307 307 307 307 306 306 307 306 302 300 306 305 292 296 300 299 299 301 296 297 301 297 294 289 291 288 292 296 292 291 289 290 289 290 290 295 297
313 312 311 310 309 308 307 307 307 307 307 306 307 306 306 306 302 301 299 306 307 306 287 291 293 297 300 301 295 304 304 298 294 289 292 292 296 293 291 290 292 288 294 293 293 291 287
314 313 311 310 308 307 306 306 306 306 306 306 306 306 305 305 300 297 302 306 307 301 278 293 293 304 301 297 298 298 304 299 292 292 293 290 293 291 290 292 295 291 296 294 293 291 288
317 315 310 308 307 306 306 306 306 306 306 306 306 305 305 302 302 301 306 304 300 285 278 288 294 293 294 296 297 298 298 300 299 293 294 294 297 294 293 295 296 298 294 293 293 291 284
316 316 308 306 306 305 306 306 306 306 306 306 305 305 302 302 295 306 304 297 284 280 291 286 288 292 293 292 294 296 293 291 289 286 285 289 289 293 296 291 297 296 291 284 283 283 283
315 309 306 305 304 305 305 305 306 306 306 306 306 306 305 303 304 304 300 287 280 286 287 292 292 292 289 293 293 294 292 288 290 288 287 286 284 291 296 294 292 292 290 285 280 282 283
309 307 304 304 305 305 305 306 306 306 306 306 306 302 299 301 304 303 290 282 285 287 290 290 291 288 289 291 291 291 290 291 293 292 287 288 286 294 296 298 296 292 289 293 288 290 285
307 306 305 305 305 305 306 306 306 306 306 306 300 296 293 301 303 299 287 286 288 293 293 292 286 290 287 289 289 290 291 294 293 295 296 292 286 293 296 299 299 294 295 288 290 281 280
308 306 304 304 305 305 306 306 306 306 306 305 299 290 298 303 303 292 285 287 291 295 295 290 288 288 290 289 290 290 291 294 297 295 296 294 292 290 294 292 290 293 291 291 290 287 284
307 304 303 304 304 305 306 306 306 306 306 303 295 286 299 305 289 289 289 291 293 292 296 293 294 291 290 290 290 290 291 294 298 297 292 295 293 288 290 295 296 294 291 291 287 284 288
306 304 303 304 305 305 305 306 306 306 306 301 290 288 301 301 287 288 291 291 292 291 293 293 293 294 293 290 288 292 293 298 299 297 293 294 291 286 287 291 294 292 293 293 291 292 285
304 303 304 304 305 305 305 306 306 306 306 301 294 287 292 295 296 291 289 287 288 294 293 295 294 294 292 291 294 291 293 296 299 298 297 297 291 288 284 286 290 289 291 292 292 289 287
303 303 304 305 305 305 306 306 306 306 305 302 295 288 291 288 290 292 292 288 287 288 295 296 294 293 291 288 290 291 294 295 297 298 297 296 288 288 290 290 291 290 290 291 289 290 287
302 303 304 305 304 305 306 306 306 305 305 298 291 290 293 290 291 289 289 288 288 290 293 292 292 294 294 291 292 290 293 293 293 296 295 296 289 289 288 290 290 288 291 292 291 291 291
302 303 304 304 305 305 306 307 305 305 305 298 298 298 295 289 288 289 289 290 290 293 295 296 296 294 293 294 298 298 299 298 297 295 293 293 291 289 285 288 288 286 287 290 291 293 293
302 303 305 304 305 305 306 306 305 305 304 303 300 297 293 286 288 288 289 291 291 294 293 296 297 295 296 302 302 301 299 298 297 296 297 292 291 290 287 287 282 288 292 291 290 292 294
302 304 305 304 304 305 306 306 306 306 306 303 302 299 294 288 291 290 290 291 293 296 295 295 296 299 301 299 294 290 291 291 292 294 294 296 292 288 286 285 286 287 290 290 289 289 293
302 303 304 304 304 306 306 306 306 306 305 306 304 302 298 291 289 288 291 293 290 293 295 295 298 302 300 297 292 285 284 286 286 289 295 294 294 290 287 282 279 288 291 293 293 287 294
302 303 304 305 305 306 307 307 308 307 305 306 300 299 295 293 292 290 291 292 295 294 292 295 295 297 301 294 289 287 286 289 285 285 286 288 289 286 286 284 287 292 293 294 284 287 295
301 303 304 305 305 307 309 309 307 306 303 303 297 300 297 294 291 291 292 294 296 296 292 296 295 296 297 291 290 289 288 289 288 289 288 287 286 286 287 283 281 294 292 288 292 295 297
301 303 304 304 305 307 308 307 305 303 301 302 297 298 299 296 292 294 293 294 292 292 295 297 295 296 298 295 293 292 288 290 288 285 291 286 290 288 289 288 293 295 295 295 296 296 297

GFSGBSN_sfc_thetae_096.txt.gz
Theta_e
315 314 313 313 313 313 313 313 312 312 312 312 313 313 313 312 313 313 314 315 317 322 318 317 314 316 309 300 300 312 317 316 314 309 303 299 296 295 291 292 293 290 292 295 296 296 296
315 315 314 314 313 312 311 312 311 310 311 311 312 312 311 311 311 311 312 314 315 318 317 316 314 315 304 293 309 310 308 307 307 306 302 301 297 298 293 291 290 293 293 293 295 295 296
314 314 314 313 313 313 312 312 311 311 310 310 310 310 310 310 309 310 311 313 314 318 318 315 314 311 302 298 309 309 307 305 306 305 300 303 301 297 296 291 295 293 289 291 293 294 293
314 314 314 314 313 311 312 311 311 310 310 310 309 309 309 308 308 309 311 317 315 318 314 314 314 308 297 310 311 307 307 304 307 306 304 305 304 299 295 296 293 289 289 283 291 293 295
314 314 313 313 313 312 311 311 310 309 309 309 309 309 309 308 307 308 310 316 316 314 313 313 307 303 296 310 303 307 307 303 304 304 305 304 302 296 295 288 286 288 280 284 287 295 294
315 314 313 312 312 312 312 311 310 309 308 308 308 308 309 308 307 308 308 313 313 311 310 309 306 297 300 298 304 306 307 304 300 300 298 297 295 289 290 287 278 283 283 286 286 293 293
315 315 314 313 312 311 311 309 309 309 308 308 308 308 308 308 307 307 306 303 299 297 303 297 297 297 300 304 307 302 304 302 300 296 288 293 287 283 286 289 288 287 286 285 290 295 292
317 316 315 314 313 311 310 308 308 308 308 307 307 307 308 308 307 307 306 296 297 299 293 301 302 300 303 304 297 300 304 296 294 288 292 290 286 290 293 293 291 289 287 285 291 295 293
317 317 318 317 311 308 307 307 307 307 307 307 307 307 307 307 307 305 300 299 306 304 292 297 300 298 299 301 296 297 300 298 293 290 290 287 290 295 293 290 289 289 286 287 288 293 294
317 317 317 310 306 305 306 306 307 307 306 306 306 307 306 306 300 298 297 304 307 305 286 289 294 297 300 299 294 303 302 298 293 288 290 289 294 292 292 289 290 286 294 292 290 289 284
317 311 308 307 305 306 306 306 306 306 306 306 306 306 306 305 299 295 299 305 307 300 277 291 292 303 300 296 297 297 305 299 291 291 293 290 292 291 290 291 295 290 296 292 291 289 286
311 309 307 304 304 304 306 306 306 306 306 306 306 306 305 300 300 301 306 304 300 284 277 288 293 293 292 295 297 298 298 300 299 293 293 292 298 293 292 294 294 296 293 292 292 289 282
309 308 305 304 305 306 305 305 306 306 306 306 306 306 304 302 294 304 303 297 283 278 290 286 288 292 291 290 293 294 292 291 288 284 285 289 289 291 294 291 295 294 290 282 281 280 280
308 307 305 306 306 306 306 306 307 307 306 306 306 305 303 302 304 304 299 287 278 286 286 293 291 291 288 292 292 293 292 289 291 289 285 285 283 290 296 294 291 290 288 283 277 280 281
309 307 305 305 306 306 307 307 307 307 306 306 305 301 299 301 304 304 291 281 281 286 291 289 291 287 287 291 291 291 290 288 292 291 286 287 285 295 296 297 296 291 287 291 285 288 283
308 305 304 305 306 307 307 307 307 307 308 307 300 295 295 303 304 299 287 284 287 293 294 292 286 289 286 288 288 289 290 294 293 295 295 291 286 293 295 298 298 293 295 285 285 279 278
307 305 305 305 306 306 307 307 307 307 308 307 298 290 298 304 303 293 284 287 290 295 295 290 289 288 290 288 290 290 290 293 296 295 295 293 291 288 294 291 289 290 287 288 287 285 279
306 304 305 305 306 306 306 307 307 307 307 304 295 285 299 304 289 289 288 290 293 292 296 294 294 292 290 291 289 290 289 292 297 297 291 293 291 285 288 294 294 292 289 288 280 280 283
305 304 305 306 306 307 307 307 307 307 306 301 290 291 303 300 287 287 291 290 292 292 292 293 292 293 293 290 287 292 292 297 298 295 291 292 286 280 282 288 292 289 290 291 289 288 281
304 304 305 306 306 307 308 307 307 307 307 302 293 286 294 297 296 291 289 287 288 295 293 295 294 294 292 290 293 290 292 296 298 296 297 296 288 283 278 281 287 284 288 290 288 280 282
304 304 305 305 305 306 307 307 306 306 307 302 295 289 292 286 289 291 290 289 288 287 295 296 293 292 291 287 290 290 293 294 296 298 294 293 283 283 287 288 289 287 288 288 285 286 281
303 304 305 305 305 306 307 307 306 306 307 298 292 291 293 290 291 290 290 288 288 291 293 292 291 294 293 290 290 288 291 291 290 293 291 293 283 284 281 288 288 285 288 289 289 289 288
302 304 305 305 305 305 307 307 306 306 306 297 299 299 294 289 289 289 289 290 290 294 295 296 295 293 292 293 295 295 295 295 293 291 290 290 286 283 279 285 284 281 285 288 289 290 289
302 304 305 305 305 305 306 307 307 307 305 300 300 298 293 286 289 288 289 291 292 293 293 296 295 294 296 299 299 296 295 295 294 292 293 289 287 285 279 280 272 284 289 289 288 291 292
301 303 304 305 305 305 306 306 307 307 307 302 302 299 294 287 289 289 290 291 293 295 294 294 295 297 298 296 291 288 287 288 290 291 291 292 288 281 278 276 282 284 287 286 285 285 291
301 303 304 305 305 306 307 308 309 307 306 304 302 302 296 290 286 289 291 293 290 290 292 294 297 299 298 294 289 281 279 282 282 286 291 291 290 284 282 277 275 283 288 290 289 281 290
301 303 304 305 305 307 309 310 309 308 306 304 299 299 294 290 289 289 289 290 294 292 290 292 293 294 297 290 285 282 280 285 281 281 283 284 285 281 281 278 282 288 289 290 278 282 291
301 302 304 305 305 308 308 309 307 306 304 301 296 299 295 291 289 291 292 290 292 294 290 292 292 293 292 287 286 284 282 284 282 284 283 283 281 280 282 277 275 290 288 284 288 291 293
301 302 304 304 305 308 307 305 304 303 302 302 296 298 298 292 289 293 293 293 291 290 288 294 292 293 293 288 287 286 283 284 284 279 286 281 285 282 284 283 289 289 289 290 292 292 292

GFSGBSN_sfc_thetae_099.txt.gz
Theta_e
316 316 315 316 315 315 314 314 312 312 312 312 311 312 311 311 311 311 310 311 313 315 316 320 318 317 310 300 299 312 320 320 316 312 306 301 295 293 289 289 291 289 291 294 295 295 295
316 316 316 315 315 315 313 313 313 312 312 312 311 311 310 310 310 309 309 311 314 314 315 319 317 316 304 292 307 313 312 311 310 307 303 300 297 298 292 289 288 291 291 291 293 293 294
317 316 316 315 314 314 314 312 312 311 311 310 310 310 310 310 310 308 309 310 312 316 316 319 317 311 301 297 308 311 307 305 305 306 300 302 302 297 295 289 293 292 286 289 290 292 291
318 317 317 316 315 314 313 313 312 311 310 310 309 309 309 309 309 308 308 310 311 316 318 317 317 308 297 309 307 305 305 303 305 305 303 303 304 298 295 294 292 287 287 280 289 292 293
319 319 319 318 316 315 314 312 311 310 309 309 309 308 309 309 309 308 308 309 314 316 316 315 308 303 295 312 304 306 305 302 304 305 305 304 302 295 295 288 284 287 277 281 285 293 292
318 318 318 317 317 317 315 311 310 308 308 308 308 308 308 308 308 308 308 309 311 313 312 310 307 297 300 298 303 305 305 305 300 300 298 297 295 290 288 285 276 278 277 284 284 291 293
318 318 318 316 316 310 308 308 308 308 308 308 308 307 307 308 308 307 305 301 294 298 302 296 297 298 299 304 306 302 303 301 299 296 287 291 283 280 283 286 286 285 284 283 287 293 291
313 311 312 310 307 307 305 306 306 307 307 307 307 307 307 307 307 307 303 294 294 296 291 300 301 301 302 303 296 299 304 295 293 288 291 288 283 288 289 289 288 289 287 284 288 292 292
313 313 310 308 306 306 306 306 307 307 307 307 307 306 307 306 306 300 297 297 303 303 290 296 300 299 299 301 296 295 300 297 292 289 289 285 288 293 290 289 289 287 287 286 285 290 293
311 311 308 307 306 306 306 307 307 307 306 306 306 306 306 305 298 296 297 303 306 306 286 290 294 298 299 299 293 302 302 298 294 288 289 288 292 290 289 289 289 285 292 292 291 288 283
311 307 307 307 307 307 307 307 307 307 306 306 306 306 306 303 295 293 299 304 305 299 275 290 293 304 299 295 296 297 304 299 291 290 291 288 291 291 289 290 294 289 294 292 292 289 285
310 308 307 307 307 307 307 307 307 307 306 306 306 306 305 299 296 300 302 303 300 283 275 287 292 291 291 294 296 297 297 299 298 291 292 290 297 294 292 293 293 294 292 291 292 289 281
309 307 306 307 307 307 307 308 307 307 307 306 305 304 302 302 293 301 301 296 281 277 290 284 288 291 290 290 293 293 292 290 288 284 285 289 289 292 293 289 294 293 289 281 279 280 280
309 306 306 306 307 308 308 308 308 308 307 306 305 304 302 302 302 300 295 287 279 287 286 292 291 291 288 291 292 293 292 288 291 289 285 284 282 290 295 293 291 291 288 282 275 279 281
308 306 306 307 307 308 308 308 308 308 307 304 302 297 297 299 302 300 289 280 281 287 291 289 290 288 288 291 291 291 289 288 292 290 285 286 285 295 295 297 295 291 287 291 285 287 283
308 305 306 307 307 307 308 308 308 309 308 305 294 293 296 302 301 294 284 284 288 293 293 292 284 288 283 287 288 287 289 294 293 294 294 291 285 292 294 297 296 293 295 284 284 278 279
307 305 306 307 307 307 308 309 308 308 308 308 293 287 295 301 297 288 284 286 289 294 294 289 288 288 287 288 290 289 289 291 295 294 294 293 289 287 292 290 288 289 287 288 287 284 280
306 305 306 306 306 307 308 308 308 308 308 301 290 281 296 303 285 289 285 289 293 291 295 293 291 290 287 288 287 287 287 290 296 296 291 293 290 284 286 292 293 291 288 286 281 279 282
306 305 306 306 306 308 307 308 308 308 308 299 291 290 300 299 285 282 290 290 291 290 291 292 290 291 290 287 285 290 290 296 297 294 290 291 285 278 281 287 289 288 289 288 288 285 279
305 304 306 306 306 308 307 308 308 308 308 296 290 284 288 295 294 290 285 286 286 293 292 294 293 291 289 289 291 288 289 294 296 295 299 295 286 281 276 281 285 283 287 288 285 279 280
305 304 306 306 306 306 307 307 308 307 308 296 289 288 292 285 288 289 288 287 286 286 292 294 291 291 289 286 287 287 290 292 295 297 294 291 282 281 285 287 287 285 286 287 284 284 280
304 303 305 306 306 306 306 307 308 308 307 295 288 290 291 289 289 287 287 285 287 289 291 290 290 292 291 287 287 286 289 289 287 291 290 291 280 283 281 286 285 283 286 287 287 287 286
304 303 305 306 306 306 306 307 307 307 305 292 297 294 292 287 285 284 286 287 290 293 293 294 292 290 290 291 292 292 291 291 289 288 287 287 284 280 277 283 283 279 283 285 286 288 287
304 302 305 305 306 306 307 307 307 307 304 299 293 296 288 283 287 287 287 290 290 292 291 293 293 290 293 296 295 293 292 292 291 290 290 287 284 281 275 279 270 283 287 287 287 288 289
303 302 304 305 306 307 308 309 308 307 306 300 298 295 293 285 288 286 287 288 290 292 292 292 293 294 295 294 288 285 285 286 287 289 289 289 286 279 276 272 279 283 286 285 284 284 288
302 302 304 305 306 308 310 310 310 307 307 301 299 296 292 287 282 286 286 292 288 287 288 292 296 296 295 292 286 279 277 280 281 284 289 290 287 282 279 275 275 282 286 289 287 280 289
301 302 304 305 306 308 309 310 309 308 307 300 294 294 291 286 285 289 286 286 290 290 286 289 292 292 295 287 282 280 277 284 279 279 280 282 282 279 279 276 280 286 288 289 278 280 289
300 302 304 305 306 308 307 307 307 306 304 298 292 294 291 285 285 288 290 286 288 288 285 289 289 290 289 284 283 281 280 282 280 283 281 281 278 278 279 275 274 289 287 283 286 290 291
300 302 303 304 305 307 305 305 306 306 305 301 290 295 294 289 288 291 291 291 290 289 287 287 289 289 290 283 284 283 282 281 281 277 284 279 284 281 282 281 288 289 288 289 290 291 291

GFSGBSN_sfc_thetae_102.txt.gz
Theta_e
319 319 318 318 317 317 316 316 315 314 313 312 312 311 312 311 310 311 310 310 311 313 314 315 322 319 310 299 299 311 322 320 313 309 304 301 294 292 287 288 290 287 290 293 294 294 294
319 319 319 320 320 318 317 315 315 313 312 311 311 310 310 309 310 310 309 309 310 312 313 315 319 315 305 293 307 314 314 313 312 307 303 299 295 296 291 288 286 290 290 291 292 292 293
318 319 320 319 320 319 317 318 315 314 312 311 309 308 308 309 309 309 309 309 310 311 313 316 319 310 302 298 311 312 309 308 308 305 299 301 300 295 293 288 292 291 286 289 290 290 290
319 319 315 314 314 314 316 318 315 311 311 310 308 308 308 308 309 309 309 308 309 313 317 319 317 308 297 309 308 307 305 303 304 305 302 302 303 297 294 293 290 286 285 280 288 291 292
315 315 314 312 310 310 309 311 309 308 308 308 308 308 308 308 308 308 308 309 308 315 317 318 308 303 295 311 302 305 304 300 302 304 303 303 300 294 295 288 284 284 280 280 283 292 291
314 313 311 310 310 309 309 308 307 307 308 308 308 307 307 307 308 308 308 308 308 314 311 309 307 297 300 298 304 305 304 304 301 300 298 296 294 288 289 285 272 277 279 282 282 289 291
312 310 310 308 308 309 309 308 307 307 307 307 307 307 307 307 307 307 303 299 294 296 302 295 296 298 299 304 306 302 303 301 300 295 287 290 286 280 282 284 284 282 282 283 286 291 289
310 309 309 309 309 308 308 308 308 308 307 307 307 307 306 306 306 306 299 291 292 293 290 301 300 300 302 303 295 298 303 293 292 286 290 287 281 286 287 287 286 285 283 284 288 291 289
310 309 308 308 308 309 309 308 308 308 307 307 307 306 306 306 305 298 296 296 303 300 290 295 300 298 299 301 295 294 299 296 291 287 288 283 286 291 289 286 285 286 285 285 285 290 292
309 308 308 308 308 309 309 309 308 308 308 307 306 306 306 305 296 295 296 303 305 304 285 286 292 297 299 299 293 301 302 298 294 288 290 288 292 290 288 286 288 284 290 290 290 288 282
309 307 307 307 308 309 309 309 309 308 307 307 306 306 306 304 295 294 299 304 304 298 274 290 292 303 300 294 295 295 304 298 291 289 291 284 290 290 289 289 292 288 293 290 289 287 286
308 307 307 308 308 309 309 309 309 309 308 307 306 305 305 298 295 299 302 303 299 280 274 287 292 292 291 294 295 297 297 299 298 291 291 289 294 292 291 292 292 293 290 290 290 287 280
308 307 307 308 308 308 309 310 309 307 306 307 306 304 302 301 292 301 300 296 277 275 289 284 288 291 290 289 291 293 291 289 287 284 284 288 290 293 294 289 293 290 288 279 279 280 279
307 307 307 308 308 309 310 310 309 307 305 305 305 303 302 301 301 300 295 281 275 285 285 291 290 290 286 290 291 292 289 288 292 289 285 280 281 290 294 291 288 291 288 281 275 278 281
307 307 307 308 308 309 309 310 309 308 306 305 303 295 295 298 300 296 285 282 282 286 291 288 290 287 287 290 291 291 289 288 291 290 284 285 284 294 295 296 295 290 287 292 284 285 281
307 307 307 307 308 309 310 309 309 310 309 306 293 291 292 299 299 292 287 285 288 293 292 291 282 287 283 287 288 288 289 292 292 293 293 290 283 291 293 296 295 293 295 285 283 277 278
307 306 307 307 307 308 309 310 309 309 309 304 291 285 294 299 296 288 284 285 289 293 293 288 286 286 287 287 289 289 287 291 294 293 294 292 288 285 292 289 288 289 287 288 287 283 279
307 305 307 307 307 307 308 309 309 309 309 299 288 281 296 299 285 286 283 288 293 290 293 291 290 288 286 288 287 286 286 290 295 293 289 291 288 283 287 292 294 291 289 288 280 281 280
307 305 306 307 307 307 308 308 309 309 309 294 290 286 297 296 285 280 286 288 290 289 290 291 290 290 289 286 285 288 289 295 296 292 288 289 285 279 282 284 289 287 288 288 287 285 278
307 304 306 307 307 308 307 308 308 309 309 295 287 279 287 292 290 285 283 285 285 292 291 293 292 290 289 288 290 287 289 294 296 293 299 294 285 281 275 281 285 283 286 287 285 280 281
307 304 306 306 307 307 307 307 308 308 307 294 287 283 288 279 286 286 286 286 285 286 291 292 290 290 288 285 286 286 289 290 293 295 292 289 282 280 283 285 285 284 284 286 283 284 282
306 304 304 306 306 307 307 307 308 308 305 293 286 285 288 284 287 285 285 284 286 289 290 289 288 290 290 286 286 285 287 287 286 290 288 289 280 282 280 285 284 282 285 286 286 286 285
306 304 303 305 306 307 307 307 308 308 302 290 292 292 289 285 283 280 283 285 289 292 292 292 290 289 289 290 291 291 290 289 288 287 286 286 282 279 276 282 282 278 282 284 285 287 286
306 304 303 305 306 307 309 310 309 307 303 293 292 292 285 281 284 284 286 288 289 289 289 292 291 289 292 295 293 291 290 290 290 288 289 285 283 280 274 278 269 281 286 286 286 286 288
305 303 303 305 307 308 309 309 309 307 306 296 294 292 288 281 284 285 286 287 289 290 290 291 292 293 294 292 287 284 283 284 285 287 288 287 284 278 275 271 278 282 284 284 282 283 287
304 302 303 305 307 309 310 310 308 307 306 297 294 293 289 284 282 285 284 287 285 284 287 290 295 295 294 289 285 279 277 279 280 283 287 287 285 281 278 274 274 280 285 287 286 279 287
304 301 303 305 307 308 308 308 308 307 306 297 293 293 289 284 284 285 284 284 287 286 284 287 290 291 292 285 282 279 277 282 278 277 280 281 281 278 278 276 280 285 287 287 277 279 289
303 300 303 304 306 306 306 306 306 305 305 296 292 293 290 284 285 288 289 286 287 287 284 288 288 288 288 283 282 281 279 281 278 281 279 280 278 277 278 275 273 288 286 282 285 287 290
304 300 303 304 305 307 305 305 306 305 306 299 290 294 293 288 287 290 291 291 290 290 287 287 287 287 288 281 283 282 281 280 279 276 282 279 283 280 281 281 286 288 287 288 290 290 289

GFSGBSN_sfc_thetae_105.txt.gz
Theta_e
320 318 317 316 313 312 312 312 314 317 316 315 313 311 309 309 310 310 310 310 309 310 311 313 315 319 308 299 299 310 321 322 312 307 303 299 293 291 287 287 289 286 289 292 293 293 292
317 316 314 314 311 312 311 311 313 316 317 313 311 309 307 308 309 309 310 310 310 310 311 312 317 314 304 294 309 312 313 311 308 305 302 298 295 295 290 287 286 289 290 290 291 291 291
316 315 312 311 311 310 310 310 309 311 311 312 310 309 307 308 309 309 309 310 309 310 311 314 316 310 301 299 311 314 311 309 309 304 299 299 298 294 292 287 291 290 285 288 288 290 288
314 312 311 310 310 310 309 310 309 309 309 309 309 308 308 308 308 309 309 309 310 310 313 316 316 308 297 309 312 311 306 302 305 304 301 301 301 296 292 291 289 284 283 278 286 290 290
311 310 310 311 310 309 309 309 309 309 309 308 307 307 308 308 308 308 308 309 310 314 316 317 308 304 296 311 305 307 305 300 301 302 301 304 299 292 292 284 279 281 272 280 283 290 289
311 310 310 310 310 310 310 310 309 309 309 308 308 307 307 307 307 308 308 307 309 312 311 309 307 298 300 298 303 304 304 304 300 299 297 295 291 285 286 284 270 276 277 280 280 287 289
310 309 309 309 310 310 310 310 309 309 308 308 307 307 307 307 307 307 301 296 294 296 299 296 296 298 299 304 306 301 304 302 300 294 285 290 284 278 280 283 282 280 280 279 283 288 288
310 309 309 309 310 310 310 310 310 309 309 308 307 307 307 307 306 305 296 291 293 295 293 301 301 300 303 304 295 299 304 295 293 285 288 286 281 285 287 285 284 284 282 282 286 289 289
309 309 308 309 310 310 311 311 310 310 309 308 307 307 307 306 305 298 294 296 302 299 292 295 300 298 299 301 295 295 299 296 290 287 286 281 285 290 287 285 283 284 282 282 283 288 291
309 308 309 309 309 310 311 311 310 310 309 308 307 307 307 304 296 295 295 302 304 302 285 286 293 297 300 300 293 301 301 297 293 287 287 286 290 288 288 285 285 281 287 287 287 286 282
308 308 308 308 309 310 311 310 309 307 307 308 307 307 306 303 292 293 298 303 304 299 273 287 291 302 299 294 294 295 303 298 291 289 290 283 287 288 288 289 290 285 291 289 289 287 284
308 308 308 308 309 310 310 310 308 307 307 308 306 306 304 297 295 298 301 304 299 277 274 286 291 292 291 294 295 297 296 299 298 292 291 288 293 292 290 291 292 293 288 288 288 286 279
307 308 308 308 309 310 310 310 309 307 306 306 307 305 302 301 292 300 300 297 275 275 288 284 287 290 290 290 290 293 291 289 286 283 283 288 290 294 294 289 292 290 287 279 276 280 278
307 308 307 308 309 310 310 310 310 310 308 306 304 303 301 300 299 298 293 282 275 285 285 290 289 289 286 290 290 290 289 287 290 289 285 279 276 290 294 291 289 290 289 281 275 277 280
308 307 308 308 308 309 310 310 310 310 309 307 302 294 294 297 300 296 286 280 281 286 290 287 290 286 286 290 291 291 289 288 291 291 282 285 281 293 294 295 295 290 286 292 284 285 281
308 306 307 308 308 308 309 310 310 310 309 305 292 290 291 298 298 291 286 285 287 292 292 290 283 286 283 287 287 287 289 292 292 292 294 290 283 290 293 294 294 292 295 285 285 276 277
309 306 307 307 308 308 308 309 310 310 309 303 289 287 295 299 295 288 283 285 288 292 292 288 285 285 286 286 289 288 286 290 293 292 293 292 288 286 290 288 286 289 288 288 287 284 279
309 306 307 307 307 307 307 308 309 310 309 298 289 284 297 298 285 283 282 287 292 290 292 290 289 287 286 288 286 284 285 288 294 293 289 292 288 282 285 290 292 291 288 288 281 280 281
309 307 306 307 307 308 308 308 309 309 308 292 286 284 296 295 280 279 285 288 289 289 289 290 289 290 288 286 284 287 288 294 294 292 288 290 285 280 281 285 290 286 287 287 286 284 280
309 307 305 306 307 307 307 308 308 309 308 293 286 281 286 289 287 282 283 284 285 291 290 291 290 290 288 286 288 286 287 292 294 293 299 294 284 282 276 281 286 283 286 287 286 281 283
309 307 304 306 306 307 307 307 308 309 307 293 286 281 287 278 283 284 284 284 285 285 291 292 289 289 286 283 284 284 287 288 292 294 291 288 282 280 283 285 285 284 284 286 284 284 284
309 307 304 305 306 307 308 308 309 308 305 291 285 284 285 283 285 284 284 284 286 288 289 288 287 289 289 285 285 283 285 286 285 288 287 288 280 282 280 284 284 282 284 285 286 285 285
309 307 304 305 306 307 309 309 310 308 301 289 290 291 287 283 282 280 282 284 287 289 291 291 290 288 288 289 290 290 290 289 287 285 285 285 281 278 275 281 281 278 282 283 284 286 285
308 306 304 305 306 308 310 310 309 307 301 292 290 289 284 281 283 283 285 286 287 288 287 291 291 288 291 294 292 290 288 288 288 286 287 284 282 279 274 277 269 281 285 285 285 286 286
308 306 303 305 307 309 309 310 308 307 305 295 292 290 285 280 283 283 285 285 288 288 288 289 291 293 293 291 286 283 282 282 283 285 286 286 283 277 274 271 277 280 283 284 283 284 287
309 304 302 305 306 308 308 308 308 307 307 296 292 292 288 282 281 286 284 285 284 283 286 289 292 294 292 287 283 279 276 278 278 282 285 286 284 280 277 274 273 279 285 286 285 278 287
310 304 302 304 306 307 307 307 306 305 304 296 292 291 288 283 284 284 284 285 286 284 284 285 289 290 290 284 282 279 276 280 277 277 278 280 279 277 277 275 278 283 286 286 277 278 288
311 304 302 304 305 306 305 306 307 306 306 295 290 292 289 283 285 287 289 286 286 286 284 287 287 287 286 282 282 280 278 279 277 279 278 279 277 277 277 274 272 286 286 281 284 286 289
311 305 302 303 304 306 305 305 306 306 305 298 289 293 293 288 287 289 290 290 290 290 288 286 286 286 287 281 282 281 281 279 277 276 280 279 281 279 280 280 285 287 286 288 288 289 288

GFSGBSN_sfc_thetae_108.txt.gz
Theta_e
315 313 311 312 312 311 311 311 311 311 311 315 315 313 310 309 309 309 310 310 310 309 309 311 313 315 309 300 299 311 321 321 310 306 303 297 293 290 286 286 288 285 288 291 292 292 291
313 311 312 312 311 311 311 310 310 311 310 313 312 311 309 310 309 309 309 310 310 309 309 311 314 317 306 296 310 315 313 311 307 305 300 297 294 294 289 286 285 288 289 289 290 290 291
312 311 312 312 311 311 311 311 310 310 310 309 309 309 309 309 309 309 309 309 310 310 310 311 314 310 303 300 311 314 310 309 306 303 297 298 298 293 291 286 290 289 284 286 287 288 288
311 311 311 312 311 311 311 311 310 310 310 309 308 309 308 308 309 309 309 309 310 313 311 312 316 308 297 310 314 310 308 304 304 303 300 300 300 295 291 290 288 283 282 277 284 288 290
311 311 310 311 311 311 311 311 310 310 309 309 309 309 308 308 308 308 308 309 313 317 316 317 308 304 296 311 307 308 307 301 301 301 302 303 298 291 291 282 278 280 272 278 282 289 288
310 311 310 311 312 312 312 312 311 310 309 309 308 308 308 308 307 307 306 307 310 311 310 309 307 298 300 299 303 304 304 304 299 297 296 294 290 283 283 278 270 275 272 279 279 285 287
310 310 311 311 311 312 312 312 311 311 309 309 308 308 307 307 307 306 299 297 296 297 301 297 297 297 299 303 306 301 304 300 299 293 284 289 281 275 280 282 281 279 278 278 282 287 285
310 310 310 310 312 313 312 311 310 310 310 308 308 307 307 306 307 306 297 293 294 296 293 301 301 300 301 303 295 299 303 294 292 284 287 283 278 284 286 285 283 282 279 279 284 288 287
309 310 310 311 312 312 311 309 308 309 309 308 308 308 307 304 304 298 296 296 301 300 293 294 299 299 299 301 295 295 299 295 289 285 285 280 284 289 286 283 282 281 279 280 281 286 289
309 309 310 310 312 312 310 308 308 309 309 308 307 307 306 302 296 294 294 302 303 302 280 286 292 295 299 300 292 300 302 296 291 286 286 283 288 286 285 283 285 281 286 285 284 284 280
309 309 309 310 311 312 311 308 308 309 309 308 307 307 305 302 292 293 298 303 302 295 272 288 291 301 299 294 294 295 302 298 290 289 288 282 285 286 287 288 289 285 289 288 288 286 285
308 309 309 309 310 311 311 311 309 307 308 307 306 306 303 297 295 298 301 301 296 279 273 286 291 291 291 293 294 296 294 298 296 291 291 287 291 291 288 291 291 291 288 287 286 285 278
309 309 309 309 309 310 311 311 311 310 306 306 306 305 301 299 292 299 298 294 276 272 287 285 287 290 290 290 290 292 290 287 285 282 280 286 288 293 294 289 291 290 286 277 274 279 277
310 308 308 309 309 309 310 311 311 311 310 306 305 303 299 300 298 297 292 282 273 284 285 290 289 289 286 288 288 290 288 286 289 288 285 279 275 289 293 290 289 289 289 280 274 274 278
310 307 308 309 309 309 309 310 310 310 311 308 304 293 293 296 299 295 286 278 282 284 289 287 288 284 286 290 291 289 288 287 291 290 284 285 282 292 293 294 293 290 286 292 284 285 280
310 308 307 308 309 308 309 309 309 310 310 307 290 290 291 297 297 291 285 285 286 290 291 290 282 285 282 286 287 287 288 292 292 293 293 290 282 289 291 293 294 292 294 284 285 277 275
310 309 306 308 308 308 308 309 309 310 311 304 289 287 295 298 295 289 283 285 288 291 291 288 284 286 287 286 288 288 286 290 294 292 294 292 288 284 289 288 287 289 288 288 286 284 278
311 309 307 307 307 307 308 308 309 310 310 296 288 282 296 296 285 281 281 285 292 289 291 289 288 286 286 287 284 284 285 289 294 293 288 291 286 281 285 290 293 290 287 288 281 281 281
311 310 308 305 307 307 308 308 308 309 307 291 285 282 295 294 280 279 284 287 288 288 289 289 288 289 288 285 283 286 287 293 294 292 288 290 284 280 281 285 289 285 287 287 287 285 278
311 310 308 305 307 307 308 309 309 309 308 291 285 280 287 288 286 283 282 283 285 290 289 290 289 289 287 285 287 284 286 291 293 292 298 293 284 282 278 282 285 283 285 288 285 281 282
312 310 308 305 307 307 308 309 310 310 307 292 285 281 284 278 283 283 282 284 284 285 290 290 288 288 285 283 284 284 287 288 291 293 290 288 282 280 283 285 284 284 283 286 285 284 283
312 310 308 305 307 307 309 310 310 309 304 290 285 284 284 282 284 281 283 283 284 286 288 287 286 288 288 284 283 283 285 284 283 287 286 287 280 282 280 283 283 282 284 284 285 285 287
313 309 308 305 307 308 310 310 309 307 299 288 288 289 286 282 281 281 280 283 286 288 290 290 288 286 286 288 290 290 289 288 286 283 284 284 281 279 276 279 280 278 281 282 284 285 285
313 309 307 305 307 309 309 310 308 307 300 291 289 288 283 281 282 284 285 286 286 287 286 290 289 286 290 293 290 287 286 287 286 286 286 283 280 278 275 277 270 280 284 284 284 286 286
312 309 306 304 307 308 309 308 308 307 305 293 291 289 284 279 282 283 284 285 286 287 287 289 290 291 292 289 285 282 281 281 282 283 284 285 281 277 273 270 276 279 283 283 282 283 287
312 309 305 304 306 307 308 308 307 306 306 294 291 290 286 282 282 283 283 284 283 282 285 288 291 292 290 286 283 278 276 277 278 281 284 284 283 279 277 273 272 277 283 285 285 278 286
312 309 304 303 305 307 306 307 306 306 305 295 291 290 287 283 284 284 283 284 285 283 283 284 287 288 288 283 282 278 276 278 276 275 277 279 278 277 276 274 278 282 285 286 276 278 285
312 310 305 302 304 306 305 306 306 306 305 294 290 291 288 283 284 286 288 286 285 285 283 286 285 286 285 282 282 280 277 278 276 278 277 278 276 276 276 273 272 285 284 281 284 285 287
311 311 306 303 304 305 306 305 306 306 304 297 290 292 292 287 287 288 289 290 289 290 287 285 284 285 286 281 281 280 280 277 277 276 278 278 281 278 280 279 285 286 286 287 287 288 287

GFSGBSN_sfc_thetae_111.txt.gz
Theta_e
312 312 313 313 313 313 312 312 311 312 312 312 312 312 312 311 310 309 309 309 308 308 308 309 311 315 311 301 302 313 321 321 312 308 303 298 294 292 288 289 290 289 289 291 293 292 292
312 312 312 313 313 313 312 312 311 310 311 311 311 310 310 310 310 309 309 309 309 309 308 309 312 313 306 295 311 314 313 310 308 305 300 299 296 295 290 289 288 290 290 290 291 291 292
312 313 312 313 313 313 313 312 311 310 310 310 310 310 309 309 309 309 309 309 309 309 309 310 315 312 304 300 313 311 310 308 306 303 298 300 299 295 293 289 292 290 286 287 288 289 289
312 312 313 313 313 314 314 312 311 310 310 309 309 309 309 308 308 308 308 309 312 314 312 311 314 308 298 311 315 310 308 303 304 303 301 301 301 296 293 293 289 285 285 281 286 290 291
312 312 313 313 314 314 314 312 311 310 309 309 309 308 308 308 308 308 307 311 317 315 314 315 308 303 294 312 306 308 308 300 302 303 302 302 299 292 292 284 281 282 277 280 284 290 289
312 312 312 313 314 314 313 312 311 310 309 308 308 308 308 308 307 307 306 308 313 311 311 310 307 298 300 299 303 305 305 304 299 298 296 295 291 286 285 281 276 278 276 280 280 286 288
311 312 312 312 314 313 311 310 310 311 309 308 308 307 307 307 308 306 301 300 297 298 303 297 297 298 300 303 306 301 304 300 298 293 286 290 284 279 282 283 282 281 280 279 283 287 285
311 311 311 312 314 313 310 310 310 310 309 308 308 307 306 306 306 306 299 293 294 297 293 300 301 299 302 303 294 299 304 294 292 285 288 284 281 285 286 285 283 282 280 280 284 287 287
310 310 310 311 313 313 311 310 309 310 309 308 308 306 306 305 304 298 297 297 302 299 293 294 298 298 299 301 295 295 299 295 290 286 285 282 284 288 286 284 282 282 280 280 281 285 288
310 310 310 310 311 312 313 312 310 309 309 308 308 306 305 303 296 293 295 300 302 301 280 286 292 296 299 300 293 301 301 296 291 285 286 284 288 286 285 283 284 281 286 285 284 283 280
310 310 310 310 310 311 312 312 312 309 308 308 307 306 306 302 292 292 298 300 301 294 267 288 292 301 299 294 294 295 302 298 290 290 287 283 285 286 286 288 288 286 289 287 287 285 284
311 309 309 309 310 310 311 311 312 312 309 307 307 306 304 296 294 296 299 300 295 278 272 286 292 290 291 293 294 295 295 298 296 291 289 286 291 290 288 291 290 291 288 288 287 285 279
312 309 309 309 309 310 310 310 311 311 311 310 306 306 301 298 291 298 297 291 277 272 286 285 286 290 290 289 290 291 289 288 285 282 279 285 287 291 293 288 291 290 286 279 275 278 278
312 311 308 309 309 309 309 309 310 310 310 310 307 303 299 299 298 296 291 283 273 283 285 289 289 289 286 289 288 290 288 284 288 286 284 280 276 288 292 290 289 289 288 281 274 275 279
312 311 308 308 309 309 309 309 310 309 310 309 303 292 293 295 298 295 288 280 280 283 288 286 287 285 286 290 290 289 288 287 290 289 283 284 281 291 293 294 293 290 286 291 284 286 281
312 311 310 307 308 308 309 309 309 310 310 306 290 289 290 296 296 291 285 285 285 289 290 289 283 285 281 286 287 287 288 290 291 293 294 289 283 289 292 294 294 292 294 285 285 276 276
313 312 311 308 307 308 308 309 309 309 309 302 289 287 294 297 293 289 283 284 286 291 291 287 283 285 286 286 288 287 285 290 294 293 294 292 288 285 290 289 288 289 288 288 286 284 279
313 312 311 309 306 307 308 308 309 310 307 296 287 282 294 295 286 281 281 285 292 288 290 289 288 286 285 286 284 285 286 289 295 293 288 291 288 283 285 291 293 291 288 287 281 281 282
314 312 311 309 306 307 308 309 310 310 306 291 285 282 293 293 281 278 284 286 287 288 288 288 287 288 287 285 283 287 288 294 295 292 289 291 284 279 282 286 290 287 288 287 288 285 280
314 312 310 309 307 308 309 310 310 310 307 291 285 280 287 287 285 283 283 283 284 290 288 289 288 288 286 284 285 284 286 291 292 292 297 293 284 282 279 283 286 283 285 288 286 280 283
313 313 310 309 307 308 310 311 310 308 305 292 284 281 284 278 282 281 282 284 284 285 289 289 287 287 284 282 282 283 286 287 290 292 290 288 282 281 283 285 285 284 284 286 284 285 282
313 313 310 308 307 309 310 309 308 307 301 289 285 284 283 281 282 280 283 281 284 285 286 286 285 287 287 283 284 283 284 283 283 286 285 286 281 283 281 284 283 283 284 285 285 286 286
313 313 310 307 306 309 309 309 308 306 299 289 290 288 286 282 281 279 281 284 286 287 290 290 287 285 285 287 289 290 289 288 286 283 283 283 281 279 276 280 280 278 281 284 285 286 287
312 313 310 306 306 308 309 308 308 307 299 292 289 287 283 281 282 283 283 285 286 286 286 289 289 285 289 292 289 286 285 287 286 285 285 283 281 279 275 276 269 280 284 285 285 286 287
312 312 309 305 306 308 308 308 307 307 303 294 290 288 283 280 282 283 282 282 285 285 285 288 290 292 290 287 284 282 280 280 282 283 284 284 281 277 274 272 277 279 282 283 283 284 286
312 312 309 305 305 307 307 307 307 306 303 293 290 289 286 281 281 284 283 282 282 280 283 286 290 292 288 285 283 278 275 277 278 280 284 283 282 279 277 273 272 277 283 286 285 279 285
312 312 309 305 304 307 306 307 306 306 304 294 290 290 288 283 283 283 283 283 285 282 281 283 286 287 287 282 281 279 276 279 276 275 276 279 278 277 276 274 278 281 284 285 278 279 285
312 312 310 306 304 305 306 305 306 306 304 294 290 291 289 284 284 286 288 285 285 284 282 285 284 285 284 281 281 279 277 278 276 277 277 278 276 275 276 274 272 285 284 281 285 285 287
312 312 311 307 305 304 306 307 306 305 304 297 290 292 291 287 287 288 289 290 290 289 287 284 284 284 285 280 281 280 280 277 276 276 277 277 281 278 279 279 284 286 286 286 286 287 288

GFSGBSN_sfc_thetae_114.txt.gz
Theta_e
313 314 314 315 315 315 315 314 312 311 312 312 311 312 311 311 311 311 310 309 309 308 308 309 312 319 312 303 303 315 321 323 312 309 304 301 298 297 294 295 295 293 294 295 296 296 296
312 314 314 314 315 315 315 314 313 311 311 311 311 311 310 310 310 310 309 309 308 308 308 309 312 315 308 297 312 315 313 311 309 306 303 303 299 299 295 293 292 294 293 294 295 295 295
313 313 314 315 315 315 314 314 313 311 310 310 309 309 309 308 309 309 309 309 309 309 309 310 313 313 305 302 311 312 310 306 307 305 301 302 302 298 297 292 295 293 289 292 293 293 292
313 313 313 315 315 313 312 312 313 311 310 310 309 309 309 308 308 308 309 312 313 312 312 314 317 309 300 313 313 308 307 304 308 307 305 304 304 299 296 296 292 290 290 288 290 292 293
313 313 313 315 315 312 312 312 312 311 310 309 309 309 309 309 308 308 310 316 316 315 316 314 307 304 297 313 306 308 307 302 305 305 305 304 302 296 295 291 289 289 286 286 288 293 292
313 312 313 313 315 313 311 312 312 311 310 309 309 307 308 309 308 309 310 316 315 313 311 311 307 297 300 298 304 305 306 305 301 301 299 298 296 293 292 291 286 284 281 285 286 290 291
312 312 312 313 314 314 312 311 312 311 310 309 308 307 307 308 309 308 306 307 303 299 303 298 298 296 298 303 306 302 305 301 299 296 291 294 291 287 287 288 287 286 285 285 289 291 289
311 312 312 311 313 314 313 313 310 311 310 310 308 307 307 307 308 307 306 299 296 300 293 300 300 300 302 302 295 299 305 295 294 290 292 290 287 290 290 289 287 286 285 287 290 290 290
311 311 312 312 311 313 313 313 312 310 310 309 308 308 306 306 305 305 300 298 305 302 294 294 298 298 299 302 295 295 300 296 292 289 288 287 289 291 289 287 286 287 286 287 286 290 293
312 311 311 312 312 311 312 312 313 312 310 308 308 307 307 304 302 301 298 303 305 304 289 287 292 296 300 300 293 301 302 298 293 288 289 288 291 288 288 286 288 285 290 289 288 286 284
313 310 310 311 311 311 311 311 312 312 312 310 308 308 306 304 301 299 300 305 306 302 278 290 293 303 301 295 295 296 303 298 291 291 291 287 289 289 288 289 291 288 292 291 289 286 285
314 312 309 310 311 311 311 311 311 311 311 311 308 307 305 301 303 302 304 305 301 290 276 286 292 291 292 294 294 296 296 299 297 292 292 291 293 293 291 293 293 294 291 291 290 287 281
314 312 310 309 309 310 311 311 311 311 310 310 310 306 304 303 298 304 303 299 290 280 287 285 287 291 291 290 291 293 290 290 288 285 285 289 290 294 294 290 294 291 287 284 282 281 283
314 313 312 308 309 309 310 311 311 310 310 310 308 304 302 302 305 303 301 296 281 285 285 291 290 290 287 291 290 291 290 287 290 289 287 283 284 291 295 293 291 290 289 283 278 281 283
315 313 312 310 308 309 309 310 311 310 311 309 302 302 302 302 303 303 300 285 283 286 290 289 290 287 287 291 291 290 289 288 290 291 285 285 284 294 295 296 295 290 287 292 285 286 283
315 313 312 311 308 309 309 310 310 310 310 304 302 300 300 302 303 302 296 286 288 292 293 292 286 289 286 287 288 288 289 293 291 293 294 290 284 292 294 296 296 292 294 286 286 279 279
315 313 313 311 308 308 309 310 311 311 309 301 301 300 301 303 302 300 287 289 291 294 294 291 289 289 290 288 290 289 289 293 296 295 295 293 289 288 292 291 289 291 289 289 288 286 282
314 314 313 311 308 308 309 311 312 311 306 300 299 295 301 302 297 294 291 290 292 292 295 293 293 290 290 291 290 290 289 292 298 297 290 293 290 285 288 295 297 293 290 289 284 283 285
314 314 312 311 308 309 311 311 311 310 305 300 297 297 301 301 293 292 291 291 292 292 292 292 291 292 293 290 288 291 291 296 298 296 293 294 289 283 285 290 293 290 291 289 289 288 284
313 314 312 310 309 310 311 310 309 309 307 299 296 295 298 298 294 293 291 290 290 294 293 293 292 293 291 290 291 289 289 294 295 295 298 296 290 286 284 286 289 286 288 290 289 284 286
313 313 312 310 308 310 310 309 309 308 304 300 295 291 291 292 293 291 292 291 290 290 294 294 292 291 290 288 288 288 291 292 294 294 294 293 287 287 289 290 289 288 287 289 287 288 287
313 312 311 309 307 309 309 309 309 307 302 297 295 293 292 291 289 290 290 290 290 290 292 291 291 292 293 290 291 289 290 291 289 293 291 292 288 287 285 288 288 286 289 289 291 291 290
312 313 311 308 307 309 309 309 309 306 301 297 295 296 295 287 289 289 290 290 291 292 294 295 293 292 291 293 296 296 296 296 294 291 289 289 288 286 283 285 285 283 287 288 290 292 293
313 313 311 307 306 308 308 308 308 306 301 300 297 296 293 289 289 290 289 289 290 291 290 294 294 292 295 298 295 294 293 293 293 293 293 289 287 286 283 284 278 286 290 291 290 291 293
313 312 312 307 305 308 307 307 307 306 303 299 297 296 293 288 290 288 289 290 291 292 291 292 295 296 298 295 291 288 288 287 289 290 290 291 289 286 282 281 285 285 286 288 288 289 292
313 313 312 308 304 307 307 307 307 306 303 298 297 296 294 289 288 290 290 290 291 291 291 292 295 297 297 292 290 284 283 284 284 285 289 288 289 286 282 279 277 284 289 292 291 285 291
313 312 312 310 305 305 306 306 307 306 303 299 296 295 294 290 291 290 290 290 292 291 291 290 292 294 295 291 287 285 284 285 283 282 282 285 285 283 284 282 285 288 291 291 283 286 292
313 313 312 311 308 305 306 306 306 306 303 299 295 296 295 291 292 290 292 291 291 292 290 291 291 291 292 288 287 287 285 286 284 286 285 285 283 283 283 281 279 291 290 287 291 292 294
313 313 312 311 309 306 305 306 307 305 303 299 296 296 295 292 293 292 293 294 295 295 294 291 291 291 294 291 289 289 287 286 284 282 286 283 287 285 286 287 290 293 293 294 293 293 294

GFSGBSN_sfc_thetae_117.txt.gz
Theta_e
315 314 315 317 316 315 314 315 313 312 311 311 311 311 311 312 311 311 311 311 309 309 309 310 312 318 313 303 302 315 320 322 312 308 305 302 299 299 296 297 297 295 296 297 299 298 298
315 314 315 317 314 314 314 314 314 312 311 311 310 310 310 310 310 310 310 309 309 309 308 310 315 317 308 296 312 315 314 311 309 307 304 303 300 301 298 296 295 297 296 296 297 297 297
315 315 315 316 314 313 313 313 313 311 311 311 310 310 309 309 309 309 309 309 308 308 309 310 313 313 304 300 310 311 312 309 308 307 302 304 303 299 299 294 297 295 291 295 296 296 294
314 314 315 316 315 314 312 313 312 311 311 310 310 310 310 310 310 312 314 313 312 310 310 312 314 311 300 310 312 308 308 306 308 309 306 306 305 300 298 298 294 292 292 290 294 295 295
314 314 314 315 316 315 313 313 312 311 310 310 309 309 310 311 311 315 316 316 316 315 315 313 308 305 295 312 305 307 307 303 305 306 306 305 303 297 296 293 291 291 290 289 291 295 294
313 314 313 313 314 314 314 311 311 311 311 309 309 308 309 311 311 312 315 314 314 312 309 309 308 298 300 298 304 304 306 306 303 303 300 299 298 294 294 291 287 288 287 288 288 293 293
312 313 313 313 313 314 314 314 311 311 310 310 309 308 308 310 311 310 309 308 302 298 302 295 295 296 298 303 306 302 304 302 301 298 293 296 293 291 290 290 290 289 287 287 291 294 291
312 312 313 313 313 313 313 313 313 311 310 310 309 308 307 307 309 310 310 301 298 301 293 301 301 300 302 303 295 299 306 297 296 292 294 292 290 292 292 290 289 288 287 289 292 293 292
314 311 312 313 313 313 312 312 313 313 312 309 309 308 308 306 307 309 303 300 306 306 294 296 300 299 300 302 296 297 302 298 294 291 291 291 291 293 291 289 288 289 288 289 288 292 296
314 311 311 311 312 312 312 312 312 312 312 311 309 309 308 307 305 306 302 306 309 308 290 289 294 298 301 301 294 302 304 299 294 290 291 291 292 290 289 288 290 287 292 291 290 288 285
315 314 310 310 310 311 312 312 312 311 311 311 310 308 307 308 305 304 304 307 309 305 279 291 293 304 301 296 296 297 304 300 291 291 293 288 291 290 290 291 293 290 294 292 290 287 286
315 314 312 309 310 309 311 312 312 311 311 311 311 307 307 306 308 305 307 307 305 289 277 288 294 293 293 296 295 297 297 300 298 293 294 292 295 294 294 294 294 295 292 292 291 288 281
315 314 313 310 309 309 310 311 312 311 311 310 310 306 306 306 303 308 307 304 290 281 289 286 289 293 292 291 293 294 292 292 289 286 286 291 292 295 295 291 295 292 288 283 282 281 283
316 314 313 312 309 309 310 311 311 311 311 309 307 305 303 305 308 307 305 298 282 286 287 293 292 293 290 292 292 293 291 289 293 291 287 285 285 293 297 294 292 290 290 284 278 282 284
316 314 314 312 309 310 310 311 311 312 312 307 304 308 307 306 307 306 302 286 283 288 292 291 292 289 289 292 292 292 291 290 291 293 286 287 287 295 296 297 296 291 288 293 285 288 283
315 315 314 312 309 310 310 312 312 312 310 305 306 306 303 307 308 305 298 288 290 294 294 294 288 291 286 289 289 290 291 295 293 294 295 291 285 293 295 297 297 293 295 286 286 280 280
314 315 314 312 309 310 311 312 312 311 309 304 306 304 305 308 307 304 292 292 293 296 296 293 291 290 291 290 291 290 291 295 296 295 296 293 290 290 293 292 292 291 289 288 288 287 282
314 314 314 312 309 310 311 310 310 310 308 304 304 298 306 308 301 300 295 294 294 295 297 295 295 293 292 293 291 291 290 293 299 298 292 295 291 285 290 296 298 295 291 289 285 284 286
314 314 314 312 310 311 310 310 310 309 306 304 302 303 308 306 297 295 294 294 295 295 295 294 293 295 295 292 289 292 293 298 299 296 294 295 290 285 288 291 294 291 292 290 290 288 284
313 313 313 311 310 311 310 309 309 308 305 304 301 296 303 303 300 297 294 293 292 296 295 296 295 295 294 291 293 291 291 295 297 297 297 297 292 288 284 287 291 288 290 291 289 284 287
312 313 313 311 309 310 310 309 309 308 304 305 300 296 296 297 296 296 295 294 292 292 296 296 294 294 293 289 290 290 292 294 296 296 296 295 288 290 290 291 291 290 290 290 288 289 287
312 313 312 310 308 310 309 309 309 308 304 303 298 298 298 296 294 295 293 293 292 293 294 293 292 294 294 291 292 290 293 293 292 295 293 295 288 290 285 290 290 288 290 291 290 291 291
313 313 312 310 308 309 309 308 309 307 306 301 300 300 298 292 294 294 294 293 293 294 296 296 295 294 293 294 296 297 298 297 297 293 292 291 290 287 284 288 287 283 288 289 290 292 293
313 313 313 310 307 308 308 308 308 307 304 303 301 300 295 293 293 293 292 293 293 294 293 296 297 294 297 301 300 298 296 296 296 295 296 291 290 288 284 286 279 289 293 293 291 293 295
314 313 313 311 306 307 308 308 307 307 304 302 302 300 296 291 293 292 292 293 294 295 293 294 297 300 301 298 293 290 291 290 291 293 294 294 290 286 283 282 286 288 288 290 289 290 296
314 314 313 313 307 306 307 307 307 307 303 302 299 300 297 292 291 293 293 294 292 293 293 294 298 300 299 295 291 285 283 286 286 287 291 292 292 287 286 280 278 286 291 294 293 285 293
315 314 313 312 311 306 307 306 307 306 303 302 299 299 298 293 295 293 291 293 296 294 292 294 295 295 298 292 288 286 286 288 283 284 285 286 287 284 285 283 286 291 293 294 284 286 294
314 314 313 312 312 308 306 307 306 306 303 302 299 299 297 294 295 293 295 293 294 294 292 294 293 293 294 289 288 288 286 289 286 289 287 286 285 284 285 282 279 292 291 287 292 295 295
313 313 313 312 311 310 307 306 307 306 303 301 299 299 298 294 295 296 297 298 298 297 296 295 294 294 297 293 291 291 288 289 287 283 290 284 289 287 288 288 293 295 295 297 296 294 295